[[{"header":{"parameterUnit":"m.s-1","parameterCategory":1,"la1":30.6,"la2":28.766,"lo1":-90.7593,"lo2":-88.6598,"dy":0.0162,"dx":0.0183,"nx":116,"ny":114,"refTime":"2024-05-14T12:00:00:Z","depth":0,"parameterNumber":2,"parameterNumberName":"U-component_of_WINDS"},"data":[0.0,0.0,0.0,0.0,0.0,0.0,0.0,0.0,0.0,0.0,0.0,0.0,0.0,0.0,0.0,0.0,0.0,0.0,0.0,0.0,0.0,0.0,0.0,0.0,0.0,0.0,0.0,0.0,0.0,0.0,0.0,0.0,0.0,0.0,0.0,0.0,0.0,0.0,0.0,0.0,0.0,0.0,0.0,0.0,0.0,0.0,0.0,0.0,0.0,0.0,0.0,0.0,0.0,0.0,0.0,0.0,0.0,0.0,0.0,0.0,0.0,0.0,0.0,0.0,0.0,0.0,0.0,0.0,0.0,0.0,0.0,0.0,0.0,0.0,0.0,0.0,0.0,0.0,0.0,0.0,0.0,0.0,0.0,0.0,0.0,0.0,0.0,0.0,0.0,0.0,0.0,0.0,0.0,0.0,0.0,0.0,0.0,0.0,0.0,0.0,0.0,0.0,0.0,0.0,0.0,0.0,0.0,0.0,0.0,0.0,0.0,0.0,0.0,0.0,0.0,0.0,0.0,0.0,0.0,0.0,0.0,0.0,0.0,0.0,0.0,0.0,0.0,0.0,0.0,0.0,0.0,0.0,0.0,0.0,0.0,0.0,0.0,0.0,0.0,0.0,0.0,0.0,0.0,0.0,0.0,0.0,0.0,0.0,0.0,0.0,0.0,0.0,0.0,0.0,0.0,0.0,0.0,0.0,0.0,0.0,0.0,0.0,0.0,0.0,0.0,0.0,0.0,0.0,0.0,0.0,0.0,0.0,0.0,0.0,0.0,0.0,0.0,0.0,0.0,0.0,0.0,0.0,0.0,0.0,0.0,0.0,0.0,0.0,0.0,0.0,0.0,0.0,0.0,0.0,0.0,0.0,0.0,0.0,0.0,0.0,0.0,0.0,0.0,0.0,0.0,0.0,0.0,0.0,0.0,0.0,0.0,0.0,0.0,0.0,0.0,0.0,0.0,0.0,0.0,0.0,0.0,0.0,0.0,0.0,0.0,0.0,0.0,0.0,0.0,0.0,0.0,0.0,0.0,0.0,0.0,0.0,0.0,0.0,0.0,0.0,0.0,0.0,0.0,0.0,0.0,0.0,0.0,0.0,0.0,0.0,0.0,0.0,0.0,0.0,0.0,0.0,0.0,0.0,0.0,0.0,0.0,0.0,0.0,0.0,0.0,0.0,0.0,0.0,0.0,0.0,0.0,0.0,0.0,0.0,0.0,0.0,0.0,0.0,0.0,0.0,0.0,0.0,0.0,0.0,0.0,0.0,0.0,0.0,0.0,0.0,0.0,0.0,0.0,0.0,0.0,0.0,0.0,0.0,0.0,0.0,0.0,0.0,0.0,0.0,0.0,0.0,0.0,0.0,0.0,0.0,0.0,0.0,0.0,0.0,0.0,0.0,0.0,0.0,0.0,0.0,0.0,0.0,0.0,0.0,0.0,0.0,0.0,0.0,0.0,0.0,0.0,0.0,0.0,0.0,0.0,0.0,0.0,0.0,0.0,0.0,0.0,0.0,0.0,0.0,0.0,0.0,0.0,0.0,0.0,0.0,0.0,0.0,0.0,0.0,0.0,0.0,0.0,0.0,0.0,0.0,0.0,0.0,0.0,0.0,0.0,0.0,0.0,0.0,0.0,0.0,0.0,0.0,0.0,0.0,0.0,0.0,0.0,0.0,0.0,0.0,0.0,0.0,0.0,0.0,0.0,0.0,0.0,0.0,0.0,0.0,0.0,0.0,0.0,0.0,0.0,0.0,0.0,0.0,0.0,0.0,0.0,0.0,0.0,0.0,0.0,0.0,0.0,0.0,0.0,0.0,0.0,0.0,0.0,0.0,0.0,0.0,0.0,0.0,0.0,0.0,0.0,0.0,0.0,0.0,0.0,0.0,0.0,0.0,0.0,0.0,0.0,0.0,0.0,0.0,0.0,0.0,0.0,0.0,0.0,0.0,0.0,0.0,0.0,0.0,0.0,0.0,0.0,0.0,0.0,0.0,0.0,0.0,0.0,0.0,0.0,0.0,0.0,0.0,0.0,0.0,0.0,0.0,0.0,0.0,0.0,0.0,0.0,0.0,0.0,0.0,0.0,0.0,0.0,0.0,0.0,0.0,0.0,0.0,0.0,0.0,0.0,0.0,0.0,0.0,0.0,0.0,0.0,0.0,0.0,0.0,0.0,0.0,0.0,0.0,0.0,0.0,0.0,0.0,0.0,0.0,0.0,0.0,0.0,0.0,0.0,0.0,0.0,0.0,0.0,0.0,0.0,0.0,0.0,0.0,0.0,0.0,0.0,0.0,0.0,0.0,0.0,0.0,0.0,0.0,0.0,0.0,0.0,0.0,0.0,0.0,0.0,0.0,0.0,0.0,0.0,0.0,0.0,0.0,0.0,0.0,0.0,0.0,0.0,0.0,0.0,0.0,0.0,0.0,0.0,0.0,0.0,0.0,0.0,0.0,0.0,0.0,0.0,0.0,0.0,0.0,0.0,0.0,0.0,0.0,0.0,0.0,0.0,0.0,0.0,0.0,0.0,0.0,0.0,0.0,0.0,0.0,0.0,0.0,0.0,0.0,0.0,0.0,0.0,0.0,0.0,0.0,0.0,0.0,0.0,0.0,0.0,0.0,0.0,0.0,0.0,0.0,0.0,0.0,0.0,0.0,0.0,0.0,0.0,0.0,0.0,0.0,0.0,0.0,0.0,0.0,0.0,0.0,0.0,0.0,0.0,0.0,0.0,0.0,0.0,0.0,0.0,0.0,0.0,0.0,0.0,0.0,0.0,0.0,0.0,0.0,0.0,0.0,0.0,0.0,0.0,0.0,0.0,0.0,0.0,0.0,0.0,0.0,0.0,0.0,0.0,0.0,0.0,0.0,0.0,0.0,0.0,0.0,0.0,0.0,0.0,0.0,0.0,0.0,0.0,0.0,0.0,0.0,0.0,0.0,0.0,0.0,0.0,0.0,0.0,0.0,0.0,0.0,0.0,0.0,0.0,0.0,0.0,0.0,0.0,0.0,0.0,0.0,0.0,0.0,0.0,0.0,0.0,0.0,0.0,0.0,0.0,0.0,0.0,0.0,0.0,0.0,0.0,0.0,0.0,0.0,0.0,0.0,0.0,0.0,0.0,0.0,0.0,0.0,0.0,0.0,0.0,0.0,0.0,0.0,0.0,0.0,0.0,0.0,0.0,0.0,0.0,0.0,0.0,0.0,0.0,0.0,0.0,0.0,0.0,0.0,0.0,0.0,0.0,0.0,0.0,0.0,0.0,0.0,0.0,0.0,0.0,0.0,0.0,0.0,0.0,0.0,0.0,0.0,0.0,0.0,0.0,0.0,0.0,0.0,0.0,0.0,0.0,0.0,0.0,0.0,0.0,0.0,0.0,0.0,0.0,0.0,0.0,0.0,0.0,0.0,0.0,0.0,0.0,0.0,0.0,0.0,0.0,0.0,0.0,0.0,0.0,0.0,0.0,0.0,0.0,0.0,0.0,0.0,0.0,0.0,0.0,0.0,0.0,0.0,0.0,0.0,0.0,0.0,0.0,0.0,0.0,0.0,0.0,0.0,0.0,0.0,0.0,0.0,0.0,0.0,0.0,0.0,0.0,0.0,0.0,0.0,0.0,0.0,0.0,0.0,0.0,0.0,0.0,0.0,0.0,0.0,0.0,0.0,0.0,0.0,0.0,0.0,0.0,0.0,0.0,0.0,0.0,0.0,0.0,0.0,0.0,0.0,0.0,0.0,0.0,0.0,0.0,0.0,0.0,0.0,0.0,0.0,0.0,0.0,0.0,0.0,0.0,0.0,0.0,0.0,0.0,0.0,0.0,0.0,0.0,0.0,0.0,0.0,0.0,0.0,0.0,0.0,0.0,0.0,0.0,0.0,0.0,0.0,0.0,0.0,0.0,0.0,0.0,0.0,0.0,0.0,0.0,0.0,0.0,0.0,0.0,0.0,0.0,0.0,0.0,0.0,0.0,0.0,0.0,0.0,0.0,0.0,0.0,0.0,0.0,0.0,0.0,0.0,0.0,0.0,0.0,0.0,0.0,0.0,0.0,0.0,0.0,0.0,0.0,0.0,0.0,0.0,0.0,0.0,0.0,0.0,0.0,0.0,0.0,0.0,0.0,0.0,0.0,0.0,0.0,0.0,0.0,0.0,0.0,0.0,0.0,0.0,0.0,0.0,0.0,0.0,0.0,0.0,0.0,0.0,0.0,0.0,0.0,0.0,0.0,0.0,0.0,0.0,0.0,0.0,0.0,0.0,0.0,0.0,0.0,0.0,0.0,0.0,0.0,0.0,0.0,0.0,0.0,0.0,0.0,0.0,0.0,0.0,0.0,0.0,0.0,0.0,0.0,0.0,0.0,0.0,0.0,0.0,0.0,0.0,0.0,0.0,0.0,0.0,0.0,0.0,0.0,0.0,0.0,0.0,0.0,0.0,0.0,0.0,0.0,0.0,0.0,0.0,0.0,0.0,0.0,0.0,0.0,0.0,0.0,0.0,0.0,0.0,0.0,0.0,0.0,0.0,0.0,0.0,0.0,0.0,0.0,0.0,0.0,0.0,0.0,0.0,0.0,0.0,0.0,0.0,0.0,0.0,0.0,0.0,0.0,0.0,0.0,0.0,0.0,0.0,0.0,0.0,0.0,0.0,0.0,0.0,0.0,0.0,0.0,0.0,0.0,0.0,0.0,0.0,0.0,0.0,0.0,0.0,0.0,0.0,0.0,0.0,0.0,0.0,0.0,0.0,0.0,0.0,0.0,0.0,0.0,0.0,0.0,0.0,0.0,0.0,0.0,0.0,0.0,0.0,0.0,0.0,0.0,0.0,0.0,0.0,0.0,0.0,0.0,0.0,0.0,0.0,0.0,0.0,0.0,0.0,0.0,0.0,0.0,0.0,0.0,0.0,0.0,0.0,0.0,0.0,0.0,0.0,0.0,0.0,0.0,0.0,0.0,0.0,0.0,0.0,0.0,0.0,0.0,0.0,0.0,0.0,0.0,0.0,0.0,0.0,0.0,0.0,0.0,0.0,0.0,0.0,0.0,0.0,0.0,0.0,0.0,0.0,0.0,0.0,0.0,0.0,0.0,0.0,0.0,0.0,0.0,0.0,0.0,0.0,0.0,0.0,0.0,0.0,0.0,0.0,0.0,0.0,0.0,0.0,0.0,0.0,0.0,0.0,0.0,0.0,0.0,0.0,0.0,0.0,0.0,0.0,0.0,0.0,0.0,0.0,0.0,0.0,0.0,0.0,0.0,0.0,0.0,0.0,0.0,0.0,0.0,0.0,0.0,0.0,0.0,0.0,0.0,0.0,0.0,0.0,0.0,0.0,0.0,0.0,0.0,0.0,0.0,0.0,0.0,0.0,0.0,0.0,0.0,0.0,0.0,0.0,0.0,0.0,0.0,0.0,0.0,0.0,0.0,0.0,0.0,0.0,0.0,0.0,0.0,0.0,0.0,0.0,0.0,0.0,0.0,0.0,0.0,0.0,0.0,0.0,0.0,0.0,0.0,0.0,0.0,0.0,0.0,0.0,0.0,0.0,0.0,0.0,0.0,0.0,0.0,0.0,0.0,0.0,0.0,0.0,0.0,0.0,0.0,0.0,0.0,0.0,0.0,0.0,0.0,0.0,0.0,0.0,0.0,0.0,0.0,0.0,0.0,0.0,0.0,0.0,0.0,0.0,0.0,0.0,0.0,0.0,0.0,0.0,0.0,0.0,0.0,0.0,0.0,0.0,0.0,0.0,0.0,0.0,0.0,0.0,0.0,0.0,0.0,0.0,0.0,0.0,0.0,0.0,0.0,0.0,0.0,0.0,0.0,0.0,0.0,0.0,0.0,0.0,0.0,0.0,0.0,0.0,0.0,0.0,0.0,0.0,0.0,0.0,0.0,0.0,0.0,0.0,0.0,0.0,0.0,0.0,0.0,0.0,0.0,0.0,0.0,0.0,0.0,0.0,0.0,0.0,0.0,0.0,0.0,0.0,0.0,0.0,0.0,0.0,0.0,0.0,0.0,0.0,0.0,0.0,0.0,0.0,0.0,0.0,0.0,0.0,0.0,0.0,0.0,0.0,0.0,0.0,0.0,0.0,0.0,0.0,0.0,0.0,1.5277,0.0,0.0,0.0,0.0,0.0,0.0,0.0,0.0,0.0,0.0,0.0,0.0,0.0,0.0,0.0,0.0,0.0,0.0,0.0,0.0,0.0,0.0,0.0,0.0,0.7017,0.7107,0.7373,0.7569,0.7695,0.7695,0.0,0.0,0.0,0.0,0.0,1.0273,1.0283,1.0283,1.0283,1.0611,1.1046,1.1531,1.2015,1.1795,1.1057,0.0,0.0,0.0,0.0,0.0,0.0,0.0,0.0,0.0,0.0,0.0,0.0,0.0,0.0,0.0,0.0,0.0,0.0,0.0,0.0,0.0,0.0,0.0,0.0,0.0,0.0,0.0,0.0,0.0,0.0,0.0,0.0,0.0,0.0,0.0,0.0,0.0,0.0,0.0,0.0,0.0,0.0,0.0,0.0,0.0,0.0,0.0,0.0,0.0,0.0,0.0,0.0,0.0,0.0,0.0,0.0,0.0,0.0,0.0,0.0,0.0,0.0,0.0,0.0,0.0,0.0,0.0,0.0,0.0,0.0,0.0,1.6888,0.0,0.0,0.0,0.0,0.0,0.0,0.0,0.0,0.0,0.0,0.0,0.0,0.0,0.0,0.0,0.0,0.0,0.0,0.0,0.0,0.0,0.646,0.6897,0.6987,0.7164,0.7506,0.7713,0.7871,0.7969,0.8391,0.0,0.0,0.0,0.0,1.0273,1.0283,1.0361,1.0428,1.1065,1.2074,1.3334,1.4101,1.3751,1.2484,1.2348,0.0,0.0,0.0,0.0,0.0,0.0,0.0,0.0,0.0,0.0,0.0,0.0,0.0,0.0,0.0,0.0,0.0,0.0,0.0,0.0,0.0,0.0,0.0,0.0,0.0,0.0,0.0,0.0,0.0,0.0,0.0,0.0,0.0,0.0,0.0,0.0,0.0,0.0,0.0,0.0,0.0,0.0,0.0,0.0,0.0,0.0,0.0,0.0,0.0,0.0,0.0,0.0,0.0,0.0,0.0,0.0,0.0,0.0,0.0,0.0,0.0,0.0,0.0,2.1582,2.2231,2.2708,2.3756,2.3983,2.3478,2.1668,2.0179,1.8967,0.0,0.0,0.0,0.0,0.0,0.0,0.0,0.0,0.0,0.0,0.0,0.0,0.0,0.0,0.0,0.0,0.0,0.0,0.0,0.0,0.6399,0.6626,0.6867,0.7302,0.8108,0.825,0.8543,0.9063,0.9298,0.0,0.0,0.0,1.0225,1.0283,1.0283,1.0505,1.0905,1.2302,1.3673,1.4991,1.5781,1.6735,1.7597,1.5193,1.428,1.4463,0.0,0.0,0.0,0.0,0.0,0.0,0.0,0.0,0.0,0.0,0.0,0.0,0.0,0.0,0.0,0.0,0.0,0.0,0.0,0.0,0.0,0.0,0.0,0.0,0.0,0.0,0.0,0.0,0.0,0.0,0.0,0.0,0.0,0.0,0.0,0.0,0.0,0.0,0.0,0.0,0.0,1.4684,1.4476,0.0,0.0,0.0,0.0,0.0,0.0,0.0,0.0,0.0,0.0,0.0,0.0,0.0,1.9668,2.0217,2.244,2.3347,2.2957,2.5314,2.6002,2.519,2.6784,2.7448,2.7398,2.7576,0.0,2.1336,2.0888,0.0,0.0,0.0,0.0,0.0,0.0,0.0,0.0,0.0,0.0,0.0,0.0,0.0,0.0,0.0,0.0,0.0,0.0,0.0,0.0,0.0,0.763,0.8265,0.902,0.9679,0.9939,0.9721,1.0184,0.0,0.0,1.0134,1.0283,1.0283,1.0039,1.0753,1.2452,1.4263,1.6073,1.7815,1.8532,1.9381,2.0252,1.9793,1.8662,1.697,1.5945,0.0,0.0,0.0,0.0,0.0,0.0,0.0,0.0,0.0,0.0,0.0,0.0,0.0,0.0,0.0,0.0,0.0,0.0,0.0,0.0,0.0,0.0,0.0,0.0,0.0,0.0,0.0,0.0,0.0,0.0,0.0,0.0,0.0,0.0,0.0,0.0,0.0,0.0,0.0,1.3887,1.5202,1.4654,1.5593,1.5697,0.0,0.0,0.0,0.0,0.0,0.0,0.0,0.0,0.0,2.0544,2.2053,2.3062,2.356,2.5785,2.6943,2.703,2.8462,2.9051,2.8888,2.993,3.0407,3.0444,3.1009,2.9889,2.7478,2.5123,2.3427,2.2177,0.0,0.0,0.0,0.0,1.8199,1.7295,0.0,0.0,0.0,0.0,0.0,0.0,0.0,0.0,0.0,0.0,0.0,0.0,0.7927,0.8638,0.9425,1.0405,1.1057,1.124,1.0776,1.1032,1.0946,1.0293,1.0336,1.0351,1.0283,1.0611,1.1955,1.4385,1.6592,1.8598,2.0464,2.133,2.2135,2.2872,2.4134,2.2901,1.9726,1.8699,1.7178,1.5293,0.0,0.0,0.0,0.0,0.0,0.0,0.0,0.0,0.0,0.0,0.0,0.0,0.0,0.0,0.0,0.0,0.0,0.0,0.0,0.0,0.0,0.0,0.0,0.0,0.0,0.0,0.0,0.0,0.0,0.0,0.0,0.0,0.0,0.0,0.0,0.0,0.0,1.5051,1.6375,1.5391,1.6973,1.7381,0.0,0.0,0.0,0.0,0.0,0.0,2.0937,2.199,2.305,2.4208,2.5679,2.6793,2.7281,2.9089,3.0206,3.0645,3.1198,3.165,3.2051,3.2604,3.2855,3.288,3.3307,3.3169,3.239,2.9076,2.6917,2.5569,2.4443,2.3321,2.2354,2.2095,2.1314,2.039,0.0,0.0,0.0,0.0,0.0,0.0,0.0,0.0,0.0,0.0,0.0,0.7869,0.8998,0.968,1.071,1.24,1.215,1.2141,1.2724,1.1848,1.1185,1.095,1.0715,1.0505,1.0283,1.2715,1.4769,1.6462,1.9156,2.1079,2.2221,2.3853,2.5243,2.6488,2.7379,2.5942,2.2739,2.1902,2.0947,1.9642,1.5761,0.0,0.0,0.0,0.0,0.0,0.0,0.0,0.0,0.0,0.0,0.0,0.0,0.0,0.0,0.0,0.0,0.0,0.0,0.0,0.0,0.0,0.0,0.0,0.0,0.0,0.0,0.0,0.0,0.0,0.0,0.0,0.0,0.0,0.0,0.0,0.0,0.0,0.0,1.7654,2.0763,0.0,0.0,0.0,0.0,1.9564,2.1776,2.3298,2.3651,2.5797,2.7448,2.8525,2.9677,3.0846,3.1876,3.2541,3.288,3.2918,3.347,3.3746,3.3796,3.4349,3.46,3.46,3.4625,3.4324,3.3671,3.1888,3.0796,3.0231,2.9666,2.8543,2.7292,2.7227,2.637,2.5034,0.0,0.0,0.0,0.0,0.0,0.5934,0.6129,0.6304,0.6513,0.6807,0.7857,0.892,0.9764,1.1316,1.2649,1.3533,1.4057,1.4235,1.3946,1.3263,1.253,1.1793,1.1005,1.104,1.1971,1.4821,1.7159,1.8821,2.1107,2.3,2.4443,2.5423,2.6287,2.7148,2.8369,2.7916,2.6116,2.5691,2.3345,1.9768,1.8339,1.6239,0.0,0.0,0.0,0.0,0.0,0.0,0.0,0.0,0.0,0.0,0.0,0.0,0.0,0.0,0.0,0.0,0.0,0.0,0.0,0.0,0.0,0.0,0.0,0.0,0.0,0.0,0.0,0.0,0.0,0.0,0.0,0.0,0.0,0.0,0.0,0.0,0.0,2.0294,2.3065,0.0,2.2185,2.2856,2.349,2.37,2.5721,2.7341,2.8176,2.9677,3.0809,3.1574,3.234,3.2918,3.3294,3.3859,3.4135,3.4135,3.4336,3.4424,3.4449,3.5002,3.5253,3.5278,3.5629,3.5667,3.5441,3.4839,3.3646,3.2139,3.1574,3.0417,2.9078,2.9009,2.8081,2.6685,0.0,0.0,0.0,0.4688,0.5368,0.594,0.6024,0.6399,0.6755,0.6996,0.8545,0.9944,1.0737,1.273,1.4244,1.4862,1.5405,1.5346,1.4548,1.3832,1.2981,1.1942,1.1678,1.2476,1.4414,1.7169,1.9507,2.1416,2.3317,2.4908,2.6176,2.6942,2.7494,2.7918,2.91,2.9297,2.8718,2.9348,2.7049,2.2922,2.1542,1.9156,1.6316,0.0,0.0,0.0,0.0,0.0,0.0,0.0,0.0,0.0,0.0,0.0,0.0,0.0,0.0,0.0,0.0,0.0,0.0,0.0,0.0,0.0,0.0,0.0,0.0,0.0,0.0,0.0,0.0,0.0,0.0,0.0,0.0,0.0,0.0,0.0,2.2904,2.2831,2.5767,2.7149,2.5611,2.651,2.7333,2.7693,2.9149,3.0532,3.1662,3.2579,3.3407,3.4161,3.4726,3.509,3.5278,3.5466,3.5554,3.5554,3.5366,3.5278,3.529,3.5655,3.5818,3.5843,3.6207,3.6358,3.6358,3.6358,3.5504,3.4123,3.3558,3.2673,3.1687,3.1565,3.0769,2.9781,0.0,0.4465,0.4703,0.4703,0.5456,0.6018,0.5884,0.673,0.7296,0.7107,0.9077,1.0931,1.1976,1.3789,1.5354,1.6421,1.6019,1.5359,1.4572,1.3525,1.2453,1.1421,1.2773,1.4812,1.7533,1.9782,2.1975,2.4079,2.5711,2.6848,2.7331,2.8423,2.8925,2.8925,2.9792,3.0268,3.0402,3.2591,3.2046,2.946,2.5535,2.3057,2.1328,0.0,0.0,0.0,0.0,0.0,0.0,0.0,0.0,0.0,0.0,0.0,0.0,0.0,0.0,0.0,0.0,0.0,0.0,0.0,0.0,0.0,0.0,0.0,0.0,0.0,0.0,0.0,0.0,0.0,0.0,0.0,0.0,0.0,1.8771,2.2829,2.5795,2.5376,2.8987,3.0834,2.9264,3.0557,3.1499,3.1512,3.2039,3.283,3.3935,3.4512,3.529,3.637,3.691,3.745,3.8002,3.7462,3.7199,3.7199,3.6646,3.6383,3.6383,3.6383,3.6383,3.6358,3.6358,3.6358,3.6358,3.6358,3.6358,3.6307,3.578,3.542,3.5236,3.4891,3.4751,3.4482,0.433,0.4412,0.4478,0.4478,0.4901,0.5274,0.5443,0.5913,0.6344,0.6618,0.9274,1.1281,1.1641,1.4318,1.6183,1.6497,1.6019,1.5508,1.5114,1.3831,1.3004,1.2758,1.4471,1.6619,1.9194,2.2182,2.4391,2.5787,2.7042,2.7733,2.7896,2.8599,2.8925,2.8963,2.9998,3.0239,3.0066,3.2024,3.3253,3.379,3.265,2.9449,2.5038,0.0,0.0,0.0,0.0,0.0,0.0,0.0,0.0,0.0,0.0,0.0,0.0,0.0,0.0,0.0,0.0,0.0,0.0,0.0,0.0,0.0,0.0,0.0,0.0,0.0,0.0,0.0,0.0,0.0,0.0,0.0,0.0,2.3597,2.3323,2.5345,2.7726,2.9961,3.1617,3.2754,3.3093,3.3545,3.3972,3.4374,3.4914,3.5529,3.6245,3.642,3.6835,3.7525,3.7312,3.745,3.8002,3.7462,3.7387,3.7776,3.7224,3.696,3.696,3.696,3.6734,3.6358,3.6358,3.6358,3.6358,3.6358,3.6358,3.6345,3.6194,3.5805,3.5328,3.5186,3.4952,3.4601,0.433,0.437,0.4391,0.433,0.4699,0.5065,0.5306,0.5772,0.6199,0.6466,0.9451,1.1563,1.1512,1.4489,1.6421,1.6195,1.6095,1.5579,1.4486,1.387,1.4004,1.5031,1.7037,1.9335,2.1901,2.4304,2.6163,2.7494,2.8134,2.8574,2.8825,2.9139,2.9415,2.9666,3.0319,3.0984,3.1683,3.2922,3.4693,3.6648,3.7015,3.4419,3.0071,2.724,2.4994,2.3255,2.1969,2.1394,2.0934,1.8741,0.0,0.0,0.0,0.0,0.0,0.0,0.0,0.0,0.0,0.0,0.0,0.0,0.0,0.0,0.0,0.0,0.0,0.0,0.0,0.0,0.0,0.0,0.0,0.0,2.4202,2.676,2.7903,2.8775,3.0143,3.2315,3.3483,3.4462,3.5341,3.5629,3.5981,3.6533,3.6872,3.7199,3.7513,3.7764,3.804,3.8366,3.8278,3.8391,3.8705,3.8165,3.8052,3.8366,3.7801,3.7525,3.7525,3.7525,3.7362,0.0,3.7048,3.7048,3.7048,3.6889,3.6864,0.0,0.0,0.0,0.0,0.0,3.5637,3.5394,0.4289,0.4309,0.437,0.4248,0.4657,0.5085,0.5331,0.5933,0.6384,0.6456,0.9433,1.1523,1.1316,1.4195,1.6007,1.563,1.5849,1.5241,1.3383,1.3815,1.5222,1.7605,1.9879,2.2307,2.4858,2.6113,2.7457,2.8925,2.9001,2.9289,2.9792,2.9792,3.0068,3.0503,3.067,3.1863,3.3813,3.4609,3.6286,3.8512,3.9237,3.797,3.5209,3.1279,2.9151,2.8071,2.6686,2.4991,2.3399,2.2928,0.0,0.0,0.0,0.0,0.0,0.0,0.0,0.0,0.0,0.0,0.0,0.0,0.0,0.0,0.0,0.0,0.0,0.0,0.0,0.0,0.0,0.0,0.0,0.0,2.713,2.9453,3.1951,3.2478,3.278,3.3294,3.4713,3.5868,3.6445,3.6973,3.7513,3.8065,3.8103,3.814,3.8191,0.0,0.0,0.0,0.0,3.9634,3.9697,3.9145,3.8906,3.8956,3.8379,3.8103,3.8103,3.8103,3.8065,3.8002,3.8002,3.8002,3.7878,3.7667,3.7654,3.7703,3.6751,3.6351,3.642,3.642,3.642,3.6447,0.4411,0.4391,0.4391,0.437,0.4449,0.465,0.5023,0.5293,0.5629,0.612,0.852,1.0189,1.0148,1.2362,1.4186,1.4965,1.3874,1.3215,1.3489,1.4223,1.595,1.8912,2.1584,2.3765,2.5423,2.7419,2.8612,2.8925,2.9402,2.9679,2.9792,2.9792,2.9836,2.9973,3.0891,3.1508,3.2134,3.5388,3.8308,4.0739,4.0559,3.8757,3.6133,3.4782,3.3466,3.199,2.9295,2.8813,2.8881,2.5437,2.4954,2.5464,2.3441,2.1504,0.0,0.0,0.0,0.0,0.0,0.0,0.0,0.0,0.0,0.0,0.0,0.0,0.0,0.0,0.0,0.0,0.0,0.0,0.0,2.6119,2.9222,3.1763,3.2767,3.406,3.4939,3.5052,3.5768,3.6445,3.6985,3.7525,3.8078,3.8668,3.8705,3.8894,3.9346,3.9044,3.9082,3.9521,3.9207,3.9245,3.9685,3.9145,3.9094,3.9534,0.0,0.0,3.8705,3.8705,3.8442,3.8002,3.8002,3.7841,3.7654,3.7828,3.8488,3.9038,3.7121,3.6418,3.6376,3.6376,3.6368,3.6427,0.433,0.435,0.4391,0.4309,0.4435,0.4669,0.5031,0.5257,0.551,0.599,0.7878,0.9334,0.9656,1.1274,1.2554,1.3198,1.2281,1.2557,1.472,1.5972,1.8029,2.1113,2.3692,2.559,2.6829,2.821,2.9063,2.9365,2.9654,2.9792,2.9792,2.9792,2.9977,3.0386,3.1122,3.1737,3.2391,3.4365,3.7069,4.0202,4.1475,4.0749,3.8826,3.7838,3.6626,3.52,3.3454,3.2616,3.1953,2.9153,2.7649,2.6685,2.5273,2.3372,2.1321,0.0,0.0,0.0,0.0,0.0,0.0,0.0,0.0,0.0,0.0,0.0,0.0,0.0,0.0,2.2042,2.3505,0.0,2.7607,2.9195,3.1517,3.3345,3.4198,3.5265,3.5956,3.5956,3.6445,3.7123,3.7952,3.8278,3.868,3.9245,3.9283,3.9408,3.9685,3.9433,3.9408,3.9685,3.9433,3.9421,3.9697,3.9421,3.9421,3.9697,3.9421,3.9283,3.9283,3.9283,3.9132,3.8856,3.8856,3.8717,3.8655,3.8818,3.9196,3.9563,3.8491,3.8017,3.7909,3.6796,3.6363,3.643,0.4207,0.4289,0.433,0.4228,0.4425,0.4751,0.5148,0.535,0.5604,0.6059,0.74,0.854,0.9137,1.0116,1.0818,1.087,1.0999,1.2435,1.5637,1.7564,2.0049,2.3303,2.5586,2.7243,2.8247,2.8812,2.9327,2.9792,2.9792,2.9792,2.9792,2.9777,3.0115,3.0678,3.1154,3.2003,3.3122,3.3474,3.5448,3.8631,4.1609,4.2395,4.161,4.0277,3.905,3.7913,3.7267,3.5419,3.3168,3.2334,2.9714,2.6822,2.6695,2.5347,2.3364,2.1329,2.0649,0.0,0.0,0.0,0.0,0.0,0.0,0.0,0.0,0.0,2.2228,2.3353,2.4202,2.5355,2.7009,2.8686,3.0468,3.2218,3.3571,3.465,3.5429,3.6194,3.6684,3.6684,3.7174,3.7864,3.8781,3.8969,3.922,3.9659,3.9697,3.9697,3.9697,3.9697,3.9747,3.9848,3.9747,3.9747,3.9848,3.9747,3.9697,3.9697,3.9697,3.9697,3.9697,3.9697,3.9697,3.9697,3.9697,3.9697,3.9697,3.9697,3.9697,3.9697,3.9697,3.9677,3.9482,3.7701,3.6773,3.644,0.4207,0.4207,0.4207,0.4207,0.4239,0.4465,0.5108,0.5217,0.5543,0.6415,0.7005,0.7467,0.7695,0.8167,0.845,0.8393,1.0173,1.2278,1.4676,1.7352,2.0593,2.4442,2.6741,2.821,2.8825,2.9402,2.9729,2.9792,2.9792,2.9792,2.9792,2.9779,2.985,2.9951,3.0633,3.1791,3.3212,3.4653,3.5782,3.6976,3.9782,4.1774,4.2922,4.164,4.0711,3.9858,3.8427,3.5527,3.241,3.3143,3.1168,2.8625,2.9685,2.9094,2.7339,2.403,2.1865,2.0093,1.7944,1.8257,0.0,2.4041,2.4121,2.412,0.0,0.0,2.5657,2.777,2.8675,2.9338,3.0043,3.1549,3.2918,3.3596,3.5052,3.5956,3.5592,3.686,3.7826,3.7826,3.8329,3.873,3.8856,3.932,3.9634,3.9685,3.9697,3.9697,3.9697,3.9697,3.9923,4.0413,3.9948,3.9936,4.0425,3.9936,3.9697,3.9697,3.9697,3.9697,3.9697,3.9697,3.9697,3.9697,3.9697,3.9697,3.9697,3.9697,3.9697,3.9697,3.9697,3.9647,3.9637,3.9399,3.8042,3.6369,0.4207,0.4207,0.4207,0.4207,0.4512,0.4814,0.4885,0.5327,0.5769,0.6096,0.6334,0.6715,0.7311,0.7515,0.7526,0.7319,0.8531,1.0795,1.4293,1.6962,2.0309,2.4618,2.6929,2.836,2.8925,2.9503,2.9792,2.9792,2.9792,2.9955,3.0269,2.9965,3.0103,3.0728,3.1286,3.2084,3.3157,3.4309,3.5423,3.6713,3.9159,4.0681,4.1285,4.1048,3.9652,3.7448,3.4918,3.263,0.0,2.7934,2.6878,2.6879,2.8261,2.7298,2.5215,2.3257,2.1852,2.0996,2.1028,0.0,0.0,0.0,2.6863,2.7024,2.9405,2.9218,2.8863,3.0105,3.1336,3.2252,3.2491,3.3608,3.4688,0.0,3.6182,3.6872,3.6973,3.7575,3.7889,3.7563,3.8027,3.863,3.9283,3.9559,3.9823,4.0149,4.0174,4.0312,4.0626,4.0651,4.0752,4.099,4.0777,4.0614,4.0513,4.0287,4.0011,3.9697,3.9697,3.9697,3.9697,3.9697,3.9697,3.9697,3.9697,3.9697,3.9697,3.9697,3.9697,3.9697,3.9697,3.9697,3.9659,3.9728,3.907,3.8329,0.4207,0.4207,0.4207,0.4207,0.4679,0.4996,0.487,0.5382,0.5812,0.5939,0.6027,0.6332,0.694,0.7029,0.6941,0.6698,0.7424,0.9583,1.3497,1.6148,1.9521,2.3876,2.6396,2.7984,2.8687,2.9415,2.9792,2.9792,2.9792,2.9993,3.0394,3.0281,3.0735,3.1568,3.2114,3.26,3.3178,3.3999,3.5029,3.6201,3.8188,3.8627,3.809,3.8589,3.6952,3.3998,3.1744,2.982,2.7804,2.4124,2.3108,2.3747,2.5661,2.4747,2.286,2.2028,2.1527,2.155,2.2994,0.0,0.0,2.7802,2.9034,2.9592,3.1137,3.1506,3.1675,3.2202,3.3395,3.4349,3.4349,3.5127,3.5943,3.6496,3.7048,3.75,3.7751,3.7914,3.7751,3.7048,3.7312,3.7927,3.8906,3.9283,3.976,4.0463,4.0513,4.0752,4.1304,4.1342,4.1417,4.1555,4.1417,4.1216,4.0978,4.0676,4.0325,3.9923,3.9772,3.9697,3.9697,3.9697,3.9697,3.9697,3.9697,3.9697,3.9697,3.9697,3.9697,3.9697,3.9697,3.9697,3.9659,3.9728,3.9753,3.9715,0.4207,0.4207,0.4207,0.4207,0.4488,0.4814,0.5148,0.5194,0.5489,0.6203,0.6276,0.6315,0.633,0.633,0.633,0.633,0.7282,0.9124,1.1994,1.4843,1.817,2.2128,2.5033,2.7017,2.8109,2.9227,2.9792,2.9792,2.9792,2.9804,2.9842,3.0871,3.1612,3.2003,3.2714,3.3056,3.3131,3.4223,3.4729,3.4894,3.6075,3.5297,3.3342,3.3867,3.2472,3.0224,3.0452,2.804,2.4716,2.4271,2.1887,1.9625,2.2647,2.2957,2.2003,2.1271,2.1019,2.1349,0.0,0.0,2.704,3.0044,3.0706,3.0972,3.2676,3.3395,3.396,3.4512,3.509,3.5491,3.5491,3.5956,3.6521,3.7073,3.7626,3.7801,3.7287,3.7663,3.76,3.6521,3.6408,3.6634,0.0,3.8253,3.9346,4.0438,4.0513,4.0752,4.1304,4.1342,4.158,4.2108,4.1618,4.158,4.2095,4.1053,4.0513,4.0488,3.9948,3.9697,3.9697,3.9697,3.9697,3.9697,3.9697,3.9697,3.9697,3.9697,3.9697,3.9697,3.9697,3.9697,3.9697,3.9685,3.9685,3.9685,0.4207,0.4207,0.4207,0.4207,0.429,0.448,0.483,0.5275,0.5684,0.5923,0.6163,0.0,0.0,0.0,0.0,0.0,0.6511,0.7884,1.0346,1.2795,1.5548,1.8748,2.2333,2.4767,2.5849,2.7329,2.8486,2.9214,2.9214,2.9628,3.0498,3.0423,3.0785,3.1581,3.2164,3.2369,3.2419,3.3294,3.3871,3.4295,3.3696,3.2802,3.1694,3.1861,2.9874,2.6684,0.0,2.2342,2.0188,1.9057,1.8125,1.7772,1.9794,1.9793,1.9072,1.9402,2.0415,2.1955,2.4626,0.0,2.8762,3.1148,3.2257,3.3043,3.396,3.46,3.4839,3.4286,3.519,3.5529,3.3671,3.4587,3.5742,3.6044,3.686,3.7776,3.8718,3.8693,3.804,3.6571,3.6697,0.0,0.0,0.0,0.0,3.9885,4.0651,4.1304,4.1856,4.2221,4.2509,4.2698,4.2522,4.2333,4.2158,4.143,4.0877,4.0513,3.9961,3.9697,3.9697,3.9697,3.9697,3.9697,3.9697,3.9697,3.9697,3.9697,3.9697,3.9697,3.9697,3.9697,3.9697,3.9697,3.9697,3.9697,0.0,0.4207,0.4207,0.4207,0.4207,0.0,0.0,0.0,0.0,0.0,0.0,0.0,0.0,0.0,0.0,0.0,0.0,0.707,0.8925,1.0905,1.3044,1.5494,1.8894,2.116,2.2072,2.3857,2.5122,2.5807,2.621,2.7138,2.8487,2.8811,2.9526,3.0398,3.0406,3.0742,3.1242,3.1725,3.175,3.1317,3.0111,2.835,2.6625,2.731,2.5431,0.0,1.9658,1.7552,1.5855,1.5085,1.5198,1.5932,1.7357,1.8084,1.862,1.9653,2.1464,2.387,2.746,2.9337,3.0711,3.2607,3.3809,3.4625,3.5177,3.5429,3.524,3.4123,3.5002,3.509,3.2177,3.234,3.3307,3.4474,3.5429,3.6659,3.853,3.8316,3.7651,3.6784,3.6634,3.6471,0.0,0.0,0.0,3.9609,4.0714,4.158,4.2133,4.2685,4.2974,4.2974,4.2974,4.2798,4.2446,4.1907,4.1354,4.0802,4.0249,3.9986,3.9986,3.9785,3.9697,3.9697,3.9697,3.9697,3.9697,3.9697,3.9697,3.9697,3.9697,3.9697,3.9697,3.9697,3.9697,3.9697,0.0,0.0,0.4207,0.0,0.0,0.0,0.0,0.0,0.0,0.0,0.0,0.0,0.0,0.0,0.0,0.0,0.0,0.0,0.7757,0.9236,1.0784,1.2402,1.4999,1.6662,1.7224,1.9075,2.0038,2.0095,2.1215,2.2497,2.3814,2.6115,2.7544,2.8079,2.7521,2.805,2.9415,2.9415,2.8164,2.619,2.5364,2.2616,1.9087,2.0724,1.9452,1.678,1.5796,1.39,1.1944,1.2688,1.3433,1.4306,1.5681,1.799,2.0463,2.1918,2.4119,2.6959,3.1031,3.2269,3.2817,3.4437,3.524,3.5755,3.6219,3.5881,3.514,3.3972,3.4336,3.3947,0.0,0.0,2.9654,3.2566,3.3583,3.4788,3.701,3.686,3.6709,0.0,0.0,0.0,0.0,0.0,0.0,3.9609,0.0,4.1568,4.2082,4.266,4.2974,4.2974,4.2974,4.2974,4.2974,4.2446,4.1894,4.1329,4.0777,4.0513,4.0501,3.9948,3.9697,3.9697,3.9697,3.9697,3.9697,3.9697,3.971,3.9735,3.9735,3.9747,3.9669,3.9747,3.9735,3.9722,0.0,0.0,0.0,0.0,0.0,0.0,0.0,0.0,0.0,0.0,0.0,0.0,0.0,0.0,0.0,0.0,0.0,0.0,0.669,0.7835,0.8801,0.9482,1.2178,1.4056,1.484,1.6579,1.7935,1.8699,1.9028,1.9261,1.9526,2.1134,2.1082,1.9727,2.2001,2.3235,2.3634,2.3634,2.3381,2.3015,2.3215,2.2742,2.1764,1.9737,1.7452,1.506,1.2843,1.1459,1.0948,0.0,0.0,0.0,0.0,1.9784,2.1101,2.453,2.8214,3.1638,3.3526,3.4628,3.5504,3.6345,3.6659,3.6584,3.5906,3.5014,3.3771,3.1851,3.0419,2.8976,0.0,0.0,0.0,3.2026,3.4286,0.0,3.8743,3.8931,0.0,0.0,0.0,3.7801,3.7236,3.8078,0.0,0.0,4.0714,4.1404,4.1543,4.2459,4.2974,4.2974,4.2974,4.2974,4.2974,4.2818,4.2263,4.1329,4.0777,4.0513,4.0501,3.9948,3.9697,3.9697,3.9697,3.9697,3.9697,3.9697,3.9703,3.9724,3.9724,3.9746,3.9719,3.9648,3.9724,3.9674,0.0,0.0,0.0,0.0,0.0,0.0,0.0,0.0,0.0,0.0,0.0,0.0,0.0,0.0,0.0,0.0,0.0,0.0,0.0,0.7016,0.748,0.7687,0.94,1.0573,1.1069,1.2497,1.3478,1.39,1.4996,1.5142,1.4387,1.5375,1.5839,1.5863,1.8374,1.9663,1.9966,1.974,1.9776,0.0,0.0,1.9017,1.8387,1.5592,1.3575,1.2047,1.0474,1.0773,0.0,0.0,0.0,2.0628,2.2823,2.3879,2.4929,2.847,0.0,3.3719,3.4729,3.6056,3.7098,3.7161,3.6998,3.6345,3.45,3.3244,3.1625,2.8674,2.6864,0.0,0.0,0.0,0.0,0.0,0.0,0.0,3.8216,3.9019,3.9283,0.0,3.9396,0.0,3.9044,3.9584,4.0061,0.0,4.0846,4.143,4.1522,4.2497,4.2974,4.2974,4.2974,4.2974,4.2974,4.302,4.2705,4.2045,4.1254,4.0915,4.1071,4.0132,3.9731,3.971,0.0,3.9719,3.9697,3.9697,3.9673,3.9492,3.6802,3.5791,3.5874,3.5808,3.7441,3.9697,0.0,0.0,0.0,0.0,0.0,0.0,0.0,0.0,0.0,0.0,0.6364,0.642,0.0,0.0,0.0,0.0,0.0,0.0,0.0,0.0,0.676,0.6808,0.7086,0.7253,0.7301,0.8301,0.8633,0.8244,1.0556,1.0967,0.9634,1.0239,1.1756,1.4104,1.5423,1.635,1.7001,1.6531,1.6371,1.6388,1.4789,1.3509,1.2326,0.0,0.943,0.8903,0.8781,0.0,0.0,0.0,1.9596,2.296,2.6729,2.8571,2.9858,3.2592,3.3669,3.4236,3.5579,3.6948,3.7902,3.7475,3.6784,3.5491,3.2729,3.111,2.9114,2.5372,0.0,2.2776,2.2314,0.0,2.4005,2.8424,0.0,3.3608,3.6935,3.8316,3.9371,4.0388,4.0576,4.0814,4.1291,4.1342,4.1209,4.0931,4.1259,4.1485,4.1751,4.2622,4.2974,4.2974,4.2974,4.2936,4.2848,4.2936,4.2936,4.2848,4.1894,4.1505,4.1834,4.0358,3.9655,3.9669,3.9748,0.0,3.9681,3.9722,3.971,3.9136,3.3211,3.089,3.0872,3.0872,3.4185,3.8683,0.0,0.0,0.0,0.0,0.0,0.0,0.0,0.0,0.0,0.0,0.6224,0.618,0.0,0.0,0.0,0.0,0.0,0.0,0.0,0.0,0.0,0.68,0.6864,0.7023,0.7301,0.7743,0.7821,0.7504,0.8536,0.8758,0.8174,0.9055,0.9705,1.0185,1.0842,1.1192,1.1344,1.1583,1.1368,1.0916,1.0793,1.0264,0.9497,0.9252,0.0,0.0,0.0,0.0,0.0,0.0,1.9784,2.5196,2.8424,3.0435,3.2064,3.4376,3.4679,3.47,3.7349,3.804,3.8065,3.8304,3.6897,3.4763,3.2127,2.9628,0.0,0.0,2.1576,2.0379,2.145,2.2526,0.0,2.9539,0.0,0.0,0.0,0.0,3.9785,0.0,0.0,0.0,0.0,0.0,0.0,0.0,0.0,4.1663,4.1395,4.2449,4.2974,4.2974,4.2974,4.2723,4.2098,4.271,4.2748,4.2296,4.1923,4.181,4.181,4.0372,3.9672,3.968,3.9742,0.0,3.9749,3.9653,3.9724,3.914,3.3181,3.0933,3.088,3.088,3.1564,3.313,0.0,0.0,0.0,0.0,0.0,0.0,0.0,0.5001,0.5562,0.6564,0.6683,0.685,0.7279,0.7314,0.7136,0.0,0.0,0.0,0.0,0.0,0.0,0.6895,0.0,0.0,0.6917,0.7153,0.0,0.0,0.0,0.8148,0.8329,0.0,0.0,0.9297,0.927,0.9301,0.935,0.9588,0.9478,0.9128,0.927,0.9039,0.8618,0.0,0.0,0.0,0.0,0.0,0.0,0.0,1.9538,2.5215,2.9328,3.1951,3.3759,3.5027,3.5768,3.6483,3.7902,3.858,3.8793,3.8391,3.6835,3.4412,3.0557,0.0,0.0,0.0,1.8754,1.7787,1.8979,0.0,0.0,0.0,0.0,0.0,0.0,0.0,0.0,0.0,0.0,0.0,0.0,0.0,0.0,0.0,0.0,4.2374,4.2188,4.2662,4.2974,4.2974,4.2974,4.2836,4.2522,4.2823,4.2848,4.2585,4.2098,4.2108,4.2452,4.0572,4.0368,4.1301,4.0152,0.0,3.948,3.6379,3.516,3.5146,3.5412,3.3647,3.0873,3.0863,3.0887,3.1337,0.0,0.0,0.0,0.0,0.0,0.0,0.456,0.5006,0.5643,0.6512,0.7054,0.7476,0.7733,0.7695,0.7432,0.0,0.0,0.0,0.0,0.0,0.0,0.0,0.0,0.0,0.0,0.0,0.0,0.0,0.0,0.0,0.0,0.0,0.0,0.0,0.0,0.0,0.8741,0.8822,0.8814,0.0,0.0,0.857,0.0,0.0,0.0,0.0,0.0,0.0,0.0,0.0,1.6927,2.1297,2.523,2.9647,3.3645,3.4763,3.6395,3.7965,3.8278,3.9019,3.9408,3.8203,3.6332,3.3496,2.8888,2.5685,0.0,0.0,1.6385,1.5866,1.6891,0.0,0.0,0.0,0.0,0.0,0.0,0.0,0.0,0.0,0.0,0.0,0.0,0.0,0.0,0.0,0.0,0.0,4.2974,4.2974,4.2974,4.2974,4.2974,4.306,4.2985,4.306,4.2911,4.2773,4.2298,4.2469,4.2891,4.1188,4.1351,4.2928,4.0649,0.0,0.0,3.3309,3.0919,3.1307,3.6038,3.5197,3.1285,3.1052,3.0923,3.0859,0.0,0.0,0.0,0.0,0.0,0.0,0.4234,0.4552,0.5181,0.6285,0.6728,0.73,0.8231,0.807,0.7715,0.0,0.0,0.0,0.0,0.0,0.0,0.0,0.0,0.0,0.0,0.0,0.0,0.0,0.0,0.0,0.0,0.0,0.0,0.0,0.0,0.0,0.0,0.8455,0.0,0.0,0.0,0.0,0.0,0.0,0.0,0.0,0.0,0.0,0.0,0.0,0.0,0.9899,1.0356,1.9072,2.9821,3.3283,0.0,0.0,3.9182,3.9622,3.9346,3.7914,3.4914,3.1354,2.7631,0.0,0.0,1.7218,1.5649,1.5406,1.682,1.7361,1.8716,0.0,0.0,2.7022,0.0,0.0,0.0,0.0,0.0,0.0,0.0,0.0,0.0,0.0,0.0,0.0,4.2974,4.2974,4.2974,4.2974,4.2974,4.2947,4.2975,4.3058,4.2685,4.201,4.2647,4.2898,4.3035,4.2737,4.284,4.2849,4.0672,0.0,0.0,3.3278,3.0893,3.1,3.1451,3.2241,3.2747,3.1391,3.0946,3.0946,0.0,0.0,0.0,0.0,0.0,0.0,0.4504,0.5161,0.59,0.662,0.7206,0.7779,0.834,0.8223,0.7937,0.7549,0.7471,0.0,0.0,0.0,0.0,0.0,0.0,0.0,0.0,0.0,0.7431,0.7885,0.0,0.0,0.0,0.0,0.0,0.0,0.0,0.0,0.0,0.0,0.0,0.0,0.0,0.0,0.0,0.0,0.0,0.0,0.0,0.0,0.0,0.0,0.0,0.0,0.8414,1.3618,0.0,0.0,3.25,3.6948,3.7525,3.8668,3.9308,3.7713,3.5203,3.193,2.7285,0.0,2.0682,1.6769,1.5394,1.5028,1.5389,1.5789,1.6647,1.8703,2.0049,0.0,0.0,0.0,0.0,0.0,0.0,0.0,0.0,0.0,0.0,0.0,0.0,0.0,4.2974,4.2974,4.2974,4.2974,4.2974,4.3022,4.3008,4.3022,4.2848,4.261,4.2861,4.2974,4.2974,4.2974,4.2966,4.29,4.0624,0.0,0.0,3.1888,3.0887,3.0932,3.0883,3.1261,3.1767,3.2092,3.1662,3.0889,0.0,0.0,0.0,0.0,0.0,0.4696,0.4696,0.5482,0.6242,0.6746,0.7314,0.7804,0.8192,0.8091,0.787,0.7598,0.7598,0.0,0.0,0.0,0.0,0.0,0.0,0.0,0.0,0.0,0.7458,0.7972,0.7707,0.0,0.0,0.0,0.0,0.0,0.0,0.0,0.0,0.0,0.0,0.0,0.0,0.0,0.0,0.0,0.0,0.0,0.0,0.0,0.0,0.0,0.0,0.0,0.0,0.0,0.0,0.0,2.777,3.3444,3.4192,3.6413,3.814,3.6797,3.446,3.124,0.0,0.0,1.9662,1.6041,1.5025,1.4686,1.4419,1.4657,1.5203,1.6164,1.751,2.0072,0.0,0.0,0.0,0.0,0.0,0.0,0.0,0.0,0.0,0.0,0.0,0.0,0.0,4.2974,4.2974,4.2974,4.2974,4.2974,4.2974,4.2985,4.3058,4.3058,4.3058,4.3058,4.3058,4.3058,4.2988,4.2887,4.0635,0.0,0.0,3.0932,3.0928,3.0859,3.0883,3.0952,3.1005,3.2092,3.1767,3.0889,0.0,0.0,0.0,0.0,0.0,0.4696,0.4696,0.5151,0.5762,0.6502,0.672,0.7099,0.7819,0.7686,0.7519,0.749,0.7442,0.0,0.0,0.0,0.0,0.0,0.0,0.0,0.7695,0.7695,0.7705,0.7705,0.7705,0.8571,1.0234,0.8503,0.0,0.0,0.0,0.0,0.0,0.0,0.0,0.0,0.0,0.0,0.0,0.0,0.0,0.0,0.0,0.0,0.0,0.0,0.0,0.0,0.0,0.994,1.1975,0.0,2.1804,2.6411,2.9059,3.2612,3.5454,3.4889,3.1916,2.8166,0.0,0.0,1.7436,1.492,1.443,1.4373,1.4373,1.4384,1.4701,1.5633,1.7946,2.0538,0.0,0.0,0.0,0.0,0.0,0.0,0.0,0.0,0.0,0.0,0.0,0.0,0.0,4.2974,4.2974,4.2974,4.2974,4.2974,4.2974,4.2979,4.3047,4.3047,4.3047,4.3047,4.3047,4.3047,4.299,0.0,0.0,0.0,0.0,3.0932,3.0928,3.0889,3.0889,3.0889,3.0889,3.0889,3.0889,3.0889,0.0,0.0,0.0,0.0,0.0,0.0,0.5013,0.519,0.5664,0.6672,0.6607,0.6795,0.7666,0.7491,0.7412,0.7764,0.7539,0.0,0.0,0.0,0.0,0.0,0.0,0.0,0.7695,0.7695,0.7695,0.7695,0.7695,0.8603,1.0273,0.9727,0.9766,1.0264,0.0,0.0,0.0,0.0,0.0,0.0,0.0,0.0,0.0,0.0,0.0,0.0,0.0,0.0,0.0,0.0,0.0,0.0,0.0,0.0,0.0,1.2315,1.67,2.1533,2.427,2.6749,2.8313,2.7557,2.6137,2.4087,2.076,0.0,1.6799,1.4415,1.4083,1.4205,1.3948,1.4165,1.5152,1.7549,1.8577,2.0234,0.0,0.0,0.0,0.0,0.0,0.0,0.0,0.0,0.0,0.0,0.0,0.0,0.0,4.2982,4.297,4.2974,4.2982,4.2979,4.2979,4.3003,4.2195,4.0715,4.0715,4.158,4.2946,4.2946,4.2207,0.0,0.0,0.0,0.0,3.0932,3.0928,3.0889,3.0889,3.0889,3.0889,3.0889,3.0889,3.0889,0.0,0.0,0.0,0.0,0.0,0.0,0.5156,0.5323,0.5734,0.6618,0.6421,0.6497,0.7268,0.7001,0.6924,0.7324,0.7205,0.0,0.0,0.0,0.0,0.0,0.0,0.0,0.7695,0.7695,0.8016,0.8691,0.8691,0.9238,1.0283,1.0283,1.0283,1.0254,0.8791,0.8069,0.0,0.0,0.0,0.0,0.0,0.0,0.7263,0.0,0.0,0.0,0.0,0.0,0.0,0.0,0.0,0.0,0.0,0.0,0.0,0.0,1.2872,1.624,1.9669,2.21,2.3652,2.3107,2.2125,2.0606,0.0,0.0,1.5394,1.3751,1.3729,1.3949,1.374,1.4067,1.513,1.7371,1.87,0.0,0.0,0.0,0.0,0.0,0.0,0.0,0.0,0.0,0.0,0.0,0.0,0.0,0.0,4.2389,4.2339,4.2161,4.2747,4.2595,4.1806,4.1708,4.1053,3.9652,3.9652,4.047,4.177,4.177,4.1021,0.0,0.0,0.0,0.0,3.1777,3.0893,3.0889,3.0889,3.0889,3.0889,3.0889,3.0889,3.0889,0.0,0.0,0.0,0.0,0.0,0.0,0.0,0.5468,0.586,0.6329,0.6149,0.6132,0.6687,0.6315,0.6149,0.6496,0.6573,0.0,0.0,0.0,0.0,0.0,0.0,0.7608,0.7608,0.7666,0.8506,1.0107,1.0225,1.0283,1.0283,1.0283,1.0283,1.0215,0.8623,0.8117,0.0,0.0,0.0,0.0,0.7066,0.7044,0.0,0.0,0.0,0.0,0.0,0.0,0.0,0.0,0.0,0.0,0.0,0.0,0.0,0.0,0.0,0.0,0.0,1.8421,2.0544,2.0718,1.9317,1.7601,1.6692,0.0,0.0,0.0,0.0,1.3663,1.3729,1.4122,1.4799,1.5953,0.0,0.0,0.0,0.0,0.0,0.0,0.0,0.0,0.0,0.0,0.0,0.0,0.0,0.0,0.0,4.1171,4.1096,4.0744,4.2024,4.1802,3.9704,3.968,3.9755,3.9817,3.9755,3.9742,3.9662,3.9742,3.973,0.0,0.0,0.0,0.0,3.3211,3.087,3.0889,3.0889,3.0889,3.0889,3.0889,3.0889,3.0889,0.0,0.0,0.0,0.0,0.0,0.0,0.0,0.0,0.0,0.0,0.5439,0.5575,0.6054,0.6174,0.637,0.0,0.0,0.0,0.0,0.0,0.0,0.0,0.7005,0.6612,0.6612,0.7333,0.79,0.833,0.9639,1.0283,1.0283,1.0283,1.0283,1.0264,0.9863,0.9752,0.0,0.0,0.0,0.0,0.6806,0.6662,0.0,0.0,0.0,0.0,0.7921,0.8503,0.0,0.0,0.0,0.0,0.0,0.0,0.0,0.0,1.0283,1.0548,1.1747,0.0,1.3422,1.3743,1.3755,1.3582,0.0,0.0,0.0,0.0,0.0,0.0,0.0,0.0,0.0,0.0,0.0,0.0,0.0,0.0,0.0,0.0,0.0,0.0,0.0,0.0,0.0,0.0,0.0,0.0,0.0,4.0396,4.0028,3.9991,4.03,4.0262,3.968,3.9661,4.0099,4.0887,4.0086,3.9728,3.9649,3.9715,3.9706,0.0,0.0,0.0,3.6098,3.2416,3.087,3.0889,3.0889,3.0889,3.0889,3.0889,3.0889,3.0889,0.0,0.0,0.0,0.0,0.0,0.0,0.0,0.0,0.0,0.0,0.5333,0.5439,0.6026,0.607,0.6199,0.0,0.0,0.0,0.0,0.0,0.0,0.7065,0.6582,0.6315,0.6315,0.6794,0.7273,0.7695,0.9443,1.0477,1.086,1.086,1.086,1.0822,1.0477,1.0283,1.0215,0.8747,0.0,0.7899,0.71,0.0,0.0,0.0,0.0,0.0,0.847,0.8755,0.0,0.8886,0.9119,0.9359,0.0,0.0,0.0,0.0,1.0361,1.04,1.0784,1.1043,1.1329,1.1876,1.211,1.2265,1.2494,0.0,0.0,0.0,0.0,0.0,0.0,0.0,0.0,0.0,0.0,0.0,0.0,0.0,0.0,0.0,0.0,0.0,0.0,0.0,0.0,0.0,0.0,0.0,0.0,3.994,3.9753,3.9753,3.9681,3.9669,3.9753,3.9681,4.0002,4.0521,4.0002,3.9681,3.9753,3.9669,3.9697,0.0,0.0,0.0,3.7113,3.4153,3.2107,3.0889,3.0889,3.0889,3.0889,3.0889,3.0889,3.0889,0.0,0.0,0.0,0.0,0.0,0.0,0.0,0.0,0.0,0.0,0.0,0.0,0.0,0.0,0.0,0.0,0.0,0.0,0.0,0.0,0.6987,0.6521,0.6521,0.6521,0.6521,0.6521,0.7029,0.8085,0.957,1.0631,1.1335,1.1448,1.1485,1.1448,1.0669,1.0283,1.0283,1.0283,0.9449,0.8041,0.7753,0.0,0.0,0.0,0.0,0.0,0.0,0.0,0.0,0.9355,0.9506,0.9518,0.9774,0.0,0.0,0.0,0.0,0.0,1.1068,1.1688,1.2204,1.2382,1.2408,1.2505,1.2726,0.0,0.0,0.0,0.0,0.0,0.0,0.0,0.0,0.0,0.0,0.0,0.0,0.0,0.0,0.0,0.0,0.0,0.0,0.0,0.0,0.0,0.0,0.0,0.0,3.9697,3.9697,3.9697,3.9697,3.9697,3.9697,3.9697,3.9735,3.9823,3.9735,3.9735,3.9823,3.9735,3.9697,3.9697,0.0,0.0,3.8666,3.6778,3.3995,3.0889,3.0889,3.0889,3.0889,3.0889,3.0889,3.0889,0.0,0.0,0.0,0.0,0.0,0.0,0.0,0.0,0.0,0.0,0.0,0.0,0.0,0.0,0.0,0.0,0.0,0.0,0.0,0.7107,0.7294,0.749,0.749,0.749,0.749,0.749,0.8278,0.9893,1.0156,1.0361,1.0515,1.1174,1.1485,1.1448,1.0669,1.0283,1.0283,1.0283,0.9905,0.9169,0.8581,0.0,0.0,0.0,0.0,0.0,0.0,0.0,0.0,0.9363,0.9688,1.0157,1.0205,0.0,0.0,0.0,0.0,0.0,1.1325,1.3119,1.4292,1.2182,1.2574,1.3259,1.2494,0.0,0.0,0.0,0.0,0.0,0.0,0.0,0.0,0.0,0.0,0.0,0.0,0.0,0.0,0.0,0.0,0.0,0.0,0.0,0.0,0.0,0.0,0.0,0.0,3.9697,3.9697,3.9697,3.9697,3.9697,3.9697,3.9697,3.9923,4.0388,3.9923,3.9936,4.0375,3.991,3.9697,3.9697,0.0,3.7853,3.4957,3.7821,3.5814,3.0889,3.0889,3.0889,3.0889,3.0889,3.0889,3.0889,0.0,0.0,0.0,0.0,0.0,0.0,0.0,0.0,0.0,0.0,0.0,0.0,0.0,0.0,0.0,0.0,0.0,0.0,0.0,0.7294,0.774,0.8367,0.7948,0.7695,0.7695,0.8633,0.9492,1.0283,1.0746,1.0937,1.0947,1.1335,1.1485,1.1448,1.0669,1.0184,1.0019,1.0223,0.9771,0.8915,0.0,0.0,0.0,0.0,0.0,0.0,0.0,0.0,0.0,0.0,0.9942,1.0049,1.0244,0.0,0.0,0.0,0.0,0.0,1.1313,1.2604,1.3618,1.3167,1.4789,1.6388,1.5903,0.0,0.0,0.0,0.0,0.0,0.0,0.0,0.0,0.0,0.0,0.0,0.0,0.0,0.0,0.0,0.0,0.0,0.0,0.0,0.0,0.0,0.0,0.0,0.0,0.0,3.9697,3.9697,3.9697,3.9697,3.9697,3.9697,3.9823,4.0074,3.9823,3.9823,4.0061,3.981,3.9697,3.9697,0.0,3.8709,3.6968,3.7269,3.4807,3.0889,3.0889,3.0889,3.0889,3.0889,3.0889,3.0889,0.0,0.0,0.0,0.0,0.0,0.0,0.0,0.0,0.0,0.0,0.0,0.0,0.0,0.0,0.0,0.0,0.0,0.0,0.0,0.751,0.8055,0.8877,0.8281,0.8026,0.8289,0.979,1.0592,1.0592,1.1088,1.1291,1.1184,1.1413,1.1485,1.1485,1.0746,1.0266,1.0021,1.0212,0.9753,0.8877,0.0,0.0,0.0,0.0,0.0,0.0,0.0,0.0,0.0,0.0,0.0,0.0,0.0,0.0,0.0,1.0764,1.0621,1.0497,1.1416,1.2289,1.3238,1.4568,1.6538,1.8306,1.8857,0.0,0.0,0.0,0.0,0.0,0.0,0.0,0.0,0.0,0.0,0.0,0.0,0.0,0.0,0.0,0.0,0.0,0.0,0.0,0.0,0.0,0.0,0.0,0.0,0.0,3.9484,3.8963,3.9471,3.9649,3.9471,3.9471,3.9546,3.9697,3.9697,3.9644,3.9653,3.9747,3.9656,3.9653,3.9747,3.9687,3.9443,3.573,3.2948,3.0858,3.085,3.0889,3.0889,3.0889,3.0889,3.0889,0.0,0.0,0.0,0.0,0.0,0.0,0.0,0.0,0.0,0.0,0.0,0.0,0.0,0.0,0.0,0.0,0.0,0.0,0.7637,0.7666,0.7968,0.8603,0.8574,0.9033,1.0078,1.0987,1.141,1.141,1.1078,1.0672,1.0223,1.1096,1.1485,1.1485,1.104,1.0753,1.0629,1.039,1.0234,1.0185,1.0215,0.0,0.0,0.0,0.0,0.0,0.0,0.0,0.0,0.0,0.0,0.0,0.0,0.0,1.04,1.0764,1.0621,1.0556,1.1801,1.351,1.513,1.6032,1.6103,0.0,1.9059,1.9957,0.0,0.0,0.0,0.0,0.0,0.0,0.0,0.0,0.0,0.0,0.0,0.0,0.0,0.0,0.0,0.0,0.0,0.0,0.0,0.0,0.0,0.0,0.0,3.9715,3.8742,3.6715,3.8591,3.9399,3.8717,3.8717,3.9005,3.9697,3.9697,3.9728,3.9729,3.9703,3.974,3.9729,3.969,3.9686,3.9291,3.3563,3.1116,3.0863,3.0954,3.0889,3.0889,3.0889,3.0889,3.0889,0.0,0.0,0.0,0.0,0.0,0.0,0.0,0.0,0.0,0.0,0.0,0.8284,0.8145,0.0,0.0,0.0,0.0,0.0,0.7695,0.7695,0.8036,0.8818,0.834,0.876,1.0293,1.1228,1.1796,1.2052,1.1292,1.0936,1.0965,1.0725,1.0714,1.0854,1.0274,1.0015,0.994,0.9876,0.9727,0.9531,1.0068,0.9982,0.0,0.0,0.0,0.0,0.0,0.0,0.0,0.0,1.0283,1.0283,1.0283,1.04,1.0544,1.0802,1.0802,1.0843,1.1578,1.3334,1.52,1.6219,0.0,0.0,0.0,0.0,0.0,0.0,0.0,0.0,0.0,0.0,0.0,0.0,0.0,0.0,0.0,0.0,0.0,0.0,0.0,0.0,0.0,0.0,0.0,0.0,0.0,0.0,0.0,3.9322,3.8679,3.649,3.7183,3.768,3.7954,3.8141,3.8417,3.8655,3.8855,3.9262,3.9685,3.9715,3.9648,3.9672,3.9703,3.9661,3.9398,3.5305,3.3268,3.2633,3.1411,3.0889,3.0889,3.0889,3.0889,3.0889,0.0,0.0,0.0,0.0,0.0,0.0,0.0,0.0,0.8701,0.0,0.0,0.0,0.0,0.8205,0.0,0.0,0.0,0.0,0.7695,0.7695,0.8036,0.8848,0.8398,0.8809,1.0254,1.118,1.1774,1.2004,1.1378,1.1239,1.1474,1.0928,1.0753,1.0906,1.0502,1.0302,1.0334,1.0252,1.0093,0.9903,1.0266,1.0288,0.0,0.0,0.0,0.0,0.0,0.0,0.0,0.0,1.0283,1.0322,1.0361,1.0505,1.0659,1.0916,1.1134,1.1403,1.1806,1.3241,1.5045,0.0,0.0,0.0,0.0,0.0,0.0,0.0,0.0,0.0,0.0,0.0,0.0,0.0,0.0,0.0,0.0,0.0,0.0,0.0,0.0,0.0,0.0,0.0,0.0,0.0,0.0,0.0,0.0,3.9076,3.8732,3.6444,3.6419,3.6739,3.7405,3.7764,3.8025,3.8189,3.8029,3.8575,3.964,3.7778,3.7914,3.9721,3.966,3.9742,3.9489,3.7507,3.5211,3.2778,3.1364,3.0889,3.0889,3.0889,3.0889,3.0889,0.0,0.0,0.0,0.0,0.0,0.0,0.0,0.0,0.8756,0.9232,0.8894,0.0,0.0,0.0,0.0,0.0,0.0,0.0,0.7695,0.7695,0.7958,0.8574,0.8867,0.9414,1.0264,1.0943,1.1207,1.1115,1.1362,1.1485,1.1522,1.1774,1.1898,1.1898,1.2018,1.2102,1.2066,1.1653,1.1616,1.1737,1.0981,1.0829,1.0943,0.0,0.0,0.0,0.0,0.0,0.0,0.0,1.0283,1.0322,1.0544,1.0582,1.0697,1.1105,1.1664,1.2278,1.268,1.3466,0.0,0.0,0.0,0.0,0.0,0.0,0.0,0.0,0.0,0.0,0.0,0.0,0.0,0.0,0.0,0.0,0.0,0.0,0.0,0.0,0.0,0.0,0.0,0.0,0.0,0.0,0.0,0.0,0.0,3.9013,3.8666,3.6487,3.6366,3.6671,3.7174,3.7691,3.8142,3.8526,3.7105,3.7516,3.9477,3.363,3.413,3.9599,3.957,3.9575,3.9623,3.967,3.6245,3.0889,3.0889,3.0889,3.0889,3.0889,3.0889,3.0889,0.0,0.0,0.0,0.0,0.0,0.0,0.0,0.0,0.9193,0.9108,0.9166,0.0,0.0,0.0,0.0,0.0,0.0,0.0,0.7725,0.7695,0.8046,0.8848,0.9541,1.002,1.0273,1.0611,1.1142,1.1822,1.1895,1.176,1.1474,1.1091,1.1077,1.1399,1.1002,1.1092,1.1515,1.1317,1.1449,1.1774,1.1542,1.1505,1.1505,0.0,0.0,0.0,0.0,0.0,0.0,0.0,0.0,0.0,1.0544,1.084,1.1132,1.1394,1.1875,1.2381,1.2491,1.4552,0.0,0.0,0.0,0.0,0.0,0.0,0.0,0.0,0.0,0.0,0.0,0.0,0.0,0.0,0.0,0.0,0.0,0.0,0.0,0.0,0.0,0.0,0.0,0.0,0.0,0.0,0.0,0.0,0.0,3.7387,3.7071,3.6426,3.6413,3.6451,3.6609,3.6767,3.6963,3.7018,3.6584,3.758,3.9525,3.3578,3.1806,3.3487,3.3464,3.3508,3.3714,3.5725,3.4371,3.0863,3.041,3.0554,3.0863,3.0554,3.0605,3.0889,0.0,0.0,0.0,0.0,0.0,0.0,0.9247,0.9209,0.9193,0.9339,0.954,0.9422,0.0,0.0,0.0,0.0,0.0,0.0,0.7695,0.8337,0.8975,0.9492,1.0263,1.0659,1.0659,1.0562,1.083,1.1411,1.1659,1.1612,1.1389,1.1157,1.1271,1.1653,1.1398,1.159,1.2043,1.1872,1.2037,1.2318,1.2066,1.1993,1.2029,0.0,0.0,0.0,0.0,0.0,0.0,0.0,0.0,0.0,1.0621,1.0916,1.1239,1.1886,1.2513,1.3158,1.3715,0.0,0.0,0.0,0.0,0.0,0.0,0.0,0.0,0.0,0.0,0.0,0.0,0.0,0.0,0.0,0.0,0.0,0.0,0.0,0.0,0.0,0.0,0.0,0.0,0.0,0.0,0.0,0.0,0.0,0.0,3.6025,3.5631,3.5537,3.6054,3.6273,3.6006,3.6213,3.6433,3.6358,3.5259,3.6048,3.8233,3.2432,2.9829,2.9865,3.0549,3.085,3.1085,3.2864,3.2477,3.0837,2.9779,2.9657,3.0236,3.0074,3.0127,3.0371,0.0,0.0,0.9147,0.9313,0.0,0.0,0.9313,0.9083,0.9134,0.9814,0.9993,0.977,0.0,0.0,0.0,0.0,0.0,0.0,0.797,0.9352,1.0234,1.0351,1.0878,1.1159,1.1153,1.0672,1.0425,1.0407,1.0899,1.1148,1.1153,1.163,1.2029,1.2413,1.2662,1.292,1.3198,1.3012,1.3047,1.3163,1.2532,1.2389,1.2508,1.2029,0.0,0.0,0.0,0.0,0.0,0.0,0.0,0.0,1.084,1.0954,1.1189,1.2361,1.3318,1.4273,0.0,0.0,0.0,0.0,0.0,0.0,0.0,0.0,0.0,0.0,0.0,0.0,0.0,0.0,0.0,0.0,0.0,0.0,0.0,0.0,0.0,0.0,0.0,0.0,0.0,0.0,0.0,0.0,0.0,0.0,0.0,3.4872,3.4495,3.4177,3.548,3.5773,3.5157,3.597,3.6379,3.6364,3.3229,3.3053,3.5313,3.0734,2.8574,2.834,2.9984,3.063,3.063,3.063,3.061,3.0539,2.8911,2.863,2.9211,2.9492,2.9531,2.957,0.0,0.0,0.9724,0.9776,0.0,0.0,0.985,1.0451,1.0698,0.9992,1.0671,1.0714,0.9368,1.0011,0.0,0.8676,0.0,0.0,0.9939,0.9534,0.9724,1.0733,1.0791,1.0861,1.0968,1.0746,1.0583,1.0467,1.0488,1.0576,1.073,1.1157,1.1737,1.2413,1.2437,1.2733,1.3198,1.3163,1.3163,1.3198,1.3047,1.3012,1.3012,1.2544,1.2365,0.0,0.0,0.0,0.0,0.0,0.0,0.0,1.1356,1.1468,1.1527,1.1971,1.2857,1.3968,0.0,0.0,0.0,0.0,0.0,0.0,0.0,0.0,0.0,0.0,0.0,0.0,0.0,0.0,0.0,0.0,0.0,0.0,0.0,0.0,0.0,0.0,0.0,0.0,0.0,0.0,0.0,0.0,0.0,0.0,3.4823,3.4479,3.4264,3.4152,3.3962,3.3732,3.3551,3.5413,3.6392,0.0,3.006,2.7409,2.8032,3.0381,3.0281,2.8349,2.8684,2.8828,2.8828,2.8828,2.8906,2.8784,2.8478,2.8636,2.9202,2.9072,2.9277,2.957,0.0,0.0,0.0,0.0,0.0,0.0,0.0,0.0,1.0696,1.0458,1.0634,1.0448,0.9586,1.0035,0.0,0.0,0.8952,0.9262,0.9858,0.9916,1.0298,1.1094,1.1025,1.102,1.1229,1.0605,1.0288,1.0273,1.0302,1.0453,1.0675,1.1406,1.2077,1.2591,1.2591,1.2803,1.3198,1.3198,1.3198,1.3198,1.3198,1.3198,1.3163,1.2943,1.2838,1.2791,1.2461,0.0,0.0,0.0,0.0,0.0,0.0,0.0,1.1929,1.239,1.3042,1.3946,0.0,0.0,0.0,0.0,0.0,0.0,0.0,0.0,0.0,0.0,0.0,0.0,0.0,0.0,0.0,0.0,0.0,0.0,0.0,0.0,0.0,0.0,0.0,0.0,0.0,0.0,0.0,0.0,0.0,3.4914,3.4361,3.4172,3.392,3.3658,3.3319,3.3143,3.3125,3.4209,3.4792,3.4763,3.1032,2.8105,2.6261,2.8625,2.9191,2.8329,2.8339,2.8348,2.825,2.8295,2.8279,2.833,2.8271,2.8476,2.876,2.8623,2.8769,2.8965,0.0,0.0,0.0,0.0,0.0,0.0,0.0,0.0,0.0,1.0947,1.0583,1.0141,0.9761,0.9698,0.9599,0.0,0.0,0.0,0.9274,1.0409,1.1204,1.1517,1.133,1.133,1.1505,1.0543,1.0037,1.0005,1.0467,1.074,1.0769,1.1836,1.2508,1.2803,1.2838,1.2978,1.3198,1.3232,1.3232,1.3198,1.3198,1.3198,1.3198,1.3198,1.3198,1.3198,1.3012,1.2791,1.2615,1.2425,0.0,0.0,0.0,0.0,1.2267,1.2883,1.3309,1.4043,0.0,0.0,0.0,0.0,0.0,0.0,0.0,0.0,0.0,0.0,0.0,0.0,0.0,0.0,0.0,0.0,0.0,0.0,0.0,0.0,0.0,0.0,0.0,0.0,0.0,0.0,0.0,0.0,0.0,3.4336,3.3784,3.3759,3.3545,3.3093,3.3081,3.312,3.3133,3.3133,3.3032,3.2812,3.2337,3.0287,2.6844,2.6861,2.7143,2.7902,2.7993,2.8093,2.8009,2.792,2.7871,2.7999,2.8055,2.8057,2.8086,2.8154,2.8184,2.8193,0.0,0.0,0.0,0.0,0.0,0.0,0.0,0.0,0.0,0.0,1.1457,1.132,1.0017,1.0465,1.0532,0.9627,0.9826,1.0044,1.0123,0.0,0.0,1.2083,1.1618,1.1312,1.1176,1.0999,1.062,1.0005,1.1318,1.1662,1.1069,1.18,1.2365,1.2803,1.3,1.3104,1.3198,1.3391,1.3357,1.3198,1.3198,1.3198,1.3198,1.3198,1.3198,1.3198,1.3163,1.3129,1.3094,1.3094,1.2873,0.0,0.0,0.0,1.2389,1.2495,1.3022,1.3958,0.0,0.0,0.0,0.0,0.0,0.0,0.0,0.0,0.0,0.0,0.0,0.0,0.0,0.0,0.0,0.0,0.0,0.0,0.0,0.0,0.0,0.0,0.0,0.0,0.0,0.0,0.0,0.0,3.401,3.3771,3.3219,3.3181,3.3156,3.3081,3.3081,3.3093,3.3144,3.3144,3.2561,3.1588,2.911,2.7936,2.7959,2.6515,2.5971,2.6096,2.6856,2.7119,2.7109,2.6349,2.6349,2.6836,2.6885,2.6924,2.7226,2.7607,2.7754,2.7803,0.0,0.0,0.0,0.0,0.0,0.0,0.0,0.0,0.0,0.0,0.0,1.1069,1.0406,1.0656,1.0534,0.9733,0.9791,0.9865,0.9845,1.0953,1.1763,1.2134,1.1672,1.1491,1.166,1.0983,1.0643,1.0665,1.1698,1.2022,1.1674,1.2401,1.2838,1.3012,1.3242,1.3276,1.3232,1.3539,1.3506,1.3198,1.3323,1.3512,1.3659,1.3311,1.3421,1.3647,1.3311,1.3198,1.3198,1.3198,1.3129,1.3012,1.3012,0.0,0.0,0.0,1.2973,0.0,0.0,0.0,0.0,0.0,0.0,0.0,0.0,0.0,0.0,0.0,0.0,0.0,0.0,0.0,0.0,0.0,0.0,0.0,0.0,0.0,0.0,0.0,0.0,0.0,0.0,0.0,0.0,0.0,3.2955,3.2717,3.2164,3.2127,3.2127,3.2127,3.2127,3.2127,3.2127,3.2394,3.1617,2.9846,2.7609,2.6822,2.7085,2.5625,2.5373,2.6197,2.6237,2.6261,2.628,2.6241,2.6343,2.6569,2.6783,2.689,2.7041,2.7226,2.7461,2.7695,0.0,0.0,0.0,0.0,0.0,0.0,0.0,0.0,0.0,0.0,0.0,0.0,0.0,0.0,0.0,0.0,0.9946,0.9892,0.9885,1.118,1.2081,1.2379,1.1921,1.1801,1.2164,1.1234,1.095,1.133,1.2025,1.2318,1.2222,1.2873,1.3198,1.3198,1.3459,1.3493,1.3369,1.3708,1.3674,1.3382,1.377,1.4081,1.4336,1.3983,1.4101,1.443,1.3798,1.3538,1.3478,1.3408,1.3323,1.3301,1.3232,1.3198,0.0,0.0,0.0,0.0,0.0,0.0,0.0,0.0,0.0,0.0,0.0,0.0,0.0,0.0,0.0,0.0,0.0,0.0,0.0,0.0,0.0,0.0,0.0,0.0,0.0,0.0,0.0,0.0,0.0,0.0,0.0,0.0,3.2001,3.1825,3.1411,3.1386,3.1386,3.1386,3.1386,3.1386,3.1386,3.1549,3.0758,2.896,2.7264,2.641,2.6262,2.4945,2.5003,2.6061,2.5614,2.5429,2.5554,2.6,2.6209,2.6231,2.6533,2.6689,2.6699,2.6676,2.6919,2.7231,0.0,0.0,0.0,0.0,0.0,0.0,0.0,0.0,0.0,0.0,0.0,0.0,1.1538,1.1048,1.0756,1.0922,1.0756,1.0719,1.0906,1.1821,1.2597,1.3123,1.2622,0.0,1.2371,1.214,1.1898,1.1657,1.2454,1.272,1.2508,1.2978,1.3198,1.3198,1.362,1.3788,1.3788,1.3947,1.3881,1.3827,1.4667,1.5032,1.5092,1.5438,1.5591,1.5538,1.4862,1.4523,1.4304,1.3986,1.3735,1.3514,1.3301,1.3198,1.3198,0.0,0.0,0.0,0.0,0.0,0.0,0.0,0.0,0.0,0.0,0.0,0.0,0.0,0.0,0.0,0.0,0.0,0.0,0.0,0.0,0.0,0.0,0.0,0.0,0.0,0.0,0.0,0.0,0.0,0.0,0.0,3.1436,3.1424,3.1386,3.1386,3.1386,3.1386,3.1386,3.1386,3.1386,3.0909,3.0399,2.9738,2.7946,2.6769,2.6262,2.4945,2.4463,2.4541,2.4521,2.4746,2.5127,2.5156,2.5156,2.5185,2.5625,2.5801,2.5742,2.5746,2.5772,2.6035,0.0,0.0,0.0,0.0,0.0,0.0,0.0,0.0,0.0,0.0,0.0,0.0,0.0,1.1713,1.155,1.0856,1.1299,1.1839,1.2371,1.2722,1.2998,1.3185,1.2672,1.258,1.2897,1.2382,1.2204,1.2408,1.274,1.2826,1.2697,1.306,1.3267,1.3425,1.3815,1.3947,1.3881,1.4406,1.4736,1.4923,1.5316,1.5903,1.655,1.6785,1.7078,0.0,0.0,0.0,0.0,1.6267,1.5502,1.4646,1.4751,1.442,1.396,1.3831,1.3934,1.4211,0.0,0.0,0.0,0.0,0.0,0.0,0.0,0.0,0.0,0.0,0.0,0.0,0.0,0.0,0.0,0.0,0.0,0.0,0.0,0.0,0.0,0.0,0.0,0.0,0.0,0.0,0.0,0.0,0.0,3.0733,3.0382,3.0369,3.0369,3.0369,3.0369,3.0015,2.9314,2.9064,2.8221,2.6554,2.5955,2.5123,2.4185,2.3762,2.375,2.4004,2.3721,2.4004,2.4648,2.4893,2.5006,2.5056,2.551,2.5688,2.5727,2.5684,2.5739,2.5772,0.0,0.0,0.0,0.0,0.0,1.2895,1.2462,1.192,1.165,1.2007,0.0,0.0,0.0,0.0,1.1907,1.1365,1.2101,1.2811,1.3378,1.3404,1.3438,1.348,1.3114,1.3088,1.3412,1.2889,1.2709,1.2943,1.2978,1.2978,1.2955,1.3129,1.3267,1.3425,1.3835,1.4,1.3967,1.4722,1.5235,1.5622,1.6422,1.7114,1.7738,0.0,0.0,0.0,0.0,0.0,0.0,0.0,1.7295,1.6374,1.612,1.5249,1.4254,1.4158,1.4085,1.4123,1.4274,0.0,0.0,0.0,0.0,0.0,0.0,0.0,0.0,0.0,0.0,0.0,0.0,0.0,0.0,0.0,0.0,0.0,0.0,0.0,0.0,0.0,0.0,0.0,0.0,0.0,0.0,0.0,0.0,0.0,2.9817,2.9792,2.9792,2.9792,2.9792,2.9275,2.8084,2.8096,2.7012,2.4787,2.4787,2.4211,2.3135,2.3135,2.3301,2.3555,2.3262,2.3555,2.432,2.447,2.4461,2.4379,2.5312,2.5694,2.572,2.5671,2.5674,2.5679,0.0,0.0,1.2398,1.3572,1.2865,1.2178,1.2396,1.1026,1.0338,1.1242,0.0,0.0,0.0,0.0,0.0,1.2476,1.322,1.3695,1.3821,1.3821,1.3894,1.4084,1.3993,1.3894,1.3901,1.3702,1.3493,1.3198,1.3198,1.3198,1.3198,1.3198,1.3198,1.3232,1.3682,1.3934,1.4026,1.483,1.5359,1.5814,0.0,1.8724,1.8649,0.0,0.0,0.0,2.0027,1.9933,0.0,0.0,0.0,0.0,0.0,0.0,1.4172,1.4172,1.4123,1.3997,0.0,0.0,0.0,0.0,0.0,0.0,0.0,0.0,0.0,0.0,0.0,0.0,0.0,0.0,0.0,0.0,0.0,0.0,0.0,0.0,0.0,0.0,0.0,0.0,0.0,0.0,0.0,0.0,2.9792,2.9792,2.9792,2.9792,2.9792,2.9792,2.9792,2.9275,2.8084,2.8084,2.6942,2.4787,2.4787,2.4211,2.3135,2.3135,2.3135,2.3135,2.3135,2.3398,2.3998,2.3998,2.3641,2.3223,2.4975,2.5651,2.565,2.568,2.5717,2.5781,0.0,1.3105,1.3198,1.2897,1.2601,1.2476,1.2801,1.2526,1.248,0.0,0.0,0.0,1.3094,1.2927,1.3055,1.3613,1.4028,1.4278,1.4292,1.413,1.413,1.4374,1.4163,1.4078,1.4189,1.4124,1.3881,1.348,1.348,1.3391,1.3198,1.3198,1.3198,1.3198,1.348,1.3615,1.3682,1.4561,0.0,1.68,1.8048,1.9141,0.0,0.0,0.0,0.0,0.0,2.2949,2.2579,0.0,2.1695,1.9671,0.0,0.0,1.575,1.5386,1.4991,1.4651,1.4463,0.0,0.0,0.0,0.0,0.0,0.0,0.0,0.0,0.0,0.0,0.0,0.0,0.0,0.0,0.0,0.0,0.0,0.0,0.0,0.0,0.0,0.0,0.0,0.0,0.0,0.0,0.0,2.9792,2.9792,2.9792,2.9792,2.9792,2.9792,2.9792,2.9275,2.8084,2.7371,2.6213,2.4787,2.3963,2.3387,2.3135,2.3135,2.3135,2.3135,2.3135,2.3213,2.333,2.333,2.3222,2.3144,2.367,2.3803,2.3968,2.5214,2.5405,2.5188,1.3769,1.435,1.4463,1.3955,1.3885,1.3941,1.4125,1.35,1.2899,0.0,0.0,0.0,1.3653,1.3811,1.4232,1.4772,1.4704,1.4641,1.469,1.4564,1.4596,1.4845,1.4672,1.4578,1.4624,1.4592,1.4337,1.3881,1.3782,1.3615,1.3357,1.3267,1.3198,1.3198,1.3323,1.3357,1.3438,1.4346,0.0,0.0,1.8361,0.0,0.0,2.2667,2.331,0.0,0.0,0.0,2.4866,2.5001,2.3466,0.0,0.0,0.0,1.689,1.6216,1.5734,1.5271,1.4966,1.484,1.4777,0.0,0.0,0.0,1.6886,1.8304,0.0,0.0,0.0,0.0,0.0,0.0,0.0,0.0,0.0,0.0,0.0,0.0,0.0,0.0,0.0,0.0,0.0,2.9792,2.9792,2.9792,2.9792,2.9792,2.9792,2.9792,2.9679,2.944,2.9018,2.8174,2.6813,2.5764,2.4727,2.3584,2.2938,2.2617,2.2617,2.2617,2.2617,2.2627,2.2803,2.2881,2.2891,2.3066,2.3135,2.3067,2.3075,2.314,2.3242,2.4224,2.4746,2.4964,0.0,1.5799,1.5799,1.5799,1.5799,1.5799,1.5799,1.4282,1.2674,0.0,1.3916,1.5463,1.4574,1.4842,1.5255,1.5668,1.5224,1.498,1.5074,1.5074,1.5165,1.5418,1.5298,1.5193,1.5134,1.5043,1.4766,1.4351,1.4098,1.3868,1.3648,1.3391,1.3267,1.3267,1.3267,1.3304,1.3427,1.4345,0.0,1.614,1.8831,1.9982,0.0,0.0,2.4298,0.0,2.5255,2.6093,2.6497,2.5839,2.4532,0.0,0.0,0.0,1.8167,1.7209,1.6717,1.6329,1.5578,1.5623,1.591,0.0,0.0,0.0,1.7388,1.7748,1.8298,0.0,0.0,0.0,0.0,0.0,0.0,0.0,0.0,0.0,0.0,0.0,0.0,0.0,0.0,0.0,0.0,2.9603,2.9603,2.9603,2.9603,2.9603,2.9603,2.9603,2.9365,2.885,2.7879,2.6705,2.516,2.405,2.3041,2.204,2.1967,2.1885,2.1885,2.1885,2.1885,2.1904,2.2275,2.2471,2.2539,2.292,2.3096,2.3135,2.3135,2.3134,2.3127,2.3175,2.3895,2.4808,1.5665,1.5799,1.5799,1.5799,1.5799,1.5799,1.5799,1.5488,1.5107,1.4855,1.5384,1.5741,1.5522,1.558,1.5507,1.5165,1.5418,1.5624,1.5639,1.5448,1.5448,1.5712,1.5492,1.5389,1.5418,1.5389,1.5195,1.4797,1.4501,1.4246,1.4,1.3795,1.3687,1.3687,1.3687,1.3934,1.4445,0.0,0.0,1.739,1.9176,0.0,2.2966,2.4134,2.4866,2.5315,2.6123,2.6482,2.6497,0.0,2.5388,2.4682,0.0,0.0,0.0,1.9907,1.9503,1.9436,0.0,0.0,0.0,0.0,0.0,0.0,1.6271,1.7371,1.8405,0.0,0.0,0.0,0.0,0.0,0.0,0.0,0.0,0.0,0.0,0.0,0.0,0.0,0.0,0.0,0.0,2.8436,2.8436,2.8436,2.8436,2.8436,2.8436,2.8436,2.8386,2.8273,2.7308,2.6633,2.6288,2.4423,2.3423,2.3192,2.2349,2.1885,2.1885,2.1885,2.1885,2.1894,2.1973,2.2197,2.2519,2.2598,2.2832,2.3135,2.3135,2.3086,2.3193,2.3662,2.3896,2.4131,1.5799,1.5799,1.5799,1.5799,1.5799,1.5799,1.5799,1.5799,1.5799,1.5799,1.5799,1.5799,1.5799,1.5799,1.5697,1.5418,1.5639,1.5978,1.6428,1.5921,1.5787,1.6234,1.5846,1.561,1.5639,1.5639,1.5507,1.5195,1.4937,1.469,1.4501,1.413,1.4206,1.4627,1.404,1.4451,1.5603,0.0,1.6514,1.8458,1.9497,0.0,2.3281,2.4612,2.5525,2.6183,2.6841,2.729,2.7545,2.7215,2.7111,0.0,0.0,2.3877,2.3649,0.0,2.0857,2.0502,0.0,0.0,0.0,1.8027,0.0,0.0,0.0,1.7458,1.7693,0.0,0.0,0.0,0.0,0.0,0.0,0.0,0.0,0.0,0.0,0.0,0.0,0.0,0.0,0.0,2.767,2.7444,2.7394,2.767,2.7946,2.8109,2.8109,2.7631,2.7262,2.6993,2.5535,2.4641,2.4307,2.2797,2.2046,2.2046,2.1531,2.123,2.123,2.123,2.123,2.124,2.1465,2.1807,2.2217,2.2432,2.2754,2.3135,2.3135,2.3135,2.3164,2.3408,2.3613,2.3857,1.5799,1.5799,1.5799,1.5799,1.5799,1.5799,1.5799,1.5799,1.5799,1.5799,1.5799,1.5799,1.5799,1.5799,1.6008,1.6518,1.6098,1.6128,1.6879,1.6533,1.6443,1.6727,1.6398,1.6173,1.6173,1.6024,1.5891,1.5728,1.5357,1.5104,1.4982,1.4594,1.4812,1.5552,1.4843,1.5352,1.6768,0.0,0.0,1.956,0.0,2.1395,2.2918,2.4717,2.5824,2.6497,2.729,2.8008,2.8562,2.8308,0.0,2.8278,2.6393,2.5741,0.0,0.0,0.0,0.0,0.0,0.0,0.0,0.0,0.0,1.7996,0.0,0.0,0.0,0.0,0.0,0.0,0.0,0.0,0.0,0.0,0.0,0.0,0.0,0.0,0.0,0.0,0.0,0.0,0.0,2.6151,2.605,2.6603,2.7155,2.7519,2.762,2.6785,2.6113,2.5683,2.3643,2.2366,2.1901,2.0867,2.0322,2.0322,2.0322,2.0361,2.0439,2.0439,2.0488,2.0586,2.0947,2.1348,2.1797,2.2217,2.2637,2.3027,2.3105,2.3135,2.3135,2.3135,2.3359,2.3682,1.5799,1.5799,1.5799,1.5799,1.5799,1.5799,1.5799,1.5799,1.5799,1.5799,1.5799,1.5799,1.5799,1.5799,1.6743,1.9031,1.7148,0.0,1.6276,0.0,1.7749,1.6985,1.7299,1.7473,1.7473,1.6891,1.6607,1.6562,1.5757,1.5359,1.5329,1.5407,1.559,1.5984,1.6726,0.0,0.0,0.0,2.0518,0.0,2.2321,2.2786,0.0,2.4208,2.5151,2.5884,2.7126,2.8008,2.8427,0.0,2.7619,2.8353,0.0,2.6871,2.7031,0.0,0.0,0.0,0.0,0.0,0.0,0.0,2.053,0.0,0.0,0.0,0.0,0.0,0.0,0.0,0.0,0.0,0.0,0.0,0.0,0.0,0.0,0.0,0.0,0.0,0.0,0.0,0.0,2.3853,2.3753,2.433,2.4883,2.5398,2.585,2.5426,2.5147,2.5088,2.2827,2.1565,2.1439,2.0116,1.9434,1.9434,1.9434,1.9629,1.999,1.999,2.0195,2.0566,2.0625,2.0898,2.1348,2.1777,2.2207,2.2617,2.2988,2.3135,2.3135,2.3135,2.3164,2.3271,1.6274,1.6011,1.5799,1.5799,1.5799,1.5799,1.5799,1.5799,1.5799,1.5799,1.5799,1.6968,1.9974,0.0,0.0,0.0,0.0,1.998,0.0,0.0,1.8949,1.9169,1.8245,1.7747,1.7876,1.7477,1.7279,1.7279,1.6901,1.6736,1.6736,1.6663,1.6982,1.7581,1.7705,0.0,1.9574,0.0,0.0,0.0,0.0,0.0,0.0,2.4687,2.5839,2.6811,2.743,2.8263,2.9026,0.0,2.8622,0.0,0.0,0.0,0.0,0.0,0.0,0.0,0.0,0.0,0.0,0.0,0.0,0.0,2.014,0.0,1.8338,0.0,0.0,0.0,0.0,0.0,0.0,0.0,0.0,0.0,0.0,0.0,0.0,0.0,0.0,0.0,0.0,0.0,0.0,0.0,2.3238,2.3753,2.4619,2.3506,2.2937,2.3224,2.1267,2.0192,2.0192,1.9584,1.9287,1.9287,1.9287,1.9375,1.9561,1.9805,2.0019,2.0205,2.0449,2.0967,2.1621,2.1807,2.2275,2.2891,2.3066,2.3135,2.3135,2.3135,2.3135,2.3164,1.657,1.6163,1.5799,1.5799,1.5799,1.5799,1.5799,1.5799,1.6068,1.6788,1.6248,0.0,2.1036,2.387,0.0,0.0,2.4746,2.4661,0.0,0.0,2.114,2.1244,1.9713,0.0,0.0,1.8394,1.8065,1.8065,1.7819,1.7697,1.7697,1.7659,1.8017,1.8683,0.0,1.939,2.0744,0.0,0.0,2.2966,2.3096,2.3659,2.4507,2.53,2.6422,2.7625,2.7625,2.8323,2.9205,2.8547,2.9175,0.0,2.916,0.0,0.0,0.0,0.0,0.0,2.4852,0.0,0.0,0.0,0.0,0.0,0.0,0.0,0.0,0.0,0.0,0.0,0.0,0.0,0.0,1.5743,0.0,0.0,0.0,0.0,0.0,0.0,0.0,0.0,0.0,0.0,0.0,0.0,0.0,2.2573,2.3703,2.2104,2.1464,2.1956,2.0134,1.9111,1.9111,1.8994,1.8936,1.8936,1.8936,1.8994,1.9121,1.9551,1.9805,1.9941,2.0381,2.0996,2.1719,2.1836,2.2314,2.2978,2.3096,2.3135,2.3135,2.3135,2.3135,2.3135,1.649,1.6163,1.5799,1.5799,1.5799,1.5799,1.5799,1.5799,1.6713,1.9226,0.0,0.0,0.0,0.0,0.0,0.0,0.0,2.9076,2.4794,0.0,2.4932,0.0,0.0,2.175,0.0,1.987,1.8973,1.8973,1.811,1.7697,1.7712,1.8082,1.8411,1.8728,1.97,2.0342,2.0842,2.2685,2.355,2.3684,2.4986,2.5914,2.6437,0.0,2.6422,2.7625,2.7625,0.0,0.0,2.7844,2.8502,0.0,0.0,0.0,0.0,0.0,0.0,0.0,0.0,0.0,0.0,2.509,0.0,0.0,0.0,0.0,2.0099,0.0,0.0,0.0,0.0,0.0,1.6961,1.5869,1.5706,0.0,0.0,0.0,0.0,0.0,0.0,0.0,0.0,0.0,0.0,0.0,0.0,0.0,2.304,2.1894,2.1464,2.1956,1.9815,1.8592,1.8592,1.8252,1.8047,1.8047,1.8047,1.8262,1.8672,1.9111,1.9531,1.9941,2.0381,2.083,2.1289,2.1709,2.2139,2.2578,2.2978,2.3135,2.3135,2.3135,2.3135,2.3135,1.7361,1.6841,1.6234,0.0,0.0,1.6383,1.8137,1.6923,1.6128,0.0,0.0,0.0,0.0,0.0,2.8416,0.0,0.0,3.2645,2.9144,2.7623,0.0,0.0,0.0,2.3824,0.0,0.0,2.1327,2.0789,1.973,1.922,1.922,1.9221,1.9289,1.939,2.0191,2.0831,0.0,0.0,0.0,0.0,0.0,2.6782,2.6572,0.0,0.0,2.7625,2.7625,2.8008,0.0,2.8831,2.9205,2.9654,3.0058,2.946,2.8607,2.8607,2.8113,0.0,0.0,0.0,2.9609,2.7186,0.0,0.0,0.0,0.0,0.0,0.0,0.0,0.0,0.0,1.8451,1.7044,1.6105,1.5511,1.4701,0.0,0.0,0.0,0.0,0.0,0.0,0.0,0.0,0.0,0.0,1.8709,0.0,2.038,1.9514,1.934,2.02,1.8889,1.8223,1.8223,1.8076,1.8008,1.8008,1.8008,1.8232,1.8652,1.9092,1.9512,1.9941,2.0381,2.0977,2.168,2.1826,2.2295,2.2939,2.3086,2.3135,2.3135,2.3135,2.3135,2.3135,1.7811,1.7167,0.0,0.0,0.0,0.0,0.0,0.0,0.0,0.0,2.4656,0.0,2.8636,0.0,3.3778,0.0,3.7347,3.481,3.2899,3.0163,0.0,2.7982,2.6684,0.0,0.0,0.0,0.0,2.2188,2.1128,2.0553,2.0447,2.0025,1.9797,1.9827,2.0445,2.1201,2.2143,0.0,2.4911,0.0,0.0,2.737,0.0,0.0,2.72,2.7625,0.0,2.7859,2.8338,2.9011,2.9385,2.9684,3.0313,2.9939,2.928,2.928,2.8966,2.8712,2.916,3.0208,0.0,2.9041,2.8786,0.0,2.5173,0.0,0.0,0.0,0.0,0.0,0.0,0.0,1.7827,1.7316,1.6147,1.479,0.0,1.3709,0.0,0.0,0.0,0.0,0.0,0.0,0.0,1.7383,1.7523,1.7979,0.0,0.0,1.8208,1.9026,1.8382,1.8008,1.8008,1.8008,1.8086,1.8232,1.8086,1.8311,1.8877,1.916,1.9512,1.9941,2.0381,2.0977,2.167,2.1816,2.2295,2.293,2.3076,2.3135,2.3135,2.3135,2.3135,2.3135,1.8031,1.7404,0.0,0.0,1.9024,0.0,0.0,0.0,2.2052,0.0,3.413,4.007,4.007,4.007,4.007,4.007,3.7483,0.0,3.5639,3.2916,0.0,0.0,2.8219,2.7005,2.6551,0.0,0.0,0.0,0.0,2.1659,2.1389,2.0492,2.0096,2.0127,2.0557,0.0,2.2798,2.3355,2.4762,2.6647,2.7355,2.7625,2.7625,2.7625,2.7625,2.7625,2.7625,2.7625,2.773,2.8368,2.9011,2.9639,3.0253,3.0462,3.0462,3.0492,3.0507,3.0507,3.0552,3.0567,3.0582,3.0522,0.0,0.0,0.0,0.0,2.7433,0.0,0.0,0.0,0.0,0.0,1.9396,1.9271,1.7424,1.5325,1.3569,1.3795,0.0,0.0,0.0,0.0,0.0,0.0,1.6318,1.7618,1.7381,1.7513,0.0,0.0,1.7957,1.8521,1.8165,1.8008,1.8008,1.8008,1.8213,1.8603,1.8232,1.8486,1.9287,1.9307,1.9551,1.9971,2.0391,2.082,2.1179,2.168,2.21,2.2519,2.292,2.3086,2.3018,2.3135,2.3135,2.3135,2.1143,2.0982,2.0586,0.0,2.032,2.0557,0.0,0.0,0.0,0.0,3.8503,4.007,4.007,4.007,4.007,4.007,3.9377,0.0,0.0,0.0,0.0,3.4066,3.1554,2.958,2.8361,2.7634,0.0,2.4744,0.0,2.3247,2.2631,2.2009,2.1636,2.1493,2.1622,0.0,2.337,2.3535,2.4762,2.6647,2.7355,2.7625,0.0,0.0,2.7625,2.7625,2.7625,2.7625,2.773,2.8368,2.8712,2.8966,2.9624,2.9819,2.9909,3.0372,3.0507,3.0612,3.1135,3.1629,3.1764,3.0746,3.0043,2.922,0.0,0.0,0.0,0.0,0.0,0.0,0.0,0.0,0.0,1.8755,1.6811,1.5363,0.0,0.0,0.0,1.4463,0.0,0.0,0.0,0.0,1.6483,1.5319,1.6965,1.7688,1.6765,0.0,0.0,1.765,1.7917,1.8008,1.8008,1.8008,1.8066,1.8174,1.8934,1.9152,1.901,1.9516,1.999,2.041,2.0518,2.0624,2.0813,2.1247,2.166,2.206,2.2168,2.2298,2.259,2.293,2.3135,2.3135,2.231,0.0,0.0,2.0735,0.0,0.0,2.4879,0.0,0.0,3.8853,4.007,0.0,4.007,4.007,4.007,4.007,4.007,0.0,0.0,0.0,0.0,3.7533,3.4709,3.1935,2.9347,2.8966,0.0,2.5574,0.0,2.4108,2.3433,2.2748,2.2384,2.2263,2.2376,2.2955,0.0,2.4582,2.5555,2.6647,2.7355,0.0,0.0,2.7625,2.7625,2.7625,2.7625,2.7625,2.7685,2.8023,2.8353,2.8712,2.937,2.9759,3.0118,3.0761,3.0956,3.1046,3.1377,3.1809,3.1973,3.1495,3.133,3.0941,2.9609,2.9149,2.9005,0.0,0.0,0.0,0.0,0.0,0.0,0.0,1.7308,0.0,0.0,0.0,0.0,0.0,0.0,0.0,0.0,0.0,1.6394,1.488,1.6445,1.6864,0.0,0.0,0.0,1.6855,1.8004,1.839,1.8008,1.8282,1.838,1.8389,1.8804,1.9177,1.9654,1.9616,1.9955,2.0566,2.0566,2.0596,2.0642,2.1043,2.1377,2.1641,2.2012,2.2201,2.2349,2.2882,2.3135,2.3135,2.231,0.0,0.0,0.0,0.0,0.0,0.0,3.2357,0.0,3.8345,0.0,3.9208,3.9986,4.007,4.007,4.007,0.0,4.007,4.007,4.007,3.9901,3.9512,3.7009,3.3931,3.0345,2.9617,0.0,0.0,0.0,2.4782,2.4147,2.3321,2.2889,2.2883,0.0,0.0,0.0,2.5843,2.6542,2.6527,2.7275,2.7625,2.7625,2.7625,2.7625,2.7625,2.7625,2.7625,2.7625,2.7625,2.7979,2.8562,2.9131,2.9684,3.0268,3.1046,3.1285,3.1315,3.1422,3.1482,3.1616,3.2243,3.2826,3.2946,3.1794,3.1973,3.2048,3.0881,2.8757,2.756,0.0,0.0,0.0,0.0,0.0,0.0,0.0,0.0,0.0,0.0,0.0,0.0,0.0,0.0,1.6157,1.5572,1.6078,1.5994,0.0,0.0,0.0,1.6236,1.8118,1.8864,1.8203,0.0,1.8783,1.8752,1.8373,1.8971,2.0432,1.9788,1.985,2.0566,2.0566,2.0566,2.0596,2.0986,2.1143,2.123,2.21,2.2337,2.2376,2.2872,2.3135,2.3135,0.0,0.0,0.0,0.0,0.0,2.5749,3.6857,3.8514,3.7127,3.3254,3.2747,3.4624,3.9546,4.007,4.007,4.007,4.007,0.0,0.0,0.0,0.0,3.6518,3.5893,3.4912,3.3423,3.1698,2.9732,0.0,2.6879,2.6258,2.5554,2.4882,2.4469,2.4231,0.0,0.0,2.3773,2.5796,0.0,2.5884,2.7096,2.7625,2.7625,2.7625,2.7625,2.7625,2.7625,2.7625,2.7625,2.7625,2.77,2.782,2.7889,2.7993,2.8323,2.9564,2.9924,3.0163,3.124,3.1482,3.1497,3.1616,3.1735,3.1824,3.1526,3.1556,3.1644,3.1405,3.0537,2.943,2.8158,0.0,0.0,0.0,0.0,0.0,0.0,0.0,0.0,0.0,0.0,0.0,0.0,0.0,0.0,0.0,0.0,0.0,0.0,0.0,0.0,0.0,1.7674,0.0,0.0,0.0,1.8133,1.8174,1.8752,1.9199,1.9517,2.0143,2.0453,2.0566,2.0566,2.0566,2.0576,2.0654,2.0684,2.0771,2.165,2.2105,2.2325,2.2871,2.3135,2.3135,0.0,0.0,0.0,0.0,0.0,0.0,0.0,4.007,0.0,3.618,3.5808,3.6891,3.9766,4.007,4.007,4.007,4.007,3.9428,3.7872,3.777,3.7821,3.7922,3.6434,0.0,3.4945,3.2848,3.0572,2.8166,2.7504,2.6681,2.5621,2.5339,2.5068,2.4822,0.0,2.4569,0.0,0.0,0.0,2.6198,2.7186,2.7625,2.7625,2.7625,2.7625,2.7625,2.7625,2.7625,2.7625,2.7625,2.7625,2.7685,2.7993,2.8113,2.8368,2.9669,3.0058,3.0283,3.127,3.1482,3.1482,3.1482,3.1735,3.1958,3.1556,3.1735,3.1943,3.1541,3.0986,3.0013,2.8397,2.64,0.0,0.0,0.0,0.0,0.0,0.0,0.0,0.0,0.0,0.0,0.0,0.0,0.0,0.0,0.0,0.0,0.0,0.0,0.0,0.0,0.0,0.0,0.0,0.0,0.0,1.8478,1.888,1.8914,1.8657,1.9963,2.0574,2.0566,2.0566,2.0566,2.0566,2.0566,2.0566,2.0654,2.1543,2.2089,2.233,2.2938,2.3135,2.3135,0.0,2.4831,0.0,0.0,2.7858,0.0,3.9005,4.007,4.007,4.007,4.007,4.007,4.007,4.007,4.007,4.007,4.007,3.9073,3.6721,3.6569,3.7618,3.9969,3.7516,3.596,3.5622,3.3423,3.1246,0.0,2.7948,2.6838,2.5756,2.5535,2.5265,0.0,0.0,0.0,0.0,0.0,2.6587,2.6647,2.7355,2.7625,2.7625,2.7625,2.7625,2.7625,2.7625,2.7625,2.7625,2.7625,2.7625,2.7715,2.8203,2.8382,2.8637,2.9924,3.0313,3.0492,3.1258,3.1482,3.1482,3.1482,3.1928,3.2168,3.1601,3.1943,3.2153,3.1586,3.0881,3.0043,2.916,2.7919,0.0,0.0,0.0,0.0,0.0,0.0,0.0,0.0,0.0,0.0,0.0,0.0,0.0,0.0,0.0,0.0,0.0,0.0,0.0,0.0,0.0,1.9121,2.1079,0.0,1.9514,1.9053,1.9088,1.882,1.8348,1.987,2.0575,2.0566,2.0566,2.0566,2.0566,2.0566,2.0625,2.0791,2.1572,2.2056,2.2429,2.2881,2.3135,2.3135,0.0,0.0,0.0,0.0,0.0,0.0,0.0,4.007,4.007,4.007,4.007,4.007,4.007,4.007,4.007,4.007,4.007,3.9952,3.9681,3.9665,3.9783,4.007,3.8548,3.7043,3.5656,3.3423,3.185,0.0,2.8578,2.7214,2.6831,2.5875,2.5362,0.0,0.0,0.0,0.0,2.6288,2.6587,2.6647,2.7355,2.7625,2.7625,2.7625,2.7625,2.7625,2.7625,2.7625,2.7625,2.7625,2.7625,2.7625,2.7649,2.7715,2.7934,2.9265,2.9669,2.9939,3.1195,3.1482,3.1482,3.1482,3.1526,3.1556,3.1482,3.1526,3.1556,3.1482,3.0537,2.9804,3.0238,2.928,2.8382,0.0,0.0,0.0,0.0,0.0,0.0,0.0,0.0,0.0,0.0,1.907,0.0,0.0,0.0,0.0,0.0,0.0,0.0,1.7768,0.0,2.0147,2.2821,2.0764,1.9692,1.9618,1.9636,1.9436,1.9221,2.0161,2.0599,2.0566,2.0566,2.0566,2.0566,2.0566,2.0801,2.1221,2.1699,2.2119,2.2519,2.2969,2.3135,2.3135,0.0,0.0,0.0,0.0,0.0,0.0,0.0,4.007,4.007,4.007,4.007,4.007,4.007,4.007,4.007,4.007,4.007,4.007,4.007,4.007,4.007,4.007,3.8379,3.7415,3.7415,3.4912,3.3254,0.0,0.0,0.0,0.0,2.7465,0.0,0.0,0.0,2.732,2.7311,2.7626,2.7743,2.771,2.7655,2.7625,2.7625,2.7625,2.7625,2.7625,2.7625,2.7625,2.7625,2.7625,2.7625,2.7625,2.7625,2.7625,2.788,2.919,2.9579,2.9864,3.118,3.1482,3.1482,3.1482,3.1482,3.1482,3.1482,3.1482,3.1482,3.1482,3.112,3.0597,3.0058,2.9535,2.8921,0.0,0.0,0.0,0.0,0.0,0.0,0.0,0.0,0.0,0.0,0.0,0.0,0.0,0.0,0.0,0.0,0.0,0.0,1.9149,0.0,1.8839,2.3051,2.3562,2.2559,2.0257,1.9889,1.9855,2.0091,2.0409,2.0594,2.0566,2.0566,2.0566,2.0566,2.0566,2.083,2.1279,2.1719,2.2139,2.2568,2.2988,2.3135,2.3135,4.0102,0.0,4.3497,0.0,4.2167,4.0891,4.0204,4.007,4.007,4.007,4.007,4.007,4.007,4.007,4.007,4.007,4.007,4.007,4.007,4.007,4.007,4.007,3.8717,0.0,3.8599,3.6349,3.481,3.4066,3.2341,0.0,0.0,0.0,0.0,0.0,2.8491,2.8705,2.8714,2.8745,2.8654,2.8463,2.8042,2.776,2.7625,2.7625,2.7625,2.7625,2.7625,2.7625,2.7625,2.7625,2.7625,2.7625,2.7625,2.776,2.8098,2.925,2.9714,3.0103,3.1225,3.1482,3.1482,3.1482,3.1482,3.1482,3.1482,3.1482,3.1482,3.1482,3.1317,3.1001,3.0298,2.9983,2.949,2.8353,0.0,0.0,0.0,0.0,0.0,0.0,2.2617,2.108,1.9683,0.0,0.0,0.0,0.0,0.0,0.0,0.0,0.0,0.0,0.0,0.0,2.1557,2.322,2.2626,1.9809,1.9703,2.0054,2.0584,2.0595,2.0566,2.0566,2.0566,2.0722,2.086,2.086,2.1103,2.1641,2.1953,2.2324,2.2734,2.3027,2.3135,2.3135,4.3424,4.3461,4.3497,4.3497,4.3479,4.2716,4.0417,4.007,4.007,4.007,4.007,4.007,4.007,4.007,4.007,4.007,4.007,4.007,4.007,4.007,4.007,0.0,0.0,3.958,3.8633,3.7398,3.6366,3.5588,0.0,0.0,3.0633,0.0,2.829,2.8702,2.8718,2.8952,2.939,2.9406,2.9058,2.8511,2.8511,2.814,2.7625,2.7625,2.7625,2.7625,2.7625,2.7625,2.7625,2.7625,2.7625,2.7625,2.7625,2.8038,2.8727,2.9385,3.0013,3.0642,3.1345,3.1482,3.1482,3.1482,3.1482,3.1482,3.1482,3.1482,3.1482,3.1482,3.0986,3.0717,3.139,3.0956,3.0283,2.9669,0.0,0.0,0.0,0.0,0.0,0.0,2.2972,2.1531,2.0848,0.0,0.0,0.0,0.0,0.0,0.0,0.0,0.0,2.3047,1.9505,0.0,1.8035,1.8092,1.8085,1.8052,1.9193,2.0008,2.0562,2.0574,2.0566,2.0566,2.0566,2.0918,2.136,2.136,2.184,2.249,2.25,2.2764,2.3135,2.3135,2.3135,2.3135,4.3497,4.3497,4.3497,4.3497,4.2208,4.0938,4.0204,4.007,4.007,4.007,4.007,4.007,4.007,4.007,4.007,0.0,4.007,4.007,0.0,4.007,4.007,4.007,4.007,3.9935,3.9614,3.8261,3.7415,3.7178,0.0,0.0,0.0,3.1959,3.1532,3.1182,3.17,3.1416,3.0634,3.0718,3.0652,3.038,2.9046,2.8693,2.8897,2.8454,2.7979,2.7685,2.8113,2.8263,2.8203,2.7724,2.8188,2.8861,2.8412,2.8427,2.8727,2.9385,3.0028,3.0657,3.1287,3.1482,3.1482,3.1482,3.1482,3.1482,3.1482,3.1482,3.1482,3.1482,3.1302,3.0949,3.0163,2.9962,2.9476,2.8221,2.8157,0.0,0.0,0.0,0.0,0.0,2.3644,2.2561,0.0,2.1281,0.0,0.0,0.0,0.0,0.0,0.0,0.0,0.0,2.0944,0.0,1.8004,1.7996,1.8033,1.8024,1.8985,1.9837,2.0574,2.0595,2.0566,2.0576,2.0584,2.0895,2.1389,2.1876,2.2227,2.251,2.251,2.2773,2.3135,2.3135,2.3135,2.3135,4.3497,4.3497,4.3497,4.3497,4.2329,4.1105,4.0204,4.007,4.007,4.007,4.007,4.007,4.007,4.007,0.0,4.007,4.007,4.007,4.007,4.007,4.007,4.007,4.007,4.007,4.007,3.9191,0.0,3.8311,3.6502,3.4996,3.3812,3.3541,3.3152,3.273,3.3186,3.2899,3.2013,3.2144,3.1872,3.1254,2.9828,2.9373,2.9487,2.8586,2.8263,2.8353,2.8532,2.8757,2.8906,2.8472,2.8891,2.9505,2.9101,2.9131,2.94,2.9804,3.0387,3.0986,3.1362,3.1482,3.1482,3.1482,3.1482,3.1482,3.1482,3.1482,3.1482,3.1482,3.1482,3.1217,3.0309,2.9822,2.9104,2.7919,2.7407,2.7074,2.6788,0.0,0.0,0.0,0.0,0.0,0.0,2.1837,2.1656,0.0,0.0,0.0,0.0,0.0,0.0,2.0413,2.2188,0.0,1.9929,1.866,1.8337,1.8952,1.9316,1.984,2.0566,2.0566,2.0566,2.0586,2.062,2.1128,2.2068,2.2486,2.2611,2.2744,2.2744,2.291,2.3135,2.3135,2.3135,2.3135,4.3497,4.3497,4.3497,0.0,4.3497,0.0,4.0466,4.007,4.007,4.007,4.007,4.007,4.007,4.007,4.007,4.007,0.0,0.0,0.0,4.007,4.007,4.007,4.007,4.007,4.007,4.007,3.9715,3.8988,3.6891,3.5436,3.4624,3.3964,3.3592,3.3491,3.3541,3.3508,3.3406,3.3457,3.2756,3.1539,3.0784,3.0165,2.9596,2.8253,2.8487,2.9505,2.8936,2.9131,2.9639,2.9594,2.9639,2.9699,2.9669,3.0073,3.0567,3.0507,3.0986,3.1482,3.1482,3.1482,3.1482,3.1541,3.1571,3.1601,3.1556,3.1541,3.1584,3.1482,3.1482,3.1467,3.1409,3.025,2.9088,2.844,2.7216,2.6104,2.5481,2.5398,2.5122,0.0,0.0,0.0,0.0,2.2388,2.2347,0.0,0.0,0.0,0.0,0.0,2.1506,2.3027,2.3121,2.3118,2.3115,1.9723,1.8854,2.0623,2.0048,2.0051,2.0566,2.0566,2.0566,2.0586,2.0639,2.1523,2.3134,2.3068,2.313,2.3135,2.3135,2.3135,2.3135,2.3135,2.3135,2.3135,0.0,0.0,4.3497,4.3497,4.3497,4.2716,4.0466,4.007,4.007,4.007,4.007,4.007,4.007,4.007,4.007,4.007,4.007,4.007,4.007,4.007,4.007,4.007,4.007,4.007,4.007,4.007,3.9715,3.8988,3.8464,3.7516,3.6231,3.6062,3.5368,3.4252,3.4844,3.4455,3.344,3.3998,3.4074,3.357,3.1372,3.1023,3.1686,2.984,2.931,2.9624,2.9939,3.0148,3.0223,2.9744,3.0253,3.0986,3.0447,3.0746,3.118,3.0657,3.0986,3.1482,3.1482,3.1482,3.1601,3.2153,3.2662,3.2901,3.2392,3.2273,3.2138,3.1644,3.1482,3.1278,3.0703,2.9522,2.8398,2.7619,2.641,2.5564,2.5425,2.5398,2.512,0.0,2.4182,2.3785,2.303,2.2921,2.2761,0.0,0.0,0.0,0.0,2.2133,2.2297,2.3053,2.3121,2.3113,2.3096,1.9727,1.8836,2.0605,2.0476,2.0453,2.0566,2.0566,2.0566,2.0596,2.0628,2.1564,2.3071,2.3137,2.3066,2.3135,2.3135,2.3135,2.3135,2.3135,2.3135,2.3135,4.3497,4.3497,4.3497,4.3497,4.3497,4.3069,4.1817,4.0767,4.007,4.007,4.007,4.007,4.007,4.007,4.007,4.007,4.007,4.007,4.007,4.007,4.007,4.007,4.007,4.007,4.007,4.007,3.9884,3.9478,3.8819,3.8091,3.728,3.6569,3.5808,3.503,3.5436,3.5182,3.4438,3.4844,3.481,3.4317,3.228,3.1903,3.2328,3.0365,2.9953,3.0477,3.0492,3.0717,3.0926,3.0597,3.0941,3.1407,3.1091,3.124,3.1407,3.1091,3.124,3.1482,3.1482,3.1691,3.2138,3.2796,3.3006,3.3036,3.2976,3.2736,3.2422,3.2063,3.1676,3.1351,3.0896,2.9203,2.7752,2.7298,2.5594,2.4323,2.4323,2.4323,2.4313,2.4201,2.418,2.4102,2.3879,2.3904,2.3778,2.3477,2.2949,0.0,2.3427,2.3226,2.3226,2.3626,2.3306,2.3341,2.3845,2.0769,1.9644,2.0566,2.0621,2.0631,2.0566,2.0566,2.0566,2.0596,2.0633,2.1578,2.3061,2.2827,2.2862,2.3135,2.3135,2.3135,2.3135,2.3135,2.3135,2.3135,4.3497,4.3497,4.3497,4.3497,4.3497,4.3497,4.3497,4.156,4.007,4.007,4.007,4.007,4.007,4.007,4.007,4.007,4.007,4.007,4.007,4.007,4.007,4.007,4.007,4.007,4.007,4.007,4.007,4.007,3.8853,3.8125,3.7872,3.6485,3.5774,3.5622,3.5622,3.5622,3.5622,3.5622,3.525,3.4553,3.3176,3.2622,3.2437,3.0464,3.0477,3.1465,3.0866,3.1106,3.1616,3.1616,3.1616,3.1616,3.1616,3.1616,3.1616,3.1616,3.1691,3.1735,3.1526,3.2018,3.2706,3.3455,3.3215,3.2961,3.3514,3.3215,3.2781,3.2677,3.2005,3.1485,3.1485,2.9085,2.7106,2.7106,2.4885,2.3078,2.3078,0.0,2.3452,2.3941,2.4067,2.4305,2.477,2.482,2.482,2.482,2.4393,2.433,2.4795,2.4456,2.4268,2.4432,2.3772,2.3843,2.4615,2.1958,2.0612,2.0566,2.0566,2.0566,2.0566,2.0566,2.0693,2.0791,2.0816,2.1683,2.3029,2.265,2.2707,2.3135,2.3135,2.3135,2.3135,2.3135,2.3135,2.3135,4.3497,4.3497,4.3497,4.3497,4.3497,4.3497,4.3497,4.156,4.007,4.007,4.007,4.007,4.007,4.007,4.007,4.007,4.007,4.007,4.007,4.007,4.007,4.007,4.007,4.007,4.007,4.007,4.007,4.007,3.9851,3.9106,3.7889,3.7195,3.6417,3.5622,3.5622,3.5622,3.5622,3.5622,3.5554,3.5234,3.3372,3.2944,3.3188,3.1119,3.0851,3.1467,3.1347,3.1809,3.2362,3.2362,3.2362,3.2362,3.2362,3.2362,3.2362,3.2362,3.2766,3.2946,3.1839,3.2018,3.2811,3.4023,3.4247,3.4203,3.4307,3.4247,3.4008,3.3455,3.2205,3.1279,3.1279,2.8524,2.6302,2.6302,2.4503,2.3078,2.3078,0.0,2.3904,2.3991,2.4406,2.4732,2.4808,2.482,2.482,2.482,2.4745,2.4732,2.482,2.5159,2.5347,2.536,2.5136,2.4578,2.3746,2.1671,2.0605,2.0566,2.0566,2.0566,2.0566,2.0566,2.0987,2.17,2.1703,2.2247,2.3128,2.2997,2.2989,2.3135,2.3135,2.3135,2.3135,2.3135,2.3135,2.3135,4.3497,4.3497,4.3497,4.3497,4.3497,4.3497,4.3497,4.26,4.1919,4.1919,4.0844,4.007,4.007,4.007,4.007,4.007,4.007,4.007,4.007,4.007,4.007,4.007,4.007,4.007,4.007,4.007,4.007,4.007,4.007,3.9343,3.7905,3.7652,3.6857,3.5639,3.6062,3.6011,3.5622,3.5622,3.5622,3.5453,3.4072,3.3556,3.3443,3.2094,3.1779,3.2063,3.2063,3.2482,3.2991,3.2632,3.2751,3.3036,3.3036,3.3036,3.3036,3.3036,3.326,3.344,3.3185,3.308,3.3365,3.4696,3.4756,3.4577,3.4951,3.4741,3.4382,3.4083,3.2805,3.1579,3.1281,2.8671,2.6638,2.6892,2.4779,0.0,2.433,2.4192,2.433,2.5222,2.5272,2.5473,2.6088,2.5887,2.5699,2.5699,2.541,2.5372,2.5686,2.5636,2.5737,2.605,2.5469,2.4446,2.2978,2.2052,2.1303,2.0566,2.0566,2.0566,2.0566,2.0566,2.1332,2.2553,2.1888,2.2231,2.3103,2.285,2.293,2.3135,2.3135,2.3135,2.3135,2.3135,2.3135,2.3135,4.3497,4.3497,4.3497,4.3497,4.3497,4.3497,4.3497,4.3497,4.3497,4.3497,4.2003,4.0891,4.0891,4.0434,4.007,4.007,4.007,4.007,4.007,4.007,4.007,4.007,4.007,4.007,4.007,4.007,4.007,4.007,4.007,3.9411,3.8159,3.8091,3.7381,3.6163,3.6586,3.6451,3.5876,3.569,3.5622,3.5503,3.4692,3.415,3.3746,3.3023,3.2736,3.2736,3.2736,3.3155,3.3649,3.314,3.3305,3.3724,3.3724,3.3724,3.3724,3.3724,3.3844,3.4083,3.4577,3.4128,3.3814,3.5175,3.4996,3.4666,3.5355,3.51,3.4711,3.4711,3.3287,3.1874,3.1425,2.8934,2.7065,2.7365,0.0,2.4155,0.0,2.5008,2.5084,2.649,2.6377,2.6477,2.7218,2.6904,2.6603,2.6533,2.6163,2.6189,2.6697,2.6352,2.6377,2.6829,2.5645,2.4255,2.2758,2.2478,2.1818,2.0566,2.0566,2.0566,2.0566,2.0762,2.1581,2.2838,2.2038,2.2197,2.3117,2.2781,2.2852,2.3135,2.3135,2.3135,2.3135,2.3135,2.3135,2.3135,4.3497,4.3497,4.3497,4.3497,4.3497,4.3497,4.3497,4.3497,4.3497,4.3497,4.3356,4.3232,4.3232,4.1358,4.007,4.007,4.007,4.007,4.007,4.007,4.007,4.007,4.007,4.007,4.007,4.007,4.007,4.007,4.007,3.9681,3.8903,3.8667,3.8261,3.7702,3.706,3.6755,3.6637,3.5926,3.5622,3.5537,3.4834,3.4574,3.4425,3.3724,3.3425,3.3425,3.3425,3.3844,3.4397,3.4352,3.4367,3.4412,3.4412,3.4412,3.4412,3.4412,3.4861,3.537,3.5415,3.4472,3.3814,3.5175,3.4996,3.4666,3.5355,3.5474,3.5429,3.5429,3.348,3.1833,3.1777,2.931,2.7145,2.6665,0.0,0.0,2.5573,2.5988,2.6584,2.7155,2.7632,2.7745,2.7318,2.7243,2.7017,2.6571,2.6892,2.7168,2.7218,2.767,2.7946,2.7984,2.6033,2.448,2.3419,2.2478,2.1527,2.0566,2.0582,2.0562,2.0596,2.1095,2.1695,2.2396,2.2369,2.2685,2.3105,2.3096,2.3105,2.3135,2.3135,2.3135,2.3135,2.3135,2.3135,2.3135,4.3497,4.3497,4.3497,4.3497,4.3497,4.3497,4.3497,4.3497,4.3497,4.3497,4.3497,4.3497,4.3497,4.149,4.007,4.007,4.007,4.007,4.007,4.007,4.007,4.007,4.007,4.007,4.007,4.007,4.007,4.007,4.007,3.9698,3.9005,3.9343,3.8954,3.7922,3.8075,3.7722,3.6919,3.598,3.6308,3.7249,3.5191,3.4745,3.5211,3.4409,3.4098,3.4098,3.4098,3.4547,3.5055,3.4622,3.4756,3.5115,3.5115,3.5115,3.5115,3.5115,3.5295,3.5504,3.5504,3.513,3.4861,3.537,3.531,3.519,3.5444,3.5504,3.5504,3.5504,3.4287,3.2913,3.1972,3.007,2.8511,2.8031,0.0,2.649,2.7519,2.7256,2.7306,2.8197,2.7883,2.7645,2.777,2.7482,2.7193,2.6979,2.7482,2.7795,2.7795,2.7996,2.8109,2.8109,2.6083,2.4676,2.3974,2.2907,2.1731,2.0566,2.0926,2.1271,2.165,2.1703,2.2134,2.275,2.2565,2.2754,2.3135,2.3135,2.3135,2.3135,2.3135,2.3135,2.3135,2.3135,2.3135,2.3135,4.3497,4.3497,4.3497,4.3497,4.3497,4.3497,4.3497,4.3497,4.3497,4.3497,4.3497,4.3232,4.2505,4.1013,4.007,4.007,4.007,4.007,4.007,4.007,4.007,4.007,4.007,4.007,4.007,4.007,4.007,4.007,4.007,3.9817,3.9343,3.9834,3.9546,3.8599,3.9105,3.8717,3.7643,3.6703,3.7101,3.8193,3.5906,3.5432,3.5944,3.511,3.4801,3.4801,3.4801,3.51,3.5429,3.4966,3.5115,3.5504,3.5504,3.5504,3.5504,3.5504,3.5504,3.5504,3.5504,3.5504,3.5504,3.5504,3.5504,3.5504,3.5504,3.5504,3.5424,3.5067,3.4259,3.3184,3.1844,3.0485,2.946,2.8963,2.7971,2.7632,2.8775,2.8285,2.8147,2.9089,2.8524,2.8147,2.8348,2.8021,2.772,2.7557,2.8059,2.8448,2.8624,2.8637,2.8475,2.8138,2.6553,2.5216,2.426,2.2928,2.1784,2.0868,2.1215,2.1693,2.2332,2.2257,2.2487,2.2873,2.2761,2.2871,2.3135,2.3135,2.3135,2.3135,2.3135,2.3135,2.3135,2.3135,2.3135,2.3135,4.3497,4.3497,4.3497,4.3497,4.3497,4.3497,4.3497,4.3497,4.3497,4.3497,4.3497,4.2639,4.0336,4.007,4.007,4.007,4.007,4.007,4.007,4.007,4.007,4.007,4.007,4.007,4.007,4.007,4.007,4.007,4.007,4.007,4.007,4.007,4.007,4.0121,4.0101,3.971,3.8954,3.8227,3.7922,3.7829,3.7026,3.6694,3.6603,3.5826,3.5504,3.5504,3.5504,3.5504,3.5504,3.5504,3.5504,3.5504,3.5504,3.5504,3.5504,3.5504,3.5504,3.5504,3.5504,3.5504,3.5504,3.5504,3.5504,3.5504,3.5504,3.5504,3.5213,3.4177,3.3241,3.2321,3.1389,3.0419,2.9603,2.9026,2.8938,2.8938,2.8938,2.8938,2.9151,2.9729,2.9792,2.9566,2.8988,2.8925,2.8699,2.816,2.8624,2.9189,2.9767,2.9792,2.9287,2.8176,2.7584,2.6279,2.4198,2.2651,2.1763,2.1438,2.1419,2.1738,2.2353,2.2879,2.291,2.2539,2.2959,2.3135,2.3135,2.3135,2.3135,2.3135,2.3135,2.3135,2.3135,2.3135,2.3135,2.3135,4.3497,4.3497,4.3497,4.3497,4.3497,4.3497,4.3497,4.3497,4.3497,4.3497,4.3497,4.2639,4.0336,4.007,4.007,4.007,4.007,4.007,4.007,4.007,4.007,4.007,4.007,4.007,4.007,4.007,4.007,4.007,4.007,4.007,4.007,4.007,4.007,4.0121,4.012,3.9952,3.9782,3.9542,3.9457,3.9277,3.7416,3.6997,3.7345,3.6009,3.5504,3.5504,3.5504,3.5504,3.5504,3.5504,3.5504,3.5504,3.5504,3.5504,3.5504,3.5504,3.5504,3.5504,3.5504,3.5504,3.5504,3.5504,3.5504,3.5504,3.5504,3.5504,3.5213,3.4177,3.3808,3.3101,3.1462,3.097,3.0493,2.9706,2.9528,2.9528,2.9528,2.9528,2.9603,2.9779,2.9428,2.9114,2.895,2.8925,2.8863,2.8699,2.9214,2.9616,2.9779,2.9792,2.9287,2.8176,2.7209,2.6073,2.4672,2.3948,2.3012,2.1773,2.2314,2.2556,2.2457,2.29,2.3066,2.2959,2.3086,2.3135,2.3135,2.3135,2.3135,2.3135,2.3135,2.3135,2.3135,2.3135,2.3135,2.3135,4.3497,4.3497,4.3497,4.3497,4.3497,4.3497,4.3497,4.3497,4.3497,4.3497,4.3497,4.2639,4.0336,4.007,4.007,4.007,4.007,4.007,4.007,4.007,4.007,4.007,4.007,4.007,4.007,4.007,4.007,4.007,4.007,4.007,4.007,4.007,4.007,4.007,4.007,4.007,4.0121,4.0119,4.0086,3.9919,3.7958,3.7364,3.7648,3.6085,3.5504,3.5504,3.5504,3.5504,3.5504,3.5504,3.5504,3.5504,3.5504,3.5504,3.5504,3.5504,3.5504,3.5504,3.5504,3.5504,3.5504,3.5504,3.5504,3.5504,3.5504,3.5504,3.5133,3.3739,3.3449,3.289,3.0983,3.062,3.0482,2.9856,2.9792,2.9792,2.9792,2.9792,2.9792,2.9792,2.9478,2.9277,2.9277,2.9277,2.9277,2.9277,2.9591,2.9792,2.9792,2.9792,2.9118,2.7533,2.6801,2.5724,2.4125,2.3949,2.3368,2.2383,2.2876,2.2994,2.2773,2.3027,2.3135,2.3135,2.3135,2.3135,2.3135,2.3135,2.3135,2.3135,2.3135,2.3135,2.3135,2.3135,2.3135,2.3135,4.3497,4.3497,4.3497,4.3497,4.3497,4.3497,4.3497,4.3497,4.3444,4.3232,4.3356,4.2639,4.0336,4.007,4.007,4.007,4.007,4.007,4.007,4.007,4.007,4.007,4.007,4.007,4.007,4.007,4.007,4.007,4.007,4.007,4.007,4.007,4.007,4.007,4.007,4.007,4.007,4.007,4.007,3.9969,3.843,3.7822,3.7648,3.6085,3.5504,3.5504,3.5504,3.5504,3.5504,3.5504,3.5504,3.5504,3.5504,3.5504,3.5504,3.5504,3.5504,3.5504,3.5504,3.5504,3.5519,3.5579,3.5594,3.5579,3.5519,3.5504,3.492,3.3031,3.2593,3.2046,3.0152,2.9792,2.9792,2.9792,2.9792,2.9792,2.9792,2.9792,2.9792,2.9792,2.9792,2.9792,2.9792,2.9792,2.9792,2.9792,2.9792,2.9792,2.9792,2.9792,2.8803,2.6565,2.6483,2.54,2.3135,2.3135,2.3135,2.3135,2.3135,2.3135,2.3135,2.3135,2.3135,2.3135,2.3135,2.3135,2.3135,2.3135,2.3135,2.3135,2.3135,2.3135,2.3135,2.3135,2.3135,2.3135,4.3497,4.3497,4.3497,4.3497,4.3497,4.3497,4.3497,4.3497,4.2847,4.1059,4.2386,4.2639,4.0336,4.007,4.007,4.007,4.007,4.007,4.007,4.007,4.007,4.007,4.007,4.007,4.007,4.007,4.007,4.007,4.007,4.007,4.007,4.007,4.007,4.007,4.007,4.007,4.007,4.007,4.007,3.9969,3.843,3.7822,3.7648,3.6085,3.5504,3.5504,3.5504,3.5504,3.5504,3.5504,3.5504,3.5504,3.5504,3.5504,3.5504,3.5504,3.5504,3.5504,3.5504,3.5504,3.5624,3.6148,3.6267,3.6148,3.5624,3.5504,3.492,3.3031,3.2593,3.2046,3.0152,2.9792,2.9792,2.9792,2.9792,2.9792,2.9792,2.9792,2.9792,2.9792,2.9792,2.9792,2.9792,2.9792,2.9792,2.9792,2.9792,2.9792,2.9792,2.9792,2.8803,2.6565,2.6483,2.54,2.3135,2.3135,2.3135,2.3135,2.3135,2.3135,2.3135,2.3135,2.3135,2.3135,2.3135,2.3135,2.3135,2.3135,2.3135,2.3135,2.3135,2.3135,2.3135,2.3135,2.3135,2.3135,4.3497,4.3497,4.3497,4.3497,4.3497,4.3497,4.3497,4.3497,4.2678,4.0385,4.115,4.1402,4.0204,4.007,4.007,4.007,4.007,4.007,4.007,4.007,4.007,4.007,4.007,4.007,4.007,4.007,4.007,4.007,4.007,4.007,4.007,4.007,4.007,4.007,4.007,4.007,4.007,3.9662,3.9542,3.9385,3.7847,3.7219,3.71,3.5958,3.5504,3.5504,3.5504,3.5504,3.5504,3.5504,3.5504,3.5504,3.5504,3.5504,3.5504,3.5504,3.5504,3.5504,3.5504,3.5729,3.6058,3.6402,3.6716,3.6836,3.6492,3.58,3.486,3.3393,3.2441,3.1476,3.0075,2.9792,2.9792,2.9792,2.9792,2.9792,2.9792,2.9792,2.9792,2.9792,2.9792,2.9792,2.9792,2.9792,2.9792,2.9792,2.9792,2.9792,2.9792,2.9275,2.8199,2.6554,2.5964,2.4893,2.3135,2.3135,2.3135,2.3135,2.3135,2.3135,2.3135,2.3135,2.3135,2.3135,2.3135,2.3135,2.3135,2.3135,2.3135,2.3135,2.3135,2.3135,2.3135,2.3135,2.3135,2.3135,4.3497,4.3497,4.3497,4.3497,4.3497,4.3497,4.3497,4.3497,4.2678,4.0385,4.007,4.007,4.007,4.007,4.007,4.007,4.007,4.007,4.007,4.007,4.007,4.007,4.007,4.007,4.007,4.007,4.007,4.007,4.007,4.007,4.007,4.007,4.007,4.007,4.007,4.002,3.9833,3.9193,3.8854,3.858,3.7188,3.6615,3.6492,3.5782,3.5504,3.5504,3.5504,3.5504,3.5504,3.5504,3.5504,3.5504,3.5504,3.5504,3.5504,3.5504,3.5594,3.5699,3.5684,3.6148,3.6671,3.6791,3.7195,3.753,3.7496,3.6263,3.4839,3.373,3.2388,3.1156,3.0163,3.0005,3.003,2.9942,2.993,2.993,2.993,2.9854,2.9792,2.9792,2.9792,2.9792,2.9792,2.9792,2.9792,2.9792,2.9792,2.9792,2.9792,2.8688,2.7602,2.6554,2.5378,2.4211,2.3135,2.3135,2.3135,2.3135,2.3135,2.3135,2.3135,2.3135,2.3135,2.3135,2.3135,2.3135,2.3135,2.3135,2.3135,2.3135,2.3135,2.3135,2.3135,2.3135,2.3135,2.3135,4.3497,4.3497,4.3497,4.3497,4.3497,4.3497,4.3497,4.3497,4.2678,4.0385,4.007,4.007,4.007,4.007,4.007,4.007,4.007,4.007,4.007,4.007,4.007,4.007,4.007,4.007,4.007,4.007,4.007,4.007,4.007,4.007,4.007,4.007,4.007,4.007,4.007,3.9714,3.9086,3.8962,3.8525,3.7863,3.6964,3.6615,3.6492,3.5782,3.5504,3.5504,3.5504,3.5504,3.5504,3.5504,3.5504,3.5504,3.5504,3.5504,3.5504,3.5504,3.6049,3.6625,3.6387,3.6806,3.7419,3.7988,3.8197,3.818,3.7826,3.6735,3.5206,3.3306,3.2724,3.215,3.0729,3.0871,3.1022,3.0583,3.0507,3.0507,3.0507,3.0093,2.9792,2.9792,2.9792,2.9792,2.9792,2.9792,2.9792,2.9792,2.9792,2.9792,2.9792,2.8688,2.7602,2.6554,2.5378,2.4211,2.3135,2.3135,2.3135,2.3135,2.3135,2.3135,2.3135,2.3135,2.3135,2.3135,2.3135,2.3135,2.3135,2.3135,2.3135,2.3135,2.3135,2.3135,2.3135,2.3135,2.3135,2.3135,4.3497,4.3497,4.3497,4.3497,4.3497,4.3497,4.3497,4.2426,4.1223,4.0204,4.007,4.007,4.007,4.007,4.007,4.007,4.007,4.007,4.007,4.007,4.007,4.007,4.007,4.007,4.007,4.007,4.007,4.007,4.007,4.007,4.007,4.007,4.007,4.007,3.961,3.9262,3.8854,3.7987,3.7424,3.704,3.629,3.6006,3.5943,3.5619,3.5504,3.5504,3.5504,3.5504,3.5504,3.5504,3.5504,3.5564,3.5938,3.5776,3.5636,3.6335,3.6649,3.6828,3.6985,3.7464,3.8018,3.8317,3.8676,3.8574,3.7181,3.6431,3.5558,3.3754,3.267,3.1851,3.1165,3.1235,3.1311,3.1085,3.0809,3.062,3.062,3.0143,2.9792,2.9792,2.9792,2.9792,2.9792,2.9792,2.9792,2.9792,2.9792,2.9792,2.9792,2.8119,2.6964,2.6472,2.4808,2.3637,2.3135,2.3135,2.3135,2.3135,2.3135,2.3135,2.3135,2.3135,2.3135,2.3135,2.3135,2.3135,2.3135,2.3135,2.3135,2.3135,2.3135,2.3291,2.3467,2.3232,2.3291,2.3467]},{"header":{"parameterUnit":"m.s-1","parameterCategory":1,"la1":30.6,"la2":28.766,"lo1":-90.7593,"lo2":-88.6598,"dy":0.0162,"dx":0.0183,"nx":116,"ny":114,"refTime":"2024-05-14T12:00:00:Z","depth":0,"parameterNumber":3,"parameterNumberName":"V-component_of_WINDS"},"data":[0.0,0.0,0.0,0.0,0.0,0.0,0.0,0.0,0.0,0.0,0.0,0.0,0.0,0.0,0.0,0.0,0.0,0.0,0.0,0.0,0.0,0.0,0.0,0.0,0.0,0.0,0.0,0.0,0.0,0.0,0.0,0.0,0.0,0.0,0.0,0.0,0.0,0.0,0.0,0.0,0.0,0.0,0.0,0.0,0.0,0.0,0.0,0.0,0.0,0.0,0.0,0.0,0.0,0.0,0.0,0.0,0.0,0.0,0.0,0.0,0.0,0.0,0.0,0.0,0.0,0.0,0.0,0.0,0.0,0.0,0.0,0.0,0.0,0.0,0.0,0.0,0.0,0.0,0.0,0.0,0.0,0.0,0.0,0.0,0.0,0.0,0.0,0.0,0.0,0.0,0.0,0.0,0.0,0.0,0.0,0.0,0.0,0.0,0.0,0.0,0.0,0.0,0.0,0.0,0.0,0.0,0.0,0.0,0.0,0.0,0.0,0.0,0.0,0.0,0.0,0.0,0.0,0.0,0.0,0.0,0.0,0.0,0.0,0.0,0.0,0.0,0.0,0.0,0.0,0.0,0.0,0.0,0.0,0.0,0.0,0.0,0.0,0.0,0.0,0.0,0.0,0.0,0.0,0.0,0.0,0.0,0.0,0.0,0.0,0.0,0.0,0.0,0.0,0.0,0.0,0.0,0.0,0.0,0.0,0.0,0.0,0.0,0.0,0.0,0.0,0.0,0.0,0.0,0.0,0.0,0.0,0.0,0.0,0.0,0.0,0.0,0.0,0.0,0.0,0.0,0.0,0.0,0.0,0.0,0.0,0.0,0.0,0.0,0.0,0.0,0.0,0.0,0.0,0.0,0.0,0.0,0.0,0.0,0.0,0.0,0.0,0.0,0.0,0.0,0.0,0.0,0.0,0.0,0.0,0.0,0.0,0.0,0.0,0.0,0.0,0.0,0.0,0.0,0.0,0.0,0.0,0.0,0.0,0.0,0.0,0.0,0.0,0.0,0.0,0.0,0.0,0.0,0.0,0.0,0.0,0.0,0.0,0.0,0.0,0.0,0.0,0.0,0.0,0.0,0.0,0.0,0.0,0.0,0.0,0.0,0.0,0.0,0.0,0.0,0.0,0.0,0.0,0.0,0.0,0.0,0.0,0.0,0.0,0.0,0.0,0.0,0.0,0.0,0.0,0.0,0.0,0.0,0.0,0.0,0.0,0.0,0.0,0.0,0.0,0.0,0.0,0.0,0.0,0.0,0.0,0.0,0.0,0.0,0.0,0.0,0.0,0.0,0.0,0.0,0.0,0.0,0.0,0.0,0.0,0.0,0.0,0.0,0.0,0.0,0.0,0.0,0.0,0.0,0.0,0.0,0.0,0.0,0.0,0.0,0.0,0.0,0.0,0.0,0.0,0.0,0.0,0.0,0.0,0.0,0.0,0.0,0.0,0.0,0.0,0.0,0.0,0.0,0.0,0.0,0.0,0.0,0.0,0.0,0.0,0.0,0.0,0.0,0.0,0.0,0.0,0.0,0.0,0.0,0.0,0.0,0.0,0.0,0.0,0.0,0.0,0.0,0.0,0.0,0.0,0.0,0.0,0.0,0.0,0.0,0.0,0.0,0.0,0.0,0.0,0.0,0.0,0.0,0.0,0.0,0.0,0.0,0.0,0.0,0.0,0.0,0.0,0.0,0.0,0.0,0.0,0.0,0.0,0.0,0.0,0.0,0.0,0.0,0.0,0.0,0.0,0.0,0.0,0.0,0.0,0.0,0.0,0.0,0.0,0.0,0.0,0.0,0.0,0.0,0.0,0.0,0.0,0.0,0.0,0.0,0.0,0.0,0.0,0.0,0.0,0.0,0.0,0.0,0.0,0.0,0.0,0.0,0.0,0.0,0.0,0.0,0.0,0.0,0.0,0.0,0.0,0.0,0.0,0.0,0.0,0.0,0.0,0.0,0.0,0.0,0.0,0.0,0.0,0.0,0.0,0.0,0.0,0.0,0.0,0.0,0.0,0.0,0.0,0.0,0.0,0.0,0.0,0.0,0.0,0.0,0.0,0.0,0.0,0.0,0.0,0.0,0.0,0.0,0.0,0.0,0.0,0.0,0.0,0.0,0.0,0.0,0.0,0.0,0.0,0.0,0.0,0.0,0.0,0.0,0.0,0.0,0.0,0.0,0.0,0.0,0.0,0.0,0.0,0.0,0.0,0.0,0.0,0.0,0.0,0.0,0.0,0.0,0.0,0.0,0.0,0.0,0.0,0.0,0.0,0.0,0.0,0.0,0.0,0.0,0.0,0.0,0.0,0.0,0.0,0.0,0.0,0.0,0.0,0.0,0.0,0.0,0.0,0.0,0.0,0.0,0.0,0.0,0.0,0.0,0.0,0.0,0.0,0.0,0.0,0.0,0.0,0.0,0.0,0.0,0.0,0.0,0.0,0.0,0.0,0.0,0.0,0.0,0.0,0.0,0.0,0.0,0.0,0.0,0.0,0.0,0.0,0.0,0.0,0.0,0.0,0.0,0.0,0.0,0.0,0.0,0.0,0.0,0.0,0.0,0.0,0.0,0.0,0.0,0.0,0.0,0.0,0.0,0.0,0.0,0.0,0.0,0.0,0.0,0.0,0.0,0.0,0.0,0.0,0.0,0.0,0.0,0.0,0.0,0.0,0.0,0.0,0.0,0.0,0.0,0.0,0.0,0.0,0.0,0.0,0.0,0.0,0.0,0.0,0.0,0.0,0.0,0.0,0.0,0.0,0.0,0.0,0.0,0.0,0.0,0.0,0.0,0.0,0.0,0.0,0.0,0.0,0.0,0.0,0.0,0.0,0.0,0.0,0.0,0.0,0.0,0.0,0.0,0.0,0.0,0.0,0.0,0.0,0.0,0.0,0.0,0.0,0.0,0.0,0.0,0.0,0.0,0.0,0.0,0.0,0.0,0.0,0.0,0.0,0.0,0.0,0.0,0.0,0.0,0.0,0.0,0.0,0.0,0.0,0.0,0.0,0.0,0.0,0.0,0.0,0.0,0.0,0.0,0.0,0.0,0.0,0.0,0.0,0.0,0.0,0.0,0.0,0.0,0.0,0.0,0.0,0.0,0.0,0.0,0.0,0.0,0.0,0.0,0.0,0.0,0.0,0.0,0.0,0.0,0.0,0.0,0.0,0.0,0.0,0.0,0.0,0.0,0.0,0.0,0.0,0.0,0.0,0.0,0.0,0.0,0.0,0.0,0.0,0.0,0.0,0.0,0.0,0.0,0.0,0.0,0.0,0.0,0.0,0.0,0.0,0.0,0.0,0.0,0.0,0.0,0.0,0.0,0.0,0.0,0.0,0.0,0.0,0.0,0.0,0.0,0.0,0.0,0.0,0.0,0.0,0.0,0.0,0.0,0.0,0.0,0.0,0.0,0.0,0.0,0.0,0.0,0.0,0.0,0.0,0.0,0.0,0.0,0.0,0.0,0.0,0.0,0.0,0.0,0.0,0.0,0.0,0.0,0.0,0.0,0.0,0.0,0.0,0.0,0.0,0.0,0.0,0.0,0.0,0.0,0.0,0.0,0.0,0.0,0.0,0.0,0.0,0.0,0.0,0.0,0.0,0.0,0.0,0.0,0.0,0.0,0.0,0.0,0.0,0.0,0.0,0.0,0.0,0.0,0.0,0.0,0.0,0.0,0.0,0.0,0.0,0.0,0.0,0.0,0.0,0.0,0.0,0.0,0.0,0.0,0.0,0.0,0.0,0.0,0.0,0.0,0.0,0.0,0.0,0.0,0.0,0.0,0.0,0.0,0.0,0.0,0.0,0.0,0.0,0.0,0.0,0.0,0.0,0.0,0.0,0.0,0.0,0.0,0.0,0.0,0.0,0.0,0.0,0.0,0.0,0.0,0.0,0.0,0.0,0.0,0.0,0.0,0.0,0.0,0.0,0.0,0.0,0.0,0.0,0.0,0.0,0.0,0.0,0.0,0.0,0.0,0.0,0.0,0.0,0.0,0.0,0.0,0.0,0.0,0.0,0.0,0.0,0.0,0.0,0.0,0.0,0.0,0.0,0.0,0.0,0.0,0.0,0.0,0.0,0.0,0.0,0.0,0.0,0.0,0.0,0.0,0.0,0.0,0.0,0.0,0.0,0.0,0.0,0.0,0.0,0.0,0.0,0.0,0.0,0.0,0.0,0.0,0.0,0.0,0.0,0.0,0.0,0.0,0.0,0.0,0.0,0.0,0.0,0.0,0.0,0.0,0.0,0.0,0.0,0.0,0.0,0.0,0.0,0.0,0.0,0.0,0.0,0.0,0.0,0.0,0.0,0.0,0.0,0.0,0.0,0.0,0.0,0.0,0.0,0.0,0.0,0.0,0.0,0.0,0.0,0.0,0.0,0.0,0.0,0.0,0.0,0.0,0.0,0.0,0.0,0.0,0.0,0.0,0.0,0.0,0.0,0.0,0.0,0.0,0.0,0.0,0.0,0.0,0.0,0.0,0.0,0.0,0.0,0.0,0.0,0.0,0.0,0.0,0.0,0.0,0.0,0.0,0.0,0.0,0.0,0.0,0.0,0.0,0.0,0.0,0.0,0.0,0.0,0.0,0.0,0.0,0.0,0.0,0.0,0.0,0.0,0.0,0.0,0.0,0.0,0.0,0.0,0.0,0.0,0.0,0.0,0.0,0.0,0.0,0.0,0.0,0.0,0.0,0.0,0.0,0.0,0.0,0.0,0.0,0.0,0.0,0.0,0.0,0.0,0.0,0.0,0.0,0.0,0.0,0.0,0.0,0.0,0.0,0.0,0.0,0.0,0.0,0.0,0.0,0.0,0.0,0.0,0.0,0.0,0.0,0.0,0.0,0.0,0.0,0.0,0.0,0.0,0.0,0.0,0.0,0.0,0.0,0.0,0.0,0.0,0.0,0.0,0.0,0.0,0.0,0.0,0.0,0.0,0.0,0.0,0.0,0.0,0.0,0.0,0.0,0.0,0.0,0.0,0.0,0.0,0.0,0.0,0.0,0.0,0.0,0.0,0.0,0.0,0.0,0.0,0.0,0.0,0.0,0.0,0.0,0.0,0.0,0.0,0.0,0.0,0.0,0.0,0.0,0.0,0.0,0.0,0.0,0.0,0.0,0.0,0.0,0.0,0.0,0.0,0.0,0.0,0.0,0.0,0.0,0.0,0.0,0.0,0.0,0.0,0.0,0.0,0.0,0.0,0.0,0.0,0.0,0.0,0.0,0.0,0.0,0.0,0.0,0.0,0.0,0.0,0.0,0.0,0.0,0.0,0.0,0.0,0.0,0.0,0.0,0.0,0.0,0.0,0.0,0.0,0.0,0.0,0.0,0.0,0.0,0.0,0.0,0.0,0.0,0.0,0.0,0.0,0.0,0.0,0.0,0.0,0.0,0.0,0.0,0.0,0.0,0.0,0.0,0.0,0.0,0.0,0.0,0.0,0.0,0.0,0.0,0.0,0.0,0.0,0.0,0.0,0.0,0.0,0.0,0.0,0.0,0.0,0.0,0.0,0.0,0.0,0.0,0.0,0.0,0.0,0.0,0.0,0.0,0.0,0.0,0.0,0.0,0.0,0.0,0.0,0.0,0.0,0.0,0.0,0.0,0.0,0.0,0.0,0.0,0.0,0.0,0.0,0.0,0.0,0.0,0.0,0.0,0.0,0.0,0.0,0.0,0.0,0.0,0.0,0.0,0.0,0.0,0.0,0.0,0.0,0.0,0.0,0.0,0.0,0.0,0.0,0.0,0.0,0.0,0.0,0.0,0.0,0.0,0.0,0.0,0.0,0.0,0.0,0.0,0.0,0.0,0.0,0.0,0.0,0.0,0.0,0.0,0.0,0.0,0.0,0.0,0.0,0.0,0.0,0.0,0.0,0.0,0.0,0.0,0.0,0.0,0.0,0.0,0.0,0.0,0.0,0.0,0.0,0.0,0.0,0.0,0.0,0.0,0.0,0.0,0.0,0.0,0.0,0.0,0.0,0.0,0.0,0.0,0.0,0.0,0.0,0.0,0.0,0.0,0.0,0.0,0.0,0.0,0.0,0.0,0.0,0.0,0.0,0.0,0.0,0.0,0.0,0.0,0.0,0.0,0.0,0.0,0.0,0.0,-2.2229,0.0,0.0,0.0,0.0,0.0,0.0,0.0,0.0,0.0,0.0,0.0,0.0,0.0,0.0,0.0,0.0,0.0,0.0,0.0,0.0,0.0,0.0,0.0,0.0,-1.3698,-1.3652,-1.3509,-1.3446,-1.3396,-1.3396,0.0,0.0,0.0,0.0,0.0,-1.7794,-1.7811,-1.7811,-1.7811,-1.7572,-1.7256,-1.6935,-1.7646,-1.7487,-1.6548,0.0,0.0,0.0,0.0,0.0,0.0,0.0,0.0,0.0,0.0,0.0,0.0,0.0,0.0,0.0,0.0,0.0,0.0,0.0,0.0,0.0,0.0,0.0,0.0,0.0,0.0,0.0,0.0,0.0,0.0,0.0,0.0,0.0,0.0,0.0,0.0,0.0,0.0,0.0,0.0,0.0,0.0,0.0,0.0,0.0,0.0,0.0,0.0,0.0,0.0,0.0,0.0,0.0,0.0,0.0,0.0,0.0,0.0,0.0,0.0,0.0,0.0,0.0,0.0,0.0,0.0,0.0,0.0,0.0,0.0,0.0,-2.346,0.0,0.0,0.0,0.0,0.0,0.0,0.0,0.0,0.0,0.0,0.0,0.0,0.0,0.0,0.0,0.0,0.0,0.0,0.0,0.0,0.0,-1.4012,-1.3759,-1.3713,-1.3688,-1.3682,-1.3633,-1.3633,-1.3734,-1.4461,0.0,0.0,0.0,0.0,-1.7794,-1.7811,-1.7766,-1.7704,-1.7452,-1.7486,-1.7856,-1.8377,-1.776,-1.627,-1.6763,0.0,0.0,0.0,0.0,0.0,0.0,0.0,0.0,0.0,0.0,0.0,0.0,0.0,0.0,0.0,0.0,0.0,0.0,0.0,0.0,0.0,0.0,0.0,0.0,0.0,0.0,0.0,0.0,0.0,0.0,0.0,0.0,0.0,0.0,0.0,0.0,0.0,0.0,0.0,0.0,0.0,0.0,0.0,0.0,0.0,0.0,0.0,0.0,0.0,0.0,0.0,0.0,0.0,0.0,0.0,0.0,0.0,0.0,0.0,0.0,0.0,0.0,0.0,-2.7999,-2.8583,-2.8805,-2.9468,-2.9485,-2.8864,-2.7734,-2.6417,-2.5056,0.0,0.0,0.0,0.0,0.0,0.0,0.0,0.0,0.0,0.0,0.0,0.0,0.0,0.0,0.0,0.0,0.0,0.0,0.0,0.0,-1.404,-1.3891,-1.3774,-1.388,-1.433,-1.4362,-1.4575,-1.5084,-1.5944,0.0,0.0,0.0,-1.771,-1.7811,-1.7811,-1.7658,-1.7368,-1.7327,-1.7819,-1.8847,-1.9314,-1.9251,-1.8788,-1.8026,-1.8114,-1.8764,0.0,0.0,0.0,0.0,0.0,0.0,0.0,0.0,0.0,0.0,0.0,0.0,0.0,0.0,0.0,0.0,0.0,0.0,0.0,0.0,0.0,0.0,0.0,0.0,0.0,0.0,0.0,0.0,0.0,0.0,0.0,0.0,0.0,0.0,0.0,0.0,0.0,0.0,0.0,0.0,0.0,-2.1167,-1.9563,0.0,0.0,0.0,0.0,0.0,0.0,0.0,0.0,0.0,0.0,0.0,0.0,0.0,-2.6338,-2.6829,-2.8593,-2.922,-2.8732,-3.0845,-3.1264,-3.0288,-3.2062,-3.2856,-3.2796,-3.3156,0.0,-2.6703,-2.6856,0.0,0.0,0.0,0.0,0.0,0.0,0.0,0.0,0.0,0.0,0.0,0.0,0.0,0.0,0.0,0.0,0.0,0.0,0.0,0.0,0.0,-1.4126,-1.4172,-1.4791,-1.4976,-1.5087,-1.5112,-1.6298,0.0,0.0,-1.7378,-1.7811,-1.7811,-1.7388,-1.7462,-1.8033,-1.9014,-2.0207,-2.1611,-2.2184,-2.2592,-2.279,-2.16,-2.0012,-1.8278,-1.7786,0.0,0.0,0.0,0.0,0.0,0.0,0.0,0.0,0.0,0.0,0.0,0.0,0.0,0.0,0.0,0.0,0.0,0.0,0.0,0.0,0.0,0.0,0.0,0.0,0.0,0.0,0.0,0.0,0.0,0.0,0.0,0.0,0.0,0.0,0.0,0.0,0.0,0.0,0.0,-2.0882,-2.1711,-2.0544,-2.1961,-2.2627,0.0,0.0,0.0,0.0,0.0,0.0,0.0,0.0,0.0,-2.6653,-2.8227,-2.9123,-2.9225,-3.1419,-3.2539,-3.2645,-3.407,-3.4622,-3.4427,-3.5669,-3.6237,-3.6282,-3.6956,-3.5779,-3.3186,-3.0749,-2.893,-2.7756,0.0,0.0,0.0,0.0,-2.9553,-2.9956,0.0,0.0,0.0,0.0,0.0,0.0,0.0,0.0,0.0,0.0,0.0,0.0,-1.4831,-1.4519,-1.4652,-1.5645,-1.5791,-1.5758,-1.5606,-1.6589,-1.7018,-1.6714,-1.7373,-1.7749,-1.7811,-1.7572,-1.8062,-1.9264,-2.1142,-2.2864,-2.4388,-2.542,-2.6147,-2.6544,-2.5321,-2.2702,-1.9216,-1.8617,-1.7866,-1.7059,0.0,0.0,0.0,0.0,0.0,0.0,0.0,0.0,0.0,0.0,0.0,0.0,0.0,0.0,0.0,0.0,0.0,0.0,0.0,0.0,0.0,0.0,0.0,0.0,0.0,0.0,0.0,0.0,0.0,0.0,0.0,0.0,0.0,0.0,0.0,0.0,0.0,-2.1697,-2.2746,-2.1577,-2.3254,-2.3923,0.0,0.0,0.0,0.0,0.0,0.0,-2.7534,-2.84,-2.9108,-2.963,-3.1429,-3.2359,-3.2512,-3.4666,-3.5998,-3.6522,-3.718,-3.7719,-3.8197,-3.8856,-3.9155,-3.9185,-3.9694,-3.9529,-3.8601,-3.4651,-3.2078,-3.0608,-3.032,-3.053,-3.1052,-3.1999,-3.2665,-3.3273,0.0,0.0,0.0,0.0,0.0,0.0,0.0,0.0,0.0,0.0,0.0,-1.3837,-1.5124,-1.4906,-1.5438,-1.7305,-1.6955,-1.6865,-1.7432,-1.7239,-1.7142,-1.7271,-1.7486,-1.7658,-1.7811,-1.894,-2.005,-2.107,-2.3341,-2.5121,-2.6482,-2.8427,-2.9296,-2.916,-2.8352,-2.6399,-2.3547,-2.007,-1.8943,-1.9302,-1.6976,0.0,0.0,0.0,0.0,0.0,0.0,0.0,0.0,0.0,0.0,0.0,0.0,0.0,0.0,0.0,0.0,0.0,0.0,0.0,0.0,0.0,0.0,0.0,0.0,0.0,0.0,0.0,0.0,0.0,0.0,0.0,0.0,0.0,0.0,0.0,0.0,0.0,0.0,-2.2394,-2.5986,0.0,0.0,0.0,0.0,-2.6682,-2.7997,-2.9159,-3.0001,-3.1434,-3.2856,-3.4145,-3.5524,-3.6761,-3.7988,-3.8781,-3.9185,-3.923,-3.9888,-4.0217,-4.0277,-4.0935,-4.1235,-4.1235,-4.1265,-4.0905,-4.0127,-3.8003,-3.6701,-3.6028,-3.5355,-3.5091,-3.5089,-3.5164,-3.5154,-3.5259,0.0,0.0,0.0,0.0,0.0,-1.3328,-1.3219,-1.3675,-1.3966,-1.3803,-1.4247,-1.4919,-1.5778,-1.6086,-1.6709,-1.7877,-1.7992,-1.7976,-1.793,-1.8006,-1.7978,-1.7818,-1.7697,-1.7928,-1.8611,-2.0399,-2.2062,-2.3662,-2.5605,-2.741,-2.9131,-3.0298,-3.1051,-3.1368,-3.096,-2.9675,-2.7641,-2.3336,-2.0745,-1.9426,-1.8259,-1.7491,0.0,0.0,0.0,0.0,0.0,0.0,0.0,0.0,0.0,0.0,0.0,0.0,0.0,0.0,0.0,0.0,0.0,0.0,0.0,0.0,0.0,0.0,0.0,0.0,0.0,0.0,0.0,0.0,0.0,0.0,0.0,0.0,0.0,0.0,0.0,0.0,0.0,-2.6329,-2.8996,0.0,-2.8396,-2.8863,-2.9531,-3.0063,-3.1622,-3.3021,-3.418,-3.5524,-3.6716,-3.7629,-3.8542,-3.923,-3.9679,-4.0352,-4.0681,-4.0681,-4.092,-4.1025,-4.1055,-4.1713,-4.2013,-4.2043,-4.2462,-4.2506,-4.2237,-4.1519,-4.0098,-3.8302,-3.7629,-3.7395,-3.7386,-3.7465,-3.7435,-3.7584,0.0,0.0,0.0,-1.0591,-1.1848,-1.2811,-1.2772,-1.3415,-1.3851,-1.3731,-1.4506,-1.5386,-1.6222,-1.6893,-1.7669,-1.86,-1.8688,-1.8534,-1.8126,-1.819,-1.8114,-1.7789,-1.8243,-1.9029,-2.0115,-2.2375,-2.4414,-2.6211,-2.8036,-2.9684,-3.1195,-3.2108,-3.2766,-3.3124,-3.2747,-3.1832,-3.0395,-2.6775,-2.3721,-2.1096,-1.9826,-1.9072,-1.8605,0.0,0.0,0.0,0.0,0.0,0.0,0.0,0.0,0.0,0.0,0.0,0.0,0.0,0.0,0.0,0.0,0.0,0.0,0.0,0.0,0.0,0.0,0.0,0.0,0.0,0.0,0.0,0.0,0.0,0.0,0.0,0.0,0.0,0.0,0.0,-2.8924,-2.9354,-3.1962,-3.3229,-3.1911,-3.2591,-3.3306,-3.3744,-3.5048,-3.6387,-3.7734,-3.8826,-3.9813,-4.0711,-4.1384,-4.1818,-4.2043,-4.2267,-4.2372,-4.2372,-4.2147,-4.2043,-4.2058,-4.2491,-4.2686,-4.2716,-4.315,-4.3329,-4.3329,-4.3329,-4.2312,-4.0666,-3.9993,-3.9636,-3.9482,-3.9505,-3.956,-3.97,0.0,-1.0028,-1.0563,-1.0563,-1.1701,-1.2688,-1.2837,-1.3208,-1.3507,-1.3652,-1.4249,-1.5114,-1.6334,-1.7258,-1.8298,-1.957,-1.9091,-1.8549,-1.8157,-1.7786,-1.7459,-1.7174,-1.9207,-2.0958,-2.224,-2.4869,-2.7016,-2.8697,-3.0642,-3.1855,-3.2572,-3.3873,-3.4472,-3.4472,-3.3674,-3.2743,-3.1759,-3.0259,-2.7857,-2.472,-2.1617,-2.1036,-2.1704,0.0,0.0,0.0,0.0,0.0,0.0,0.0,0.0,0.0,0.0,0.0,0.0,0.0,0.0,0.0,0.0,0.0,0.0,0.0,0.0,0.0,0.0,0.0,0.0,0.0,0.0,0.0,0.0,0.0,0.0,0.0,0.0,0.0,-2.4911,-2.8958,-3.1713,-3.1197,-3.4853,-3.6746,-3.4876,-3.6417,-3.7539,-3.7554,-3.8182,-3.9125,-4.0442,-4.113,-4.2058,-4.3344,-4.3988,-4.4631,-4.5289,-4.4646,-4.4332,-4.4332,-4.3673,-4.3359,-4.3359,-4.3359,-4.3359,-4.3329,-4.3329,-4.3329,-4.3329,-4.3329,-4.3329,-4.3269,-4.2641,-4.2025,-4.1439,-4.1398,-4.1414,-4.146,-0.9338,-0.9515,-0.9657,-0.9657,-1.0451,-1.1311,-1.1943,-1.2608,-1.3008,-1.2849,-1.4841,-1.6111,-1.5732,-1.776,-1.9286,-1.966,-1.9091,-1.8729,-1.8748,-1.7944,-1.7735,-1.8391,-2.0194,-2.2155,-2.4239,-2.7149,-2.9327,-3.0731,-3.2228,-3.3051,-3.3245,-3.4083,-3.4472,-3.4517,-3.5279,-3.4633,-3.2955,-3.3017,-3.1694,-2.9244,-2.5624,-2.353,-2.2544,0.0,0.0,0.0,0.0,0.0,0.0,0.0,0.0,0.0,0.0,0.0,0.0,0.0,0.0,0.0,0.0,0.0,0.0,0.0,0.0,0.0,0.0,0.0,0.0,0.0,0.0,0.0,0.0,0.0,0.0,0.0,0.0,-2.927,-2.919,-3.1021,-3.3336,-3.6024,-3.7848,-3.9035,-3.9439,-3.9978,-4.0487,-4.0965,-4.1609,-4.2342,-4.3195,-4.3404,-4.3898,-4.4721,-4.4466,-4.4631,-4.5289,-4.4646,-4.4556,-4.502,-4.4362,-4.4047,-4.4047,-4.4047,-4.3778,-4.3329,-4.3329,-4.3329,-4.3329,-4.3329,-4.3329,-4.3314,-4.3135,-4.2671,-4.2102,-4.2119,-4.2212,-4.2349,-0.9338,-0.9319,-0.931,-0.9338,-0.9963,-1.074,-1.1576,-1.2308,-1.2709,-1.2554,-1.5052,-1.6438,-1.5487,-1.7973,-1.957,-1.9301,-1.9181,-1.8899,-1.8375,-1.8406,-1.9012,-2.0221,-2.2304,-2.4526,-2.6925,-2.9222,-3.118,-3.2766,-3.3529,-3.4053,-3.4352,-3.4726,-3.5055,-3.5355,-3.6133,-3.5486,-3.3827,-3.424,-3.3211,-3.1162,-2.8919,-2.7134,-2.557,-2.368,-2.2505,-2.1685,-2.0487,-2.0214,-2.0216,-1.9071,0.0,0.0,0.0,0.0,0.0,0.0,0.0,0.0,0.0,0.0,0.0,0.0,0.0,0.0,0.0,0.0,0.0,0.0,0.0,0.0,0.0,0.0,0.0,0.0,-2.9887,-3.2462,-3.3849,-3.4598,-3.5923,-3.8512,-3.9903,-4.107,-4.2117,-4.2462,-4.288,-4.3539,-4.3943,-4.4332,-4.4706,-4.5005,-4.5334,-4.5723,-4.5618,-4.5753,-4.6127,-4.5484,-4.5349,-4.5723,-4.505,-4.4721,-4.4721,-4.4721,-4.4526,0.0,-4.4152,-4.4152,-4.4152,-4.4158,-4.4128,0.0,0.0,0.0,0.0,0.0,-4.2659,-4.2556,-0.9357,-0.9347,-0.9319,-0.9375,-0.9875,-1.0601,-1.1565,-1.2165,-1.253,-1.2603,-1.4879,-1.6155,-1.5292,-1.7608,-1.9076,-1.8627,-1.9056,-1.8821,-1.7599,-1.9102,-2.076,-2.2332,-2.4991,-2.7425,-2.9624,-3.112,-3.2721,-3.4472,-3.4562,-3.4906,-3.5504,-3.5504,-3.5833,-3.6514,-3.6552,-3.5857,-3.471,-3.4609,-3.3542,-3.1888,-3.1773,-3.0885,-2.9414,-2.6833,-2.5678,-2.5275,-2.3923,-2.3001,-2.2302,-2.1663,0.0,0.0,0.0,0.0,0.0,0.0,0.0,0.0,0.0,0.0,0.0,0.0,0.0,0.0,0.0,0.0,0.0,0.0,0.0,0.0,0.0,0.0,0.0,0.0,-3.2765,-3.51,-3.8078,-3.8706,-3.9065,-3.9679,-4.1369,-4.2746,-4.3434,-4.4062,-4.4706,-4.5364,-4.5409,-4.5454,-4.5514,0.0,0.0,0.0,0.0,-4.7234,-4.7309,-4.6651,-4.6367,-4.6426,-4.5738,-4.5409,-4.5409,-4.5409,-4.5364,-4.5289,-4.5289,-4.5289,-4.5342,-4.5289,-4.5274,-4.5132,-4.3993,-4.3513,-4.3404,-4.3404,-4.3021,-4.2485,-0.93,-0.931,-0.931,-0.9319,-0.9433,-1.0029,-1.1553,-1.1818,-1.2072,-1.2618,-1.418,-1.4895,-1.3968,-1.5472,-1.6907,-1.7834,-1.7364,-1.7457,-1.8397,-1.9939,-2.1654,-2.3564,-2.6654,-2.8958,-3.0298,-3.2677,-3.4098,-3.4472,-3.504,-3.537,-3.5504,-3.5504,-3.5874,-3.6522,-3.6978,-3.6891,-3.6321,-3.6011,-3.5412,-3.4641,-3.3733,-3.2234,-3.0319,-2.9315,-2.8331,-2.7322,-2.5691,-2.6057,-2.705,-2.4997,-2.4737,-2.4914,-2.2736,-2.0496,0.0,0.0,0.0,0.0,0.0,0.0,0.0,0.0,0.0,0.0,0.0,0.0,0.0,0.0,0.0,0.0,0.0,0.0,0.0,-3.2255,-3.5292,-3.7853,-3.905,-4.0591,-4.1639,-4.1773,-4.2626,-4.3434,-4.4077,-4.4721,-4.5379,-4.6082,-4.6127,-4.6352,-4.689,-4.6531,-4.6576,-4.71,-4.6726,-4.677,-4.7294,-4.6651,-4.6591,-4.7115,0.0,0.0,-4.6127,-4.6127,-4.5813,-4.5289,-4.5289,-4.5297,-4.5274,-4.5282,-4.5263,-4.5306,-4.5031,-4.4573,-4.4127,-4.4127,-4.3728,-4.322,-0.9338,-0.9329,-0.931,-0.9347,-0.9676,-1.0364,-1.1571,-1.209,-1.2448,-1.2701,-1.4213,-1.501,-1.4383,-1.5517,-1.6585,-1.72,-1.6981,-1.7768,-1.9892,-2.1783,-2.3709,-2.5727,-2.8613,-3.0769,-3.1973,-3.3619,-3.4637,-3.4996,-3.534,-3.5504,-3.5504,-3.5504,-3.5884,-3.6535,-3.709,-3.7159,-3.6772,-3.6372,-3.5953,-3.5412,-3.4342,-3.3442,-3.2579,-3.175,-3.0733,-2.9668,-2.8826,-2.8983,-2.928,-2.7786,-2.7289,-2.7037,-2.5384,-2.3474,-2.1602,0.0,0.0,0.0,0.0,0.0,0.0,0.0,0.0,0.0,0.0,0.0,0.0,0.0,0.0,-2.8086,-2.8641,0.0,-3.394,-3.5416,-3.7728,-3.9738,-4.0756,-4.2028,-4.2851,-4.2851,-4.3434,-4.4242,-4.5229,-4.5618,-4.6097,-4.677,-4.6815,-4.6965,-4.7294,-4.6995,-4.6965,-4.7294,-4.6995,-4.698,-4.7309,-4.698,-4.698,-4.7309,-4.698,-4.6815,-4.6815,-4.6815,-4.6636,-4.6307,-4.6307,-4.6346,-4.6271,-4.6262,-4.6301,-4.6322,-4.6281,-4.571,-4.478,-4.4439,-4.4112,-4.3803,-0.9394,-0.9357,-0.9338,-0.9385,-0.9938,-1.067,-1.1562,-1.2305,-1.2812,-1.2993,-1.4291,-1.5095,-1.4765,-1.5578,-1.6191,-1.6345,-1.71,-1.8611,-2.1133,-2.3521,-2.5777,-2.7895,-3.0492,-3.2467,-3.3664,-3.4337,-3.4951,-3.5504,-3.5504,-3.5504,-3.5504,-3.5644,-3.6049,-3.6723,-3.7293,-3.7471,-3.7273,-3.6852,-3.6389,-3.5867,-3.4914,-3.4638,-3.476,-3.3796,-3.2767,-3.1813,-3.1549,-3.1061,-3.0527,-3.002,-2.92,-2.8264,-2.7764,-2.6594,-2.5055,-2.2973,-2.1951,0.0,0.0,0.0,0.0,0.0,0.0,0.0,0.0,0.0,-2.7085,-2.7955,-2.9887,-3.1591,-3.2332,-3.4798,-3.7126,-3.8567,-4.0008,-4.1294,-4.2222,-4.3135,-4.3718,-4.3718,-4.4302,-4.5125,-4.6217,-4.6441,-4.6741,-4.7264,-4.7309,-4.7309,-4.7309,-4.7309,-4.7369,-4.7489,-4.7369,-4.7369,-4.7489,-4.7369,-4.7309,-4.7309,-4.7309,-4.7309,-4.7309,-4.7309,-4.7309,-4.7309,-4.7309,-4.7309,-4.7309,-4.7309,-4.7309,-4.7309,-4.7309,-4.6661,-4.5619,-4.493,-4.4609,-4.4403,-0.9394,-0.9394,-0.9394,-0.9394,-0.9465,-1.0028,-1.1473,-1.1788,-1.2305,-1.3602,-1.3748,-1.3681,-1.3532,-1.3458,-1.3789,-1.4685,-1.7015,-1.918,-2.0863,-2.3992,-2.6838,-2.9259,-3.1869,-3.3619,-3.4352,-3.504,-3.5429,-3.5504,-3.5504,-3.5504,-3.5504,-3.6125,-3.6698,-3.7319,-3.7998,-3.8566,-3.9058,-3.8655,-3.8204,-3.7627,-3.7097,-3.6314,-3.5382,-3.4785,-3.4161,-3.3445,-3.1959,-3.1293,-3.1162,-3.1042,-3.0897,-3.0697,-3.0606,-2.9736,-2.831,-2.5769,-2.3966,-2.2513,-2.1479,-2.1471,0.0,-2.3937,-2.4546,-2.5979,0.0,0.0,-3.0713,-3.3095,-3.4325,-3.512,-3.5804,-3.7599,-3.923,-4.0038,-4.1773,-4.2851,-4.2417,-4.3928,-4.508,-4.508,-4.5678,-4.6157,-4.6307,-4.686,-4.7234,-4.7294,-4.7309,-4.7309,-4.7309,-4.7309,-4.7578,-4.8162,-4.7608,-4.7593,-4.8177,-4.7593,-4.7309,-4.7309,-4.7309,-4.7309,-4.7309,-4.7309,-4.7309,-4.7309,-4.7309,-4.7309,-4.7309,-4.7309,-4.7309,-4.7309,-4.7309,-4.7249,-4.7028,-4.6334,-4.574,-4.5315,-0.9394,-0.9394,-0.9394,-0.9394,-1.0135,-1.0813,-1.1037,-1.2251,-1.3188,-1.3298,-1.3662,-1.4,-1.4271,-1.4209,-1.438,-1.4923,-1.6301,-1.8236,-2.0796,-2.3671,-2.6588,-2.9469,-3.2093,-3.3799,-3.4472,-3.516,-3.5504,-3.5504,-3.5504,-3.5699,-3.6073,-3.6351,-3.6844,-3.7443,-3.8122,-3.8577,-3.8822,-3.8779,-3.8828,-3.8856,-3.8481,-3.7936,-3.7337,-3.584,-3.4469,-3.3131,-3.1302,-3.0561,0.0,-3.0219,-3.0514,-3.1058,-3.1664,-3.0585,-2.8752,-2.6754,-2.5361,-2.4474,-2.4729,0.0,0.0,0.0,-2.8681,-3.0411,-3.2946,-3.376,-3.4397,-3.5878,-3.7345,-3.8437,-3.8721,-4.0053,-4.1339,0.0,-4.312,-4.3943,-4.4062,-4.4781,-4.5155,-4.4766,-4.5319,-4.6037,-4.6815,-4.7145,-4.7459,-4.7848,-4.7878,-4.8042,-4.8416,-4.8446,-4.8566,-4.885,-4.8596,-4.8401,-4.8282,-4.8012,-4.7683,-4.7309,-4.7309,-4.7309,-4.7309,-4.7309,-4.7309,-4.7309,-4.7309,-4.7309,-4.7309,-4.7309,-4.7309,-4.7309,-4.7309,-4.7309,-4.7264,-4.6515,-4.6152,-4.5882,-0.9394,-0.9394,-0.9394,-0.9394,-1.0509,-1.1287,-1.0938,-1.2377,-1.3446,-1.3262,-1.3779,-1.4306,-1.4715,-1.4737,-1.4801,-1.4955,-1.5653,-1.7377,-2.0391,-2.2955,-2.5788,-2.9094,-3.1597,-3.335,-3.4188,-3.5055,-3.5504,-3.5504,-3.5504,-3.5744,-3.6222,-3.6571,-3.6955,-3.7455,-3.8272,-3.868,-3.8676,-3.9284,-3.9419,-3.9334,-3.9201,-3.8796,-3.809,-3.5827,-3.3712,-3.1843,-2.9992,-2.8923,-2.8293,-2.8121,-2.8536,-2.9325,-3.0582,-3.0021,-2.861,-2.7324,-2.6347,-2.5796,-2.6335,0.0,0.0,-3.0076,-3.2387,-3.4495,-3.5039,-3.6404,-3.7749,-3.8377,-3.9798,-4.0935,-4.0935,-4.1863,-4.2836,-4.3494,-4.4152,-4.4691,-4.499,-4.5185,-4.499,-4.4152,-4.4466,-4.52,-4.6367,-4.6815,-4.7384,-4.8222,-4.8282,-4.8566,-4.9224,-4.9269,-4.9359,-4.9523,-4.9359,-4.9119,-4.8835,-4.8476,-4.8057,-4.7578,-4.7399,-4.7309,-4.7309,-4.7309,-4.7309,-4.7309,-4.7309,-4.7309,-4.7309,-4.7309,-4.7309,-4.7309,-4.7309,-4.7309,-4.7264,-4.6721,-4.6545,-4.65,-0.9394,-0.9394,-0.9394,-0.9394,-1.0081,-1.0877,-1.1562,-1.1734,-1.2329,-1.385,-1.4096,-1.41,-1.4135,-1.4135,-1.4135,-1.4135,-1.5353,-1.707,-1.9382,-2.1698,-2.4555,-2.8069,-3.0368,-3.2198,-3.3499,-3.4831,-3.5504,-3.5504,-3.5504,-3.5519,-3.5564,-3.6791,-3.7342,-3.7471,-3.8814,-3.9394,-3.9484,-4.0786,-4.0305,-3.8754,-3.9369,-3.852,-3.6707,-3.4164,-3.1771,-2.9572,-2.8027,-2.6148,-2.4394,-2.459,-2.463,-2.4894,-2.6634,-2.7725,-2.829,-2.7721,-2.6903,-2.6014,0.0,0.0,-3.0031,-3.1937,-3.4403,-3.6911,-3.877,-3.9798,-4.0472,-4.113,-4.1818,-4.2297,-4.2297,-4.2851,-4.3524,-4.4182,-4.484,-4.505,-4.4436,-4.4885,-4.4811,-4.3524,-4.3389,-4.3658,0.0,-4.5589,-4.689,-4.8192,-4.8282,-4.8566,-4.9224,-4.9269,-4.9553,-5.0182,-4.9598,-4.9553,-5.0167,-4.8925,-4.8282,-4.8252,-4.7608,-4.7309,-4.7309,-4.7309,-4.7309,-4.7309,-4.7309,-4.7309,-4.7309,-4.7309,-4.7309,-4.7309,-4.7309,-4.7309,-4.7309,-4.7294,-4.7294,-4.7294,-0.9394,-0.9394,-0.9394,-0.9394,-0.9635,-1.0063,-1.0848,-1.1848,-1.2692,-1.3226,-1.3761,0.0,0.0,0.0,0.0,0.0,-1.4204,-1.5558,-1.739,-1.9892,-2.2517,-2.5221,-2.833,-3.0585,-3.1921,-3.3006,-3.3948,-3.4816,-3.4816,-3.531,-3.6186,-3.658,-3.7015,-3.747,-3.8332,-3.8747,-3.8807,-3.9679,-4.001,-3.9802,-3.9106,-3.8406,-3.7605,-3.523,-3.2176,-2.8741,0.0,-2.3441,-2.2323,-2.2611,-2.2992,-2.3585,-2.4884,-2.5333,-2.554,-2.634,-2.6605,-2.7233,-2.9741,0.0,-3.4277,-3.599,-3.7768,-3.9379,-4.0472,-4.1235,-4.1519,-4.0861,-4.1938,-4.2342,-4.0127,-4.122,-4.2596,-4.2955,-4.3928,-4.502,-4.6142,-4.6112,-4.5334,-4.3584,-4.3733,0.0,0.0,0.0,0.0,-4.7534,-4.8446,-4.9224,-4.9883,-5.0316,-5.0661,-5.0885,-5.0676,-5.0451,-5.0242,-4.9374,-4.8716,-4.8282,-4.7623,-4.7309,-4.7309,-4.7309,-4.7309,-4.7309,-4.7309,-4.7309,-4.7309,-4.7309,-4.7309,-4.7309,-4.7309,-4.7309,-4.7309,-4.7309,-4.7309,-4.7309,0.0,-0.9394,-0.9394,-0.9394,-0.9394,0.0,0.0,0.0,0.0,0.0,0.0,0.0,0.0,0.0,0.0,0.0,0.0,-1.474,-1.6267,-1.8329,-2.0475,-2.2649,-2.5768,-2.7953,-2.9026,-3.0262,-3.1302,-3.2155,-3.2658,-3.3364,-3.4252,-3.4796,-3.5344,-3.6066,-3.6721,-3.7128,-3.7398,-3.7808,-3.7838,-3.7488,-3.6205,-3.5323,-3.4543,-3.2691,-2.9907,0.0,-2.3636,-2.1675,-2.0478,-2.0763,-2.1307,-2.203,-2.3139,-2.4108,-2.5049,-2.608,-2.7473,-2.9477,-3.2871,-3.5274,-3.7255,-3.9032,-4.0292,-4.1265,-4.1923,-4.2222,-4.1998,-4.0666,-4.1713,-4.1818,-3.8347,-3.8542,-3.9694,-4.1085,-4.2222,-4.3688,-4.5918,-4.5663,-4.487,-4.3838,-4.3658,-4.3464,0.0,0.0,0.0,-4.7204,-4.8521,-4.9553,-5.0212,-5.087,-5.1214,-5.1214,-5.1214,-5.1005,-5.0586,-4.9942,-4.9284,-4.8626,-4.7967,-4.7653,-4.7653,-4.7414,-4.7309,-4.7309,-4.7309,-4.7309,-4.7309,-4.7309,-4.7309,-4.7309,-4.7309,-4.7309,-4.7309,-4.7309,-4.7309,-4.7309,0.0,0.0,-0.9394,0.0,0.0,0.0,0.0,0.0,0.0,0.0,0.0,0.0,0.0,0.0,0.0,0.0,0.0,0.0,-1.5904,-1.701,-1.8491,-2.0438,-2.2769,-2.4358,-2.5062,-2.6866,-2.7834,-2.7914,-2.92,-2.9855,-3.0072,-3.1399,-3.2392,-3.3168,-3.3834,-3.4485,-3.5055,-3.5055,-3.4014,-3.2197,-3.1182,-2.9741,-2.8165,-2.7008,-2.535,-2.3417,-2.2559,-2.0803,-1.893,-1.917,-1.9728,-2.0526,-2.1682,-2.4202,-2.6789,-2.7187,-2.9652,-3.2704,-3.4767,-3.6958,-3.911,-4.104,-4.1998,-4.2611,-4.3165,-4.2761,-4.1878,-4.0487,-4.092,-4.0457,0.0,0.0,-3.534,-3.8811,-4.0023,-4.1459,-4.4107,-4.3928,-4.3748,0.0,0.0,0.0,0.0,0.0,0.0,-4.7204,0.0,-4.9538,-5.0152,-5.084,-5.1214,-5.1214,-5.1214,-5.1214,-5.1214,-5.0586,-4.9927,-4.9254,-4.8596,-4.8282,-4.8267,-4.7608,-4.7309,-4.7309,-4.7309,-4.7309,-4.7309,-4.7309,-4.7324,-4.7354,-4.7354,-4.7369,-4.7486,-4.7369,-4.7354,-4.7339,0.0,0.0,0.0,0.0,0.0,0.0,0.0,0.0,0.0,0.0,0.0,0.0,0.0,0.0,0.0,0.0,0.0,0.0,-1.4595,-1.5801,-1.6997,-1.8118,-2.0368,-2.217,-2.3407,-2.458,-2.5614,-2.6582,-2.6924,-2.738,-2.7886,-2.8046,-2.8232,-2.8437,-2.8933,-2.921,-2.9316,-2.9316,-2.9394,-2.9458,-2.8926,-2.8978,-2.9014,-2.6311,-2.4354,-2.2753,-2.0855,-1.9748,-1.9253,0.0,0.0,0.0,0.0,-2.6495,-2.8387,-3.0701,-3.2744,-3.4984,-3.8737,-4.0904,-4.2312,-4.3314,-4.3688,-4.3599,-4.2791,-4.1728,-4.0247,-3.7958,-3.6252,-3.4532,0.0,0.0,0.0,-3.8167,-4.0861,0.0,-4.6172,-4.6396,0.0,0.0,0.0,-4.505,-4.4377,-4.5379,0.0,0.0,-4.8521,-4.9344,-4.9508,-5.0601,-5.1214,-5.1214,-5.1214,-5.1214,-5.1214,-5.0579,-4.9923,-4.9254,-4.8596,-4.8282,-4.8267,-4.7608,-4.7309,-4.7309,-4.7309,-4.7309,-4.7309,-4.7309,-4.7737,-4.8404,-4.8404,-4.8864,-4.9489,-4.8743,-4.8404,-4.8343,0.0,0.0,0.0,0.0,0.0,0.0,0.0,0.0,0.0,0.0,0.0,0.0,0.0,0.0,0.0,0.0,0.0,0.0,0.0,-1.5132,-1.595,-1.6392,-1.7962,-1.9172,-1.9969,-2.111,-2.1886,-2.2245,-2.3539,-2.4232,-2.4303,-2.4846,-2.5225,-2.5509,-2.5759,-2.5975,-2.6137,-2.5843,-2.5889,0.0,0.0,-2.4896,-2.4735,-2.2581,-2.1411,-2.0762,-1.9493,-1.9842,0.0,0.0,0.0,-2.5818,-2.781,-2.962,-3.1481,-3.363,0.0,-3.7945,-4.1024,-4.297,-4.4212,-4.4287,-4.4092,-4.3314,-4.1115,-3.9619,-3.7689,-3.4173,-3.23,0.0,0.0,0.0,0.0,0.0,0.0,0.0,-4.5544,-4.6501,-4.6815,0.0,-4.695,0.0,-4.6531,-4.7174,-4.7743,0.0,-4.8895,-4.9374,-4.9704,-5.0646,-5.1214,-5.1214,-5.1214,-5.1214,-5.1214,-5.0817,-5.0445,-5.0107,-4.9164,-4.876,-4.8731,-4.804,-4.756,-4.7324,0.0,-4.7546,-4.7309,-4.7309,-4.7914,-4.8769,-4.8838,-4.9488,-5.0294,-4.974,-4.9237,-4.8804,0.0,0.0,0.0,0.0,0.0,0.0,0.0,0.0,0.0,0.0,-1.3194,-1.3384,0.0,0.0,0.0,0.0,0.0,0.0,0.0,0.0,-1.5184,-1.5291,-1.5916,-1.629,-1.6397,-1.7701,-1.7998,-1.7188,-1.9958,-2.0956,-2.0312,-2.171,-2.2703,-2.3243,-2.3191,-2.3458,-2.3835,-2.3283,-2.2845,-2.235,-2.1023,-1.9841,-1.88,0.0,-1.8211,-1.8561,-1.8619,0.0,0.0,0.0,-2.6123,-2.8102,-3.0748,-3.3158,-3.527,-3.6516,-3.8561,-4.0801,-4.2402,-4.4032,-4.517,-4.4661,-4.3838,-4.2297,-3.9005,-3.7075,-3.4696,-3.0238,0.0,-2.8252,-2.6711,0.0,-2.9644,-3.4025,0.0,-4.0053,-4.4018,-4.5663,-4.692,-4.8132,-4.8356,-4.8641,-4.9209,-4.9269,-4.9329,-4.9433,-4.9389,-4.9659,-5.02,-5.0795,-5.1214,-5.1214,-5.1214,-5.1169,-5.1065,-5.1169,-5.1169,-5.1065,-4.9927,-4.9464,-4.9416,-4.8741,-4.8106,-4.7486,-4.8004,0.0,-4.7501,-4.7339,-4.7959,-4.898,-4.9006,-4.9675,-5.0626,-5.0626,-4.9973,-4.9289,0.0,0.0,0.0,0.0,0.0,0.0,0.0,0.0,0.0,0.0,-1.2085,-1.2261,0.0,0.0,0.0,0.0,0.0,0.0,0.0,0.0,0.0,-1.5273,-1.5416,-1.5773,-1.6397,-1.7291,-1.7363,-1.6563,-1.841,-1.8889,-1.8146,-1.8878,-1.9255,-1.9359,-1.9066,-1.9,-1.9068,-1.8809,-1.8826,-1.9002,-1.8599,-1.8517,-1.8638,-1.8455,0.0,0.0,0.0,0.0,0.0,0.0,-2.7608,-3.1818,-3.4025,-3.6111,-3.8212,-4.0606,-4.0964,-4.1354,-4.4511,-4.5334,-4.5364,-4.5648,-4.3973,-4.1429,-3.8287,-3.531,0.0,0.0,-2.6408,-2.5166,-2.5676,-2.7448,0.0,-3.5359,0.0,0.0,0.0,0.0,-4.7414,0.0,0.0,0.0,0.0,0.0,0.0,0.0,0.0,-5.0095,-5.0216,-5.0813,-5.1214,-5.1214,-5.1214,-5.0915,-5.0393,-5.09,-5.0945,-5.0406,-5.0184,-5.0049,-5.0049,-4.9413,-4.8773,-4.8136,-4.8211,0.0,-4.8434,-4.7677,-4.8404,-5.0097,-5.0131,-5.0726,-5.1648,-5.1648,-5.1508,-5.1261,0.0,0.0,0.0,0.0,0.0,0.0,0.0,-1.0425,-1.08,-1.2215,-1.1994,-1.2169,-1.3405,-1.3542,-1.3636,0.0,0.0,0.0,0.0,0.0,0.0,-1.4455,0.0,0.0,-1.5092,-1.5971,0.0,0.0,0.0,-1.7879,-1.7364,0.0,0.0,-1.8345,-1.8293,-1.8255,-1.8252,-1.8128,-1.8208,-1.8408,-1.8293,-1.843,-1.8695,0.0,0.0,0.0,0.0,0.0,0.0,0.0,-2.8164,-3.331,-3.5737,-3.8078,-4.0232,-4.1743,-4.2626,-4.3479,-4.517,-4.5978,-4.6232,-4.5753,-4.3898,-4.101,-3.6417,0.0,0.0,0.0,-2.379,-2.3181,-2.386,0.0,0.0,0.0,0.0,0.0,0.0,0.0,0.0,0.0,0.0,0.0,0.0,0.0,0.0,0.0,0.0,-5.0723,-5.0725,-5.1068,-5.1214,-5.1214,-5.1214,-5.105,-5.0676,-5.1035,-5.1065,-5.075,-5.0393,-5.0182,-5.0147,-4.988,-4.9189,-4.8357,-4.8709,0.0,-4.8754,-4.8277,-4.9292,-5.1138,-5.0573,-5.132,-5.2674,-5.2135,-5.1917,-5.1897,0.0,0.0,0.0,0.0,0.0,0.0,-1.0242,-1.0096,-1.0448,-1.1932,-1.1916,-1.214,-1.3194,-1.3329,-1.3477,0.0,0.0,0.0,0.0,0.0,0.0,0.0,0.0,0.0,0.0,0.0,0.0,0.0,0.0,0.0,0.0,0.0,0.0,0.0,0.0,0.0,-1.8638,-1.86,-1.8582,0.0,0.0,-1.8696,0.0,0.0,0.0,0.0,0.0,0.0,0.0,0.0,-2.6315,-3.0557,-3.2733,-3.6611,-4.0454,-4.1429,-4.3374,-4.5244,-4.5618,-4.6501,-4.6965,-4.5529,-4.3299,-4.0096,-3.458,-3.1298,0.0,0.0,-2.1842,-2.1837,-2.2415,0.0,0.0,0.0,0.0,0.0,0.0,0.0,0.0,0.0,0.0,0.0,0.0,0.0,0.0,0.0,0.0,0.0,-5.1214,-5.1214,-5.1214,-5.1214,-5.1214,-5.109,-5.1001,-5.109,-5.1139,-5.0975,-5.0633,-5.0388,-5.0441,-5.0411,-4.9719,-4.8521,-4.9312,0.0,0.0,-4.9151,-5.0208,-5.1847,-5.0992,-5.1694,-5.3111,-5.2455,-5.2236,-5.2388,0.0,0.0,0.0,0.0,0.0,0.0,-0.951,-0.9384,-0.9743,-1.1053,-1.1087,-1.1514,-1.2796,-1.3105,-1.3295,0.0,0.0,0.0,0.0,0.0,0.0,0.0,0.0,0.0,0.0,0.0,0.0,0.0,0.0,0.0,0.0,0.0,0.0,0.0,0.0,0.0,0.0,-1.8769,0.0,0.0,0.0,0.0,0.0,0.0,0.0,0.0,0.0,0.0,0.0,0.0,0.0,-2.0184,-2.0436,-2.801,-3.7323,-4.0019,0.0,0.0,-4.6696,-4.7219,-4.689,-4.5185,-4.1609,-3.7533,-3.3819,0.0,0.0,-2.2337,-2.1245,-2.1302,-2.2321,-2.3356,-2.5293,0.0,0.0,-3.4432,0.0,0.0,0.0,0.0,0.0,0.0,0.0,0.0,0.0,0.0,0.0,0.0,-5.1214,-5.1214,-5.1214,-5.1214,-5.1214,-5.0956,-5.0317,-5.0862,-5.087,-5.0289,-5.0825,-5.1124,-5.1061,-5.1158,-5.0381,-4.9292,-5.0226,0.0,0.0,-5.0277,-5.0911,-5.1849,-5.1829,-5.1848,-5.2153,-5.3026,-5.3332,-5.3332,0.0,0.0,0.0,0.0,0.0,0.0,-1.0117,-1.076,-1.1395,-1.1761,-1.2053,-1.2389,-1.2842,-1.3033,-1.3209,-1.3412,-1.3478,0.0,0.0,0.0,0.0,0.0,0.0,0.0,0.0,0.0,-1.4429,-1.4986,0.0,0.0,0.0,0.0,0.0,0.0,0.0,0.0,0.0,0.0,0.0,0.0,0.0,0.0,0.0,0.0,0.0,0.0,0.0,0.0,0.0,0.0,0.0,0.0,-1.8788,-2.3351,0.0,0.0,-3.9602,-4.4032,-4.4721,-4.6082,-4.6845,-4.4945,-4.1953,-3.8222,-3.3396,0.0,-2.6,-2.2457,-2.1286,-2.1068,-2.1674,-2.2444,-2.3775,-2.61,-2.7343,0.0,0.0,0.0,0.0,0.0,0.0,0.0,0.0,0.0,0.0,0.0,0.0,0.0,-5.1214,-5.1214,-5.1214,-5.1214,-5.1214,-5.1046,-5.0803,-5.1046,-5.1065,-5.078,-5.1079,-5.1214,-5.1214,-5.1214,-5.053,-4.9351,-5.0391,0.0,0.0,-5.1032,-5.1917,-5.2775,-5.2169,-5.2285,-5.287,-5.2627,-5.2956,-5.3501,0.0,0.0,0.0,0.0,0.0,-1.0609,-1.0609,-1.1559,-1.2317,-1.2361,-1.2669,-1.2924,-1.2983,-1.3138,-1.3294,-1.3429,-1.3429,0.0,0.0,0.0,0.0,0.0,0.0,0.0,0.0,0.0,-1.3952,-1.4607,-1.4726,0.0,0.0,0.0,0.0,0.0,0.0,0.0,0.0,0.0,0.0,0.0,0.0,0.0,0.0,0.0,0.0,0.0,0.0,0.0,0.0,0.0,0.0,0.0,0.0,0.0,0.0,0.0,-3.5385,-4.057,-4.1295,-4.3588,-4.5454,-4.3853,-4.125,-3.7729,0.0,0.0,-2.5509,-2.2385,-2.1358,-2.1071,-2.1277,-2.173,-2.2539,-2.3964,-2.5006,-2.7375,0.0,0.0,0.0,0.0,0.0,0.0,0.0,0.0,0.0,0.0,0.0,0.0,0.0,-5.1214,-5.1214,-5.1214,-5.1214,-5.1214,-5.1214,-5.1001,-5.0862,-5.0862,-5.0862,-5.0862,-5.0862,-5.0862,-5.0332,-4.9336,-5.018,0.0,0.0,-5.148,-5.2505,-5.345,-5.2691,-5.2809,-5.3433,-5.2627,-5.287,-5.3501,0.0,0.0,0.0,0.0,0.0,-1.0609,-1.0609,-1.1174,-1.1814,-1.2425,-1.2442,-1.2612,-1.3143,-1.3379,-1.3496,-1.3512,-1.3494,0.0,0.0,0.0,0.0,0.0,0.0,0.0,-1.3396,-1.3396,-1.3413,-1.3413,-1.3413,-1.492,-1.7726,-1.4802,0.0,0.0,0.0,0.0,0.0,0.0,0.0,0.0,0.0,0.0,0.0,0.0,0.0,0.0,0.0,0.0,0.0,0.0,0.0,0.0,0.0,-1.8892,-2.0329,0.0,-3.0149,-3.4264,-3.6532,-3.9737,-4.2252,-4.1579,-3.8717,-3.5095,0.0,0.0,-2.422,-2.1811,-2.1294,-2.1309,-2.1309,-2.1325,-2.1795,-2.3286,-2.5511,-2.8268,0.0,0.0,0.0,0.0,0.0,0.0,0.0,0.0,0.0,0.0,0.0,0.0,0.0,-5.1214,-5.1214,-5.1214,-5.1214,-5.1214,-5.1214,-5.0545,-5.0179,-5.0179,-5.0179,-5.0179,-5.0179,-5.0179,-4.9893,0.0,0.0,0.0,0.0,-5.148,-5.2505,-5.3501,-5.3501,-5.3501,-5.3501,-5.3501,-5.3501,-5.3501,0.0,0.0,0.0,0.0,0.0,0.0,-1.1259,-1.1522,-1.2078,-1.3238,-1.2898,-1.2712,-1.321,-1.3445,-1.351,-1.3379,-1.3462,0.0,0.0,0.0,0.0,0.0,0.0,0.0,-1.3396,-1.3396,-1.3396,-1.3396,-1.3396,-1.4902,-1.7794,-1.6847,-1.6915,-1.7777,0.0,0.0,0.0,0.0,0.0,0.0,0.0,0.0,0.0,0.0,0.0,0.0,0.0,0.0,0.0,0.0,0.0,0.0,0.0,0.0,0.0,-2.1012,-2.4875,-2.8967,-3.1204,-3.3628,-3.5278,-3.403,-3.2566,-3.0554,-2.73,0.0,-2.2703,-2.0973,-2.049,-2.0382,-2.0582,-2.1001,-2.2149,-2.4716,-2.5805,-2.7595,0.0,0.0,0.0,0.0,0.0,0.0,0.0,0.0,0.0,0.0,0.0,0.0,0.0,-5.0773,-5.0758,-5.1214,-5.0773,-5.0545,-5.0545,-4.9907,-4.9622,-4.9611,-4.9611,-4.9553,-4.9622,-4.9622,-4.9201,0.0,0.0,0.0,0.0,-5.148,-5.2505,-5.3501,-5.3501,-5.3501,-5.3501,-5.3501,-5.3501,-5.3501,0.0,0.0,0.0,0.0,0.0,0.0,-1.158,-1.1955,-1.2583,-1.3722,-1.3166,-1.2889,-1.3456,-1.3377,-1.3372,-1.3559,-1.3622,0.0,0.0,0.0,0.0,0.0,0.0,0.0,-1.3396,-1.3396,-1.3955,-1.5054,-1.5054,-1.6001,-1.7811,-1.7811,-1.7811,-1.776,-1.7068,-1.6273,0.0,0.0,0.0,0.0,0.0,0.0,-1.8677,0.0,0.0,0.0,0.0,0.0,0.0,0.0,0.0,0.0,0.0,0.0,0.0,0.0,-2.0699,-2.3629,-2.6581,-2.8931,-3.0274,-2.9311,-2.8319,-2.6976,0.0,0.0,-2.1286,-2.0102,-1.9975,-2.0108,-2.0275,-2.0855,-2.2117,-2.4579,-2.562,0.0,0.0,0.0,0.0,0.0,0.0,0.0,0.0,0.0,0.0,0.0,0.0,0.0,0.0,-5.0072,-5.0012,-5.0468,-5.005,-4.9872,-4.9823,-4.9267,-4.8925,-4.8966,-4.8966,-4.8877,-4.8906,-4.8906,-4.8671,0.0,0.0,0.0,0.0,-5.1101,-5.2186,-5.3501,-5.3501,-5.3501,-5.3501,-5.3501,-5.3501,-5.3501,0.0,0.0,0.0,0.0,0.0,0.0,0.0,-1.221,-1.2934,-1.3729,-1.3187,-1.3002,-1.371,-1.3239,-1.3187,-1.3931,-1.3938,0.0,0.0,0.0,0.0,0.0,0.0,-1.3446,-1.3446,-1.3413,-1.4733,-1.7507,-1.771,-1.7811,-1.7811,-1.7811,-1.7811,-1.7693,-1.4936,-1.5592,0.0,0.0,0.0,0.0,-1.7599,-1.7881,0.0,0.0,0.0,0.0,0.0,0.0,0.0,0.0,0.0,0.0,0.0,0.0,0.0,0.0,0.0,0.0,0.0,-2.5123,-2.6653,-2.6518,-2.5404,-2.4004,-2.2661,0.0,0.0,0.0,0.0,-2.0256,-2.0353,-2.0936,-2.194,-2.3541,0.0,0.0,0.0,0.0,0.0,0.0,0.0,0.0,0.0,0.0,0.0,0.0,0.0,0.0,0.0,-4.9284,-4.9194,-4.9208,-4.9203,-4.9161,-4.925,-4.8566,-4.8226,-4.8302,-4.8226,-4.8211,-4.8328,-4.8211,-4.8196,0.0,0.0,0.0,0.0,-5.0415,-5.1631,-5.3501,-5.3501,-5.3501,-5.3501,-5.3501,-5.3501,-5.3501,0.0,0.0,0.0,0.0,0.0,0.0,0.0,0.0,0.0,0.0,-1.2074,-1.2162,-1.2693,-1.3392,-1.3817,0.0,0.0,0.0,0.0,0.0,0.0,0.0,-1.3748,-1.3941,-1.3941,-1.3576,-1.3752,-1.4428,-1.6695,-1.7811,-1.7811,-1.7811,-1.7811,-1.7777,-1.7084,-1.7237,0.0,0.0,0.0,0.0,-1.7848,-1.7819,0.0,0.0,0.0,0.0,-1.8109,-1.8339,0.0,0.0,0.0,0.0,0.0,0.0,0.0,0.0,-1.7811,-1.7996,-1.8891,0.0,-1.9712,-1.9537,-1.9553,-1.9578,0.0,0.0,0.0,0.0,0.0,0.0,0.0,0.0,0.0,0.0,0.0,0.0,0.0,0.0,0.0,0.0,0.0,0.0,0.0,0.0,0.0,0.0,0.0,0.0,0.0,-4.8786,-4.8558,-4.8513,-4.8027,-4.7982,-4.8566,-4.7899,-4.7788,-4.8298,-4.7773,-4.7767,-4.8313,-4.7752,-4.7531,0.0,0.0,0.0,-5.0374,-5.0397,-5.1631,-5.3501,-5.3501,-5.3501,-5.3501,-5.3501,-5.3501,-5.3501,0.0,0.0,0.0,0.0,0.0,0.0,0.0,0.0,0.0,0.0,-1.1907,-1.2074,-1.3072,-1.3396,-1.3681,0.0,0.0,0.0,0.0,0.0,0.0,-1.3717,-1.3955,-1.41,-1.41,-1.3853,-1.3608,-1.3396,-1.6356,-1.7698,-1.7465,-1.7465,-1.7465,-1.7489,-1.7698,-1.7811,-1.7693,-1.6364,0.0,-1.7134,-1.7037,0.0,0.0,0.0,0.0,0.0,-1.8269,-1.8459,0.0,-1.8526,-1.8391,-1.827,0.0,0.0,0.0,0.0,-1.7766,-1.7743,-1.7512,-1.7673,-1.7955,-1.8114,-1.8123,-1.8184,-1.8524,0.0,0.0,0.0,0.0,0.0,0.0,0.0,0.0,0.0,0.0,0.0,0.0,0.0,0.0,0.0,0.0,0.0,0.0,0.0,0.0,0.0,0.0,0.0,0.0,-4.8022,-4.7797,-4.7797,-4.7501,-4.7486,-4.7797,-4.7501,-4.7461,-4.7866,-4.7461,-4.7501,-4.7797,-4.7486,-4.7309,0.0,0.0,0.0,-5.0385,-5.0396,-5.1632,-5.3501,-5.3501,-5.3501,-5.3501,-5.3501,-5.3501,-5.3501,0.0,0.0,0.0,0.0,0.0,0.0,0.0,0.0,0.0,0.0,0.0,0.0,0.0,0.0,0.0,0.0,0.0,0.0,0.0,0.0,-1.3713,-1.3984,-1.3984,-1.3984,-1.3984,-1.3984,-1.402,-1.4074,-1.6576,-1.7606,-1.7207,-1.7133,-1.7108,-1.7133,-1.7582,-1.7811,-1.7811,-1.7811,-1.6959,-1.5697,-1.6254,0.0,0.0,0.0,0.0,0.0,0.0,0.0,0.0,-1.836,-1.826,-1.8187,-1.8095,0.0,0.0,0.0,0.0,0.0,-1.7542,-1.8259,-1.9065,-1.9067,-1.8746,-1.854,-1.8956,0.0,0.0,0.0,0.0,0.0,0.0,0.0,0.0,0.0,0.0,0.0,0.0,0.0,0.0,0.0,0.0,0.0,0.0,0.0,0.0,0.0,0.0,0.0,0.0,-4.7309,-4.7309,-4.7309,-4.7309,-4.7309,-4.7309,-4.7309,-4.7354,-4.7459,-4.7354,-4.7354,-4.7459,-4.7354,-4.7309,-4.7309,0.0,0.0,-5.039,-5.0389,-5.1606,-5.3501,-5.3501,-5.3501,-5.3501,-5.3501,-5.3501,-5.3501,0.0,0.0,0.0,0.0,0.0,0.0,0.0,0.0,0.0,0.0,0.0,0.0,0.0,0.0,0.0,0.0,0.0,0.0,0.0,-1.3652,-1.3575,-1.3512,-1.3512,-1.3512,-1.3512,-1.3512,-1.4705,-1.7134,-1.7591,-1.7766,-1.7675,-1.7289,-1.7108,-1.7133,-1.7582,-1.7811,-1.7811,-1.7811,-1.7778,-1.7708,-1.7306,0.0,0.0,0.0,0.0,0.0,0.0,0.0,0.0,-1.818,-1.8031,-1.7861,-1.7856,0.0,0.0,0.0,0.0,0.0,-1.8211,-1.9915,-2.0892,-1.8146,-1.8729,-1.9657,-1.8524,0.0,0.0,0.0,0.0,0.0,0.0,0.0,0.0,0.0,0.0,0.0,0.0,0.0,0.0,0.0,0.0,0.0,0.0,0.0,0.0,0.0,0.0,0.0,0.0,-4.7309,-4.7309,-4.7309,-4.7309,-4.7309,-4.7309,-4.7309,-4.7578,-4.8132,-4.7578,-4.7593,-4.8117,-4.7563,-4.7309,-4.7309,0.0,-4.845,-5.039,-5.0418,-5.1626,-5.3501,-5.3501,-5.3501,-5.3501,-5.3501,-5.3501,-5.3501,0.0,0.0,0.0,0.0,0.0,0.0,0.0,0.0,0.0,0.0,0.0,0.0,0.0,0.0,0.0,0.0,0.0,0.0,0.0,-1.3575,-1.382,-1.4565,-1.3837,-1.3396,-1.3396,-1.4952,-1.6441,-1.7811,-1.7536,-1.7417,-1.7434,-1.7207,-1.7108,-1.7133,-1.7582,-1.7462,-1.6925,-1.753,-1.7182,-1.625,0.0,0.0,0.0,0.0,0.0,0.0,0.0,0.0,0.0,0.0,-1.7936,-1.7944,-1.7833,0.0,0.0,0.0,0.0,0.0,-1.7757,-1.9225,-2.0381,-1.8892,-2.0543,-2.235,-2.1689,0.0,0.0,0.0,0.0,0.0,0.0,0.0,0.0,0.0,0.0,0.0,0.0,0.0,0.0,0.0,0.0,0.0,0.0,0.0,0.0,0.0,0.0,0.0,0.0,0.0,-4.7309,-4.7309,-4.7309,-4.7309,-4.7309,-4.7309,-4.7459,-4.7758,-4.7459,-4.7459,-4.7743,-4.7444,-4.7309,-4.7309,0.0,-4.8446,-5.0418,-5.0367,-5.1604,-5.3501,-5.3501,-5.3501,-5.3501,-5.3501,-5.3501,-5.3501,0.0,0.0,0.0,0.0,0.0,0.0,0.0,0.0,0.0,0.0,0.0,0.0,0.0,0.0,0.0,0.0,0.0,0.0,0.0,-1.3479,-1.4023,-1.5375,-1.4344,-1.3972,-1.4429,-1.6538,-1.7629,-1.7629,-1.7321,-1.6979,-1.6581,-1.6921,-1.7108,-1.7108,-1.7536,-1.7255,-1.6514,-1.7423,-1.6809,-1.5375,0.0,0.0,0.0,0.0,0.0,0.0,0.0,0.0,0.0,0.0,0.0,0.0,0.0,0.0,0.0,-1.7479,-1.7589,-1.7731,-1.7412,-1.8567,-1.9906,-2.0052,-2.1947,-2.3965,-2.4575,0.0,0.0,0.0,0.0,0.0,0.0,0.0,0.0,0.0,0.0,0.0,0.0,0.0,0.0,0.0,0.0,0.0,0.0,0.0,0.0,0.0,0.0,0.0,0.0,0.0,-4.7055,-4.7056,-4.704,-4.7043,-4.704,-4.704,-4.713,-4.7309,-4.7309,-4.7456,-4.7677,-4.7369,-4.7471,-4.7677,-4.7369,-4.8358,-5.0033,-5.0324,-5.1471,-5.318,-5.3433,-5.3501,-5.3501,-5.3501,-5.3501,-5.3501,0.0,0.0,0.0,0.0,0.0,0.0,0.0,0.0,0.0,0.0,0.0,0.0,0.0,0.0,0.0,0.0,0.0,0.0,-1.343,-1.3413,-1.387,-1.4902,-1.4851,-1.5646,-1.7456,-1.7247,-1.7158,-1.7158,-1.7305,-1.6591,-1.5085,-1.6451,-1.7108,-1.7108,-1.7329,-1.7462,-1.7516,-1.7726,-1.7726,-1.7552,-1.7693,0.0,0.0,0.0,0.0,0.0,0.0,0.0,0.0,0.0,0.0,0.0,0.0,0.0,-1.7743,-1.7479,-1.7589,-1.7832,-1.8,-1.9295,-2.073,-2.1179,-2.1663,0.0,-2.4839,-2.5775,0.0,0.0,0.0,0.0,0.0,0.0,0.0,0.0,0.0,0.0,0.0,0.0,0.0,0.0,0.0,0.0,0.0,0.0,0.0,0.0,0.0,0.0,0.0,-4.6706,-4.6376,-4.6364,-4.6401,-4.6334,-4.6346,-4.6346,-4.6691,-4.7309,-4.7309,-4.7767,-4.8626,-4.7737,-4.7782,-4.8626,-4.7722,-4.7929,-4.8956,-4.9994,-5.1026,-5.2135,-5.3079,-5.3501,-5.3501,-5.3501,-5.3501,-5.3501,0.0,0.0,0.0,0.0,0.0,0.0,0.0,0.0,0.0,0.0,0.0,-1.2575,-1.3035,0.0,0.0,0.0,0.0,0.0,-1.3396,-1.3396,-1.3989,-1.5274,-1.4445,-1.5172,-1.7738,-1.7208,-1.6847,-1.6665,-1.7142,-1.7001,-1.6257,-1.5901,-1.5884,-1.6167,-1.6127,-1.6105,-1.622,-1.685,-1.6847,-1.6509,-1.7439,-1.7376,0.0,0.0,0.0,0.0,0.0,0.0,0.0,0.0,-1.7811,-1.7811,-1.7811,-1.7743,-1.7635,-1.7455,-1.7455,-1.7522,-1.7492,-1.9132,-2.0921,-2.1233,0.0,0.0,0.0,0.0,0.0,0.0,0.0,0.0,0.0,0.0,0.0,0.0,0.0,0.0,0.0,0.0,0.0,0.0,0.0,0.0,0.0,0.0,0.0,0.0,0.0,0.0,0.0,-4.604,-4.5689,-4.5669,-4.5713,-4.571,-4.5635,-4.5657,-4.5783,-4.6067,-4.6511,-4.7417,-4.8789,-4.7752,-4.7884,-4.8773,-4.7737,-4.7899,-4.887,-4.9955,-5.0985,-5.1971,-5.306,-5.3501,-5.3501,-5.3501,-5.3501,-5.3501,0.0,0.0,0.0,0.0,0.0,0.0,0.0,0.0,-1.2719,0.0,0.0,0.0,0.0,-1.3067,0.0,0.0,0.0,0.0,-1.3396,-1.3396,-1.3989,-1.5325,-1.4546,-1.5257,-1.776,-1.7216,-1.6815,-1.6675,-1.7109,-1.7224,-1.7092,-1.5975,-1.5645,-1.5943,-1.5792,-1.5713,-1.5762,-1.6486,-1.647,-1.6082,-1.7255,-1.7378,0.0,0.0,0.0,0.0,0.0,0.0,0.0,0.0,-1.7811,-1.7789,-1.7766,-1.7658,-1.7566,-1.7384,-1.7477,-1.756,-1.7339,-1.8649,-2.0332,0.0,0.0,0.0,0.0,0.0,0.0,0.0,0.0,0.0,0.0,0.0,0.0,0.0,0.0,0.0,0.0,0.0,0.0,0.0,0.0,0.0,0.0,0.0,0.0,0.0,0.0,0.0,0.0,-4.535,-4.4951,-4.5005,-4.4974,-4.4966,-4.4974,-4.5005,-4.5117,-4.5311,-4.5522,-4.6795,-4.8951,-4.8137,-4.8527,-4.9713,-4.8758,-4.8641,-4.9423,-5.0458,-5.1472,-5.2456,-5.3246,-5.3501,-5.3501,-5.3501,-5.3501,-5.3501,0.0,0.0,0.0,0.0,0.0,0.0,0.0,0.0,-1.2681,-1.2363,-1.2585,0.0,0.0,0.0,0.0,0.0,0.0,0.0,-1.3396,-1.3396,-1.3853,-1.4851,-1.5358,-1.6306,-1.7777,-1.7344,-1.7175,-1.7281,-1.7166,-1.7108,-1.7083,-1.6815,-1.668,-1.668,-1.6617,-1.6581,-1.6607,-1.6876,-1.6901,-1.6841,-1.732,-1.7415,-1.7344,0.0,0.0,0.0,0.0,0.0,0.0,0.0,-1.7811,-1.7789,-1.7635,-1.7612,-1.7542,-1.7264,-1.7622,-1.8033,-1.7777,-1.7952,0.0,0.0,0.0,0.0,0.0,0.0,0.0,0.0,0.0,0.0,0.0,0.0,0.0,0.0,0.0,0.0,0.0,0.0,0.0,0.0,0.0,0.0,0.0,0.0,0.0,0.0,0.0,0.0,0.0,-4.4682,-4.4284,-4.4263,-4.4312,-4.4288,-4.4302,-4.4325,-4.4659,-4.5307,-4.4614,-4.6122,-4.9408,-4.8932,-4.9892,-5.184,-5.0876,-5.0426,-5.0488,-5.1466,-5.2491,-5.3501,-5.3501,-5.3501,-5.3501,-5.3501,-5.3501,-5.3501,0.0,0.0,0.0,0.0,0.0,0.0,0.0,0.0,-1.2368,-1.2479,-1.2388,0.0,0.0,0.0,0.0,0.0,0.0,0.0,-1.3379,-1.3396,-1.4006,-1.5325,-1.6525,-1.7354,-1.7794,-1.7572,-1.724,-1.6805,-1.6753,-1.6873,-1.7092,-1.629,-1.5968,-1.598,-1.5495,-1.5479,-1.5848,-1.6014,-1.6351,-1.6815,-1.6952,-1.6977,-1.6977,0.0,0.0,0.0,0.0,0.0,0.0,0.0,0.0,0.0,-1.7635,-1.7432,-1.7224,-1.7052,-1.6959,-1.6885,-1.6804,-1.8794,0.0,0.0,0.0,0.0,0.0,0.0,0.0,0.0,0.0,0.0,0.0,0.0,0.0,0.0,0.0,0.0,0.0,0.0,0.0,0.0,0.0,0.0,0.0,0.0,0.0,0.0,0.0,0.0,0.0,-4.3968,-4.3596,-4.3603,-4.3588,-4.3633,-4.3629,-4.3623,-4.3662,-4.3922,-4.4183,-4.5792,-4.8592,-4.7732,-4.8744,-5.1075,-5.0083,-4.9913,-5.0456,-5.1497,-5.2177,-5.2657,-5.2672,-5.2656,-5.2657,-5.2656,-5.301,-5.3501,0.0,0.0,0.0,0.0,0.0,0.0,-1.2327,-1.2332,-1.2368,-1.2282,-1.2102,-1.2169,0.0,0.0,0.0,0.0,0.0,0.0,-1.3396,-1.4514,-1.5544,-1.6441,-1.7166,-1.7566,-1.7566,-1.7236,-1.6837,-1.6449,-1.6728,-1.6975,-1.7125,-1.6386,-1.6022,-1.5965,-1.5474,-1.538,-1.5624,-1.5754,-1.6046,-1.6421,-1.6607,-1.6659,-1.6633,0.0,0.0,0.0,0.0,0.0,0.0,0.0,0.0,0.0,-1.7589,-1.7384,-1.7224,-1.7213,-1.7223,-1.7304,-1.7713,0.0,0.0,0.0,0.0,0.0,0.0,0.0,0.0,0.0,0.0,0.0,0.0,0.0,0.0,0.0,0.0,0.0,0.0,0.0,0.0,0.0,0.0,0.0,0.0,0.0,0.0,0.0,0.0,0.0,0.0,-4.3124,-4.2842,-4.2539,-4.2589,-4.2659,-4.291,-4.2966,-4.3036,-4.3329,-4.4128,-4.5522,-4.7426,-4.741,-4.8677,-5.0955,-5.0343,-5.0342,-5.0725,-5.1339,-5.1723,-5.1833,-5.184,-5.1888,-5.1847,-5.1828,-5.2181,-5.2604,0.0,0.0,-1.2475,-1.2302,0.0,0.0,-1.2302,-1.2617,-1.2629,-1.1906,-1.191,-1.2119,0.0,0.0,0.0,0.0,0.0,0.0,-1.3598,-1.6116,-1.7636,-1.7749,-1.7408,-1.7183,-1.7093,-1.6591,-1.6285,-1.618,-1.6863,-1.7166,-1.7093,-1.6843,-1.6633,-1.6398,-1.6207,-1.6026,-1.5799,-1.5926,-1.5898,-1.5827,-1.6258,-1.6367,-1.6301,-1.6633,0.0,0.0,0.0,0.0,0.0,0.0,0.0,0.0,-1.7432,-1.7361,-1.7396,-1.7572,-1.7916,-1.8517,0.0,0.0,0.0,0.0,0.0,0.0,0.0,0.0,0.0,0.0,0.0,0.0,0.0,0.0,0.0,0.0,0.0,0.0,0.0,0.0,0.0,0.0,0.0,0.0,0.0,0.0,0.0,0.0,0.0,0.0,0.0,-4.2304,-4.2032,-4.146,-4.1359,-4.17,-4.2271,-4.2302,-4.2595,-4.3145,-4.4096,-4.5079,-4.6021,-4.7554,-4.9244,-5.1128,-5.1157,-5.1229,-5.1229,-5.1229,-5.1195,-5.1078,-5.1099,-5.1123,-5.1108,-5.1082,-5.115,-5.1217,0.0,0.0,-1.1955,-1.1912,0.0,0.0,-1.2003,-1.2849,-1.3152,-1.1961,-1.2718,-1.3113,-1.2432,-1.3779,0.0,-1.2924,0.0,0.0,-1.5087,-1.5712,-1.6509,-1.7429,-1.7439,-1.7049,-1.6184,-1.6868,-1.6855,-1.6118,-1.6384,-1.6443,-1.6366,-1.6857,-1.6841,-1.6398,-1.6355,-1.6151,-1.5799,-1.5827,-1.5827,-1.5799,-1.5898,-1.5926,-1.5926,-1.6274,-1.6409,0.0,0.0,0.0,0.0,0.0,0.0,0.0,-1.7076,-1.7002,-1.7009,-1.6939,-1.7139,-1.7639,0.0,0.0,0.0,0.0,0.0,0.0,0.0,0.0,0.0,0.0,0.0,0.0,0.0,0.0,0.0,0.0,0.0,0.0,0.0,0.0,0.0,0.0,0.0,0.0,0.0,0.0,0.0,0.0,0.0,0.0,-4.1685,-4.1641,-4.1565,-4.143,-4.1383,-4.147,-4.1617,-4.1647,-4.168,0.0,-4.2732,-4.3651,-4.4644,-4.6782,-4.8696,-5.0362,-5.0958,-5.1213,-5.1213,-5.1213,-5.0832,-5.0362,-5.0334,-5.0357,-5.0325,-5.0355,-5.071,-5.1217,0.0,0.0,0.0,0.0,0.0,0.0,0.0,0.0,-1.2747,-1.2463,-1.2673,-1.2675,-1.2215,-1.3078,0.0,0.0,-1.3209,-1.3731,-1.4079,-1.4632,-1.534,-1.6217,-1.6499,-1.6338,-1.5669,-1.6098,-1.6071,-1.5521,-1.6016,-1.6174,-1.6052,-1.6595,-1.6623,-1.6262,-1.6262,-1.6095,-1.5799,-1.5799,-1.5799,-1.5799,-1.5799,-1.5799,-1.5827,-1.5983,-1.6067,-1.608,-1.6313,0.0,0.0,0.0,0.0,0.0,0.0,0.0,-1.6801,-1.6975,-1.7073,-1.7532,0.0,0.0,0.0,0.0,0.0,0.0,0.0,0.0,0.0,0.0,0.0,0.0,0.0,0.0,0.0,0.0,0.0,0.0,0.0,0.0,0.0,0.0,0.0,0.0,0.0,0.0,0.0,0.0,0.0,-4.1609,-4.095,-4.0905,-4.0785,-4.0469,-4.042,-4.0565,-4.0906,-4.095,-4.1098,-4.1429,-4.2322,-4.3485,-4.4805,-4.6483,-4.8105,-4.9565,-4.9582,-4.9599,-4.9678,-5.0011,-4.9729,-4.9069,-4.9463,-4.9571,-4.9565,-4.9576,-4.983,-5.0168,0.0,0.0,0.0,0.0,0.0,0.0,0.0,0.0,0.0,-1.3047,-1.2613,-1.2193,-1.2,-1.2301,-1.2453,0.0,0.0,0.0,-1.2648,-1.3751,-1.4667,-1.5214,-1.5524,-1.5524,-1.5199,-1.5197,-1.5092,-1.4902,-1.5814,-1.6149,-1.5965,-1.6291,-1.6301,-1.6095,-1.6067,-1.5955,-1.5799,-1.577,-1.577,-1.5799,-1.5799,-1.5799,-1.5799,-1.5799,-1.5799,-1.5799,-1.5926,-1.608,-1.6219,-1.634,0.0,0.0,0.0,0.0,-1.6653,-1.7096,-1.7188,-1.7654,0.0,0.0,0.0,0.0,0.0,0.0,0.0,0.0,0.0,0.0,0.0,0.0,0.0,0.0,0.0,0.0,0.0,0.0,0.0,0.0,0.0,0.0,0.0,0.0,0.0,0.0,0.0,0.0,0.0,-4.092,-4.0262,-4.0232,-3.9978,-3.9439,-3.9424,-3.9646,-4.0194,-4.0194,-4.0429,-4.0883,-4.1952,-4.3456,-4.5345,-4.606,-4.7251,-4.8572,-4.8,-4.7692,-4.7787,-4.8359,-4.8274,-4.777,-4.8348,-4.8595,-4.8646,-4.8765,-4.8815,-4.8832,0.0,0.0,0.0,0.0,0.0,0.0,0.0,0.0,0.0,0.0,-1.3715,-1.355,-1.1991,-1.3039,-1.336,-1.2158,-1.304,-1.3512,-1.3133,0.0,0.0,-1.6182,-1.5773,-1.5149,-1.4369,-1.5209,-1.5381,-1.4902,-1.5941,-1.62,-1.5735,-1.6317,-1.6409,-1.6095,-1.5911,-1.5826,-1.5799,-1.561,-1.5639,-1.5799,-1.5799,-1.5799,-1.5799,-1.5799,-1.5799,-1.5799,-1.5827,-1.5856,-1.5885,-1.5885,-1.6039,0.0,0.0,0.0,-1.6441,-1.6507,-1.6818,-1.7548,0.0,0.0,0.0,0.0,0.0,0.0,0.0,0.0,0.0,0.0,0.0,0.0,0.0,0.0,0.0,0.0,0.0,0.0,0.0,0.0,0.0,0.0,0.0,0.0,0.0,0.0,0.0,0.0,-4.0531,-4.0247,-3.9589,-3.9544,-3.9514,-3.9424,-3.9424,-3.9439,-3.9499,-3.9499,-3.9324,-3.8834,-4.0436,-4.2407,-4.4528,-4.4791,-4.5671,-4.7079,-4.6988,-4.6972,-4.6955,-4.705,-4.705,-4.6954,-4.7039,-4.7106,-4.7158,-4.7817,-4.8071,-4.8156,0.0,0.0,0.0,0.0,0.0,0.0,0.0,0.0,0.0,0.0,0.0,-1.325,-1.2456,-1.2984,-1.3008,-1.2073,-1.2476,-1.2741,-1.2657,-1.4146,-1.5124,-1.5255,-1.4873,-1.4642,-1.4659,-1.4979,-1.5199,-1.5302,-1.6101,-1.6397,-1.6216,-1.6161,-1.6067,-1.5926,-1.5711,-1.5682,-1.577,-1.5507,-1.5536,-1.5799,-1.5668,-1.5891,-1.6278,-1.5933,-1.5994,-1.6263,-1.5933,-1.5799,-1.5799,-1.5799,-1.5856,-1.5926,-1.5926,0.0,0.0,0.0,-1.6309,0.0,0.0,0.0,0.0,0.0,0.0,0.0,0.0,0.0,0.0,0.0,0.0,0.0,0.0,0.0,0.0,0.0,0.0,0.0,0.0,0.0,0.0,0.0,0.0,0.0,0.0,0.0,0.0,0.0,-3.9275,-3.899,-3.8332,-3.8287,-3.8287,-3.8287,-3.8287,-3.8287,-3.8287,-3.8266,-3.8355,-3.8546,-3.9798,-4.1105,-4.2515,-4.3071,-4.4618,-4.6777,-4.6374,-4.618,-4.6214,-4.6618,-4.6561,-4.6252,-4.6624,-4.6811,-4.6836,-4.7158,-4.7564,-4.797,0.0,0.0,0.0,0.0,0.0,0.0,0.0,0.0,0.0,0.0,0.0,0.0,0.0,0.0,0.0,0.0,-1.2227,-1.2271,-1.2427,-1.3867,-1.472,-1.4752,-1.4397,-1.4444,-1.4955,-1.4841,-1.5003,-1.5524,-1.6103,-1.6421,-1.6517,-1.6039,-1.5799,-1.5799,-1.5551,-1.5522,-1.5654,-1.5358,-1.5388,-1.5668,-1.5564,-1.5915,-1.6419,-1.6157,-1.6365,-1.6673,-1.6084,-1.5921,-1.5921,-1.5698,-1.5668,-1.5712,-1.577,-1.5799,0.0,0.0,0.0,0.0,0.0,0.0,0.0,0.0,0.0,0.0,0.0,0.0,0.0,0.0,0.0,0.0,0.0,0.0,0.0,0.0,0.0,0.0,0.0,0.0,0.0,0.0,0.0,0.0,0.0,0.0,0.0,0.0,-3.8138,-3.7928,-3.7434,-3.7404,-3.7404,-3.7404,-3.7404,-3.7404,-3.7404,-3.7267,-3.7646,-3.8607,-3.9301,-4.0091,-4.1025,-4.193,-4.3525,-4.5597,-4.5043,-4.4946,-4.5167,-4.5722,-4.5625,-4.5206,-4.5957,-4.6227,-4.6244,-4.6438,-4.6861,-4.7403,0.0,0.0,0.0,0.0,0.0,0.0,0.0,0.0,0.0,0.0,0.0,0.0,-1.375,-1.3166,-1.2876,-1.3017,-1.2876,-1.2831,-1.3056,-1.415,-1.5079,-1.5709,-1.5109,0.0,-1.4809,-1.4924,-1.5093,-1.5329,-1.5798,-1.6136,-1.6301,-1.5955,-1.5799,-1.5799,-1.5462,-1.5313,-1.5313,-1.5088,-1.5149,-1.5356,-1.5592,-1.5703,-1.5835,-1.6555,-1.6866,-1.6809,-1.629,-1.6201,-1.6239,-1.5397,-1.5255,-1.5477,-1.5712,-1.5799,-1.5799,0.0,0.0,0.0,0.0,0.0,0.0,0.0,0.0,0.0,0.0,0.0,0.0,0.0,0.0,0.0,0.0,0.0,0.0,0.0,0.0,0.0,0.0,0.0,0.0,0.0,0.0,0.0,0.0,0.0,0.0,0.0,-3.7464,-3.7449,-3.7404,-3.7404,-3.7404,-3.7404,-3.7404,-3.7404,-3.7404,-3.6836,-3.7207,-3.858,-3.8819,-3.9687,-4.1025,-4.193,-4.2371,-4.2506,-4.2472,-4.2861,-4.3521,-4.3572,-4.3572,-4.3623,-4.4384,-4.4688,-4.4812,-4.5507,-4.5784,-4.6017,0.0,0.0,0.0,0.0,0.0,0.0,0.0,0.0,0.0,0.0,0.0,0.0,0.0,-1.3959,-1.3765,-1.2996,-1.3466,-1.4109,-1.4809,-1.5229,-1.5559,-1.5784,-1.5169,-1.4992,-1.5439,-1.5155,-1.5274,-1.581,-1.5945,-1.6052,-1.6179,-1.5913,-1.5741,-1.558,-1.5209,-1.5088,-1.5149,-1.4596,-1.4736,-1.5319,-1.5316,-1.5834,-1.6623,-1.6858,-1.7228,0.0,0.0,0.0,0.0,-1.6409,-1.5983,-1.5638,-1.6311,-1.6371,-1.6202,-1.6338,-1.6532,-1.6861,0.0,0.0,0.0,0.0,0.0,0.0,0.0,0.0,0.0,0.0,0.0,0.0,0.0,0.0,0.0,0.0,0.0,0.0,0.0,0.0,0.0,0.0,0.0,0.0,0.0,0.0,0.0,0.0,0.0,-3.6626,-3.6207,-3.6193,-3.6193,-3.6193,-3.6193,-3.6411,-3.6853,-3.6702,-3.7281,-3.8818,-3.8845,-3.9435,-4.045,-4.0745,-4.1136,-4.1576,-4.1085,-4.1576,-4.2692,-4.2686,-4.2665,-4.2749,-4.3524,-4.3827,-4.3895,-4.471,-4.5264,-4.5784,0.0,0.0,0.0,0.0,0.0,-1.5031,-1.4656,-1.4143,-1.3885,-1.412,0.0,0.0,0.0,0.0,-1.4128,-1.3307,-1.4168,-1.5,-1.5595,-1.5624,-1.5595,-1.5507,-1.5152,-1.5123,-1.5566,-1.5293,-1.5417,-1.5983,-1.5955,-1.5955,-1.5998,-1.5856,-1.5741,-1.558,-1.5165,-1.5013,-1.5043,-1.4722,-1.4842,-1.5285,-1.5721,-1.6241,-1.6832,0.0,0.0,0.0,0.0,0.0,0.0,0.0,-1.6702,-1.6302,-1.6987,-1.6862,-1.6542,-1.665,-1.6712,-1.6756,-1.7012,0.0,0.0,0.0,0.0,0.0,0.0,0.0,0.0,0.0,0.0,0.0,0.0,0.0,0.0,0.0,0.0,0.0,0.0,0.0,0.0,0.0,0.0,0.0,0.0,0.0,0.0,0.0,0.0,0.0,-3.5534,-3.5504,-3.5504,-3.5504,-3.5504,-3.5831,-3.66,-3.6615,-3.735,-3.8908,-3.8908,-3.9315,-4.007,-4.007,-4.0358,-4.0798,-4.029,-4.0798,-4.1912,-4.196,-4.1943,-4.2013,-4.2757,-4.3188,-4.3446,-4.4018,-4.4694,-4.5388,0.0,0.0,-1.383,-1.5007,-1.4799,-1.4385,-1.4197,-1.2852,-1.2104,-1.2819,0.0,0.0,0.0,0.0,0.0,-1.4101,-1.4877,-1.5344,-1.5283,-1.5283,-1.5163,-1.4907,-1.5072,-1.5163,-1.5104,-1.5285,-1.5522,-1.5799,-1.5799,-1.5799,-1.5799,-1.5799,-1.5799,-1.577,-1.5329,-1.5074,-1.5041,-1.5491,-1.5494,-1.5339,0.0,-1.6859,-1.6355,0.0,0.0,0.0,-1.8271,-1.8345,0.0,0.0,0.0,0.0,0.0,0.0,-1.674,-1.674,-1.6756,-1.6607,0.0,0.0,0.0,0.0,0.0,0.0,0.0,0.0,0.0,0.0,0.0,0.0,0.0,0.0,0.0,0.0,0.0,0.0,0.0,0.0,0.0,0.0,0.0,0.0,0.0,0.0,0.0,0.0,-3.5504,-3.5504,-3.5504,-3.5504,-3.5504,-3.5504,-3.5504,-3.5831,-3.66,-3.66,-3.7424,-3.8908,-3.8908,-3.9315,-4.007,-4.007,-4.007,-4.007,-4.007,-4.0527,-4.115,-4.115,-4.1154,-4.1257,-4.198,-4.2691,-4.3328,-4.3379,-4.3878,-4.4654,0.0,-1.387,-1.453,-1.377,-1.3513,-1.3496,-1.3727,-1.3316,-1.3036,0.0,0.0,0.0,-1.4227,-1.3742,-1.3757,-1.4598,-1.4718,-1.4721,-1.4735,-1.489,-1.489,-1.4627,-1.4859,-1.4966,-1.4887,-1.4949,-1.5149,-1.5507,-1.5507,-1.561,-1.5799,-1.5799,-1.5799,-1.5799,-1.5507,-1.5389,-1.5329,-1.4882,0.0,-1.5462,-1.6179,-1.6712,0.0,0.0,0.0,0.0,0.0,-1.9774,-1.9455,0.0,-1.8776,-1.7557,0.0,0.0,-1.7646,-1.8015,-1.7787,-1.7384,-1.7236,0.0,0.0,0.0,0.0,0.0,0.0,0.0,0.0,0.0,0.0,0.0,0.0,0.0,0.0,0.0,0.0,0.0,0.0,0.0,0.0,0.0,0.0,0.0,0.0,0.0,0.0,0.0,-3.5504,-3.5504,-3.5504,-3.5504,-3.5504,-3.5504,-3.5504,-3.5831,-3.66,-3.716,-3.7962,-3.8908,-3.9489,-3.9901,-4.007,-4.007,-4.007,-4.007,-4.007,-4.0206,-4.0409,-4.0409,-4.0426,-4.0493,-4.1205,-4.1646,-4.1935,-4.3019,-4.3563,-4.3847,-1.2784,-1.3677,-1.4151,-1.3243,-1.3061,-1.3172,-1.3404,-1.3208,-1.2899,0.0,0.0,0.0,-1.4076,-1.3811,-1.3744,-1.4141,-1.4324,-1.4388,-1.431,-1.4438,-1.4406,-1.4149,-1.4356,-1.4452,-1.4433,-1.4465,-1.4718,-1.5149,-1.5239,-1.5389,-1.5639,-1.5741,-1.5799,-1.5799,-1.5668,-1.5639,-1.5595,-1.525,0.0,0.0,-1.6532,0.0,0.0,-1.902,-1.956,0.0,0.0,0.0,-2.0865,-2.0978,-2.0042,0.0,0.0,0.0,-1.8192,-1.8329,-1.818,-1.7959,-1.7757,-1.7608,-1.7533,0.0,0.0,0.0,-2.0124,-2.1814,0.0,0.0,0.0,0.0,0.0,0.0,0.0,0.0,0.0,0.0,0.0,0.0,0.0,0.0,0.0,0.0,0.0,-3.5504,-3.5504,-3.5504,-3.5504,-3.5504,-3.5504,-3.5504,-3.537,-3.5085,-3.5359,-3.5738,-3.6236,-3.6966,-3.7714,-3.8485,-3.8942,-3.9174,-3.9174,-3.9174,-3.9174,-3.9191,-3.9495,-3.9631,-3.9648,-3.9952,-4.007,-4.0155,-4.0578,-4.09,-4.1291,-4.217,-4.2861,-4.3457,0.0,-1.3198,-1.3198,-1.3198,-1.3198,-1.3198,-1.3198,-1.286,-1.2293,0.0,-1.242,-1.356,-1.4511,-1.4208,-1.3735,-1.3323,-1.3828,-1.4092,-1.3934,-1.3934,-1.3835,-1.3581,-1.3775,-1.3861,-1.3868,-1.3967,-1.4259,-1.4732,-1.4921,-1.5134,-1.5359,-1.561,-1.5741,-1.5741,-1.5741,-1.5786,-1.5861,-1.6072,0.0,-1.5451,-1.7407,-1.7678,0.0,0.0,-2.0388,0.0,-2.1192,-2.1895,-2.2234,-2.1681,-2.1138,0.0,0.0,0.0,-1.8649,-1.8214,-1.8404,-1.862,-1.8159,-1.8455,-1.8877,0.0,0.0,0.0,-2.0722,-2.1057,-2.1615,0.0,0.0,0.0,0.0,0.0,0.0,0.0,0.0,0.0,0.0,0.0,0.0,0.0,0.0,0.0,0.0,-3.528,-3.528,-3.528,-3.528,-3.528,-3.528,-3.528,-3.4996,-3.4382,-3.5049,-3.5439,-3.56,-3.6336,-3.7053,-3.7793,-3.7858,-3.7905,-3.7905,-3.7905,-3.7905,-3.7939,-3.8582,-3.892,-3.9039,-3.9698,-4.0003,-4.007,-4.007,-4.0476,-4.1086,-4.1171,-4.2021,-4.3186,-1.3144,-1.3198,-1.3198,-1.3198,-1.3198,-1.3198,-1.3198,-1.3112,-1.3017,-1.28,-1.3023,-1.3267,-1.3493,-1.3425,-1.348,-1.3835,-1.3581,-1.3404,-1.3357,-1.3547,-1.3547,-1.3301,-1.3527,-1.3615,-1.3581,-1.3615,-1.3802,-1.4227,-1.4501,-1.4752,-1.5013,-1.5254,-1.5403,-1.5403,-1.5403,-1.568,-1.6114,0.0,0.0,-1.6575,-1.7726,0.0,-1.9271,-2.0341,-2.0865,-2.1242,-2.192,-2.2221,-2.2234,0.0,-2.1398,-2.1174,0.0,0.0,0.0,-1.9562,-2.002,-2.0571,0.0,0.0,0.0,0.0,0.0,0.0,-1.939,-2.0429,-2.155,0.0,0.0,0.0,0.0,0.0,0.0,0.0,0.0,0.0,0.0,0.0,0.0,0.0,0.0,0.0,0.0,-3.3888,-3.3888,-3.3888,-3.3888,-3.3888,-3.3888,-3.3888,-3.3829,-3.3694,-3.4331,-3.4709,-3.4727,-3.6039,-3.6767,-3.6936,-3.7565,-3.7905,-3.7905,-3.7905,-3.7905,-3.7922,-3.8058,-3.8447,-3.9005,-3.914,-3.9546,-4.007,-4.007,-4.0189,-4.0375,-4.0984,-4.139,-4.1796,-1.3198,-1.3198,-1.3198,-1.3198,-1.3198,-1.3198,-1.3198,-1.3198,-1.3198,-1.3198,-1.3198,-1.3198,-1.3198,-1.3198,-1.3288,-1.3581,-1.3357,-1.3348,-1.3724,-1.3538,-1.3484,-1.3622,-1.3474,-1.3391,-1.3357,-1.3357,-1.348,-1.3802,-1.4052,-1.431,-1.4501,-1.489,-1.5167,-1.528,-1.5322,-1.5633,-1.6157,0.0,-1.6659,-1.7063,-1.7866,0.0,-1.9535,-2.0652,-2.1418,-2.197,-2.2523,-2.2899,-2.3113,-2.2836,-2.2749,0.0,0.0,-2.0939,-2.1108,0.0,-2.0407,-2.0955,0.0,0.0,0.0,-2.0922,0.0,0.0,0.0,-2.0714,-2.0899,0.0,0.0,0.0,0.0,0.0,0.0,0.0,0.0,0.0,0.0,0.0,0.0,0.0,0.0,0.0,-3.2976,-3.2706,-3.2647,-3.2976,-3.3305,-3.3499,-3.3499,-3.3819,-3.3817,-3.3482,-3.4509,-3.4867,-3.4553,-3.5613,-3.6152,-3.6152,-3.6552,-3.6772,-3.6772,-3.6772,-3.6772,-3.6789,-3.7178,-3.777,-3.8481,-3.8853,-3.9411,-4.007,-4.007,-4.007,-4.0121,-4.0544,-4.0899,-4.1322,-1.3198,-1.3198,-1.3198,-1.3198,-1.3198,-1.3198,-1.3198,-1.3198,-1.3198,-1.3198,-1.3198,-1.3198,-1.3198,-1.3198,-1.3373,-1.3799,-1.3448,-1.3413,-1.3976,-1.375,-1.3736,-1.4036,-1.3699,-1.3511,-1.3511,-1.3446,-1.3452,-1.3612,-1.3767,-1.3901,-1.4032,-1.4657,-1.5073,-1.5216,-1.5505,-1.5829,-1.6263,0.0,0.0,-1.7535,0.0,-1.8763,-1.9146,-2.074,-2.1669,-2.2234,-2.2899,-2.3502,-2.3966,-2.3753,0.0,-2.3728,-2.2146,-2.1888,0.0,0.0,0.0,0.0,0.0,0.0,0.0,0.0,0.0,-2.0431,0.0,0.0,0.0,0.0,0.0,0.0,0.0,0.0,0.0,0.0,0.0,0.0,0.0,0.0,0.0,0.0,0.0,0.0,0.0,-3.1165,-3.1046,-3.1704,-3.2362,-3.2796,-3.2916,-3.3673,-3.3877,-3.3321,-3.4562,-3.4939,-3.4378,-3.4901,-3.5199,-3.5199,-3.5199,-3.5267,-3.5402,-3.5402,-3.5487,-3.5656,-3.6282,-3.6975,-3.7753,-3.8481,-3.9208,-3.9884,-4.002,-4.007,-4.007,-4.007,-4.046,-4.1018,-1.3198,-1.3198,-1.3198,-1.3198,-1.3198,-1.3198,-1.3198,-1.3198,-1.3198,-1.3198,-1.3198,-1.3198,-1.3198,-1.3198,-1.3987,-1.5969,-1.4325,0.0,-1.2889,0.0,-1.4762,-1.3877,-1.4387,-1.4727,-1.4727,-1.4236,-1.3997,-1.402,-1.3758,-1.3648,-1.3682,-1.4749,-1.5121,-1.4905,-1.6223,0.0,0.0,0.0,-1.8719,0.0,-1.9662,-1.9634,0.0,-2.0313,-2.1104,-2.1719,-2.2761,-2.3502,-2.3853,0.0,-2.3175,-2.3791,0.0,-2.2548,-2.2783,0.0,0.0,0.0,0.0,0.0,0.0,0.0,-2.1634,0.0,0.0,0.0,0.0,0.0,0.0,0.0,0.0,0.0,0.0,0.0,0.0,0.0,0.0,0.0,0.0,0.0,0.0,0.0,0.0,-2.8427,-2.8308,-2.8996,-2.9654,-3.0268,-3.0806,-3.2109,-3.2772,-3.2695,-3.3369,-3.3689,-3.3653,-3.3644,-3.366,-3.366,-3.366,-3.3998,-3.4624,-3.4624,-3.4979,-3.5622,-3.5723,-3.6197,-3.6975,-3.7719,-3.8464,-3.9174,-3.9817,-4.007,-4.007,-4.007,-4.0121,-4.0307,-1.2544,-1.2908,-1.3198,-1.3198,-1.3198,-1.3198,-1.3198,-1.3198,-1.3198,-1.3198,-1.3198,-1.4175,-1.676,0.0,0.0,0.0,0.0,-1.3162,0.0,0.0,-1.4672,-1.4577,-1.4774,-1.4826,-1.467,-1.46,-1.4563,-1.4563,-1.4435,-1.4357,-1.4357,-1.5003,-1.5291,-1.5351,-1.6295,0.0,-1.7166,0.0,0.0,0.0,0.0,0.0,0.0,-2.0715,-2.1681,-2.2498,-2.2915,-2.3715,-2.4356,0.0,-2.4017,0.0,0.0,0.0,0.0,0.0,0.0,0.0,0.0,0.0,0.0,0.0,0.0,0.0,-2.1223,0.0,-2.0546,0.0,0.0,0.0,0.0,0.0,0.0,0.0,0.0,0.0,0.0,0.0,0.0,0.0,0.0,0.0,0.0,0.0,0.0,0.0,-2.7694,-2.8308,-2.934,-3.0634,-3.1571,-3.1966,-3.2905,-3.3439,-3.3439,-3.3414,-3.3406,-3.3406,-3.3406,-3.3558,-3.388,-3.4303,-3.4675,-3.4996,-3.5419,-3.6315,-3.7449,-3.777,-3.8582,-3.9648,-3.9952,-4.007,-4.007,-4.007,-4.007,-4.0121,-1.215,-1.2685,-1.3198,-1.3198,-1.3198,-1.3198,-1.3198,-1.3198,-1.3423,-1.4024,-1.3574,0.0,-1.7652,-1.6025,0.0,0.0,-1.4287,-1.4238,0.0,0.0,-1.543,-1.5084,-1.5471,0.0,0.0,-1.4962,-1.5024,-1.5024,-1.4952,-1.4916,-1.4916,-1.5351,-1.5593,-1.5746,0.0,-1.708,-1.7483,0.0,0.0,-1.9271,-1.9813,-2.0206,-2.0564,-2.123,-2.2171,-2.3078,-2.3078,-2.3766,-2.4506,-2.3954,-2.4481,0.0,-2.4469,0.0,0.0,0.0,0.0,0.0,-2.1604,0.0,0.0,0.0,0.0,0.0,0.0,0.0,0.0,0.0,0.0,0.0,0.0,0.0,0.0,-1.8762,0.0,0.0,0.0,0.0,0.0,0.0,0.0,0.0,0.0,0.0,0.0,0.0,0.0,-2.6901,-2.8248,-2.9735,-3.0797,-3.1502,-3.2536,-3.3102,-3.3102,-3.2899,-3.2797,-3.2797,-3.2797,-3.2899,-3.3119,-3.3863,-3.4303,-3.4539,-3.5301,-3.6366,-3.7618,-3.7821,-3.865,-3.98,-4.0003,-4.007,-4.007,-4.007,-4.007,-4.007,-1.2258,-1.2685,-1.3198,-1.3198,-1.3198,-1.3198,-1.3198,-1.3198,-1.3962,-1.6132,0.0,0.0,0.0,0.0,0.0,0.0,0.0,-1.6787,-1.4243,0.0,-1.7784,0.0,0.0,-1.7146,0.0,-1.5524,-1.5364,-1.5364,-1.5062,-1.4916,-1.4928,-1.5787,-1.6004,-1.5784,-1.72,-1.7683,-1.7488,-1.912,-1.9761,-1.9874,-2.0966,-2.1744,-2.2184,0.0,-2.2171,-2.3078,-2.3078,0.0,0.0,-2.3364,-2.3916,0.0,0.0,0.0,0.0,0.0,0.0,0.0,0.0,0.0,0.0,-2.1146,0.0,0.0,0.0,0.0,-2.118,0.0,0.0,0.0,0.0,0.0,-2.0213,-1.8912,-1.8717,0.0,0.0,0.0,0.0,0.0,0.0,0.0,0.0,0.0,0.0,0.0,0.0,0.0,-2.758,-2.9453,-3.0797,-3.1502,-3.2021,-3.2364,-3.2364,-3.1613,-3.1258,-3.1258,-3.1258,-3.163,-3.2341,-3.3102,-3.3829,-3.4539,-3.5301,-3.6079,-3.6874,-3.7601,-3.8345,-3.9106,-3.98,-4.007,-4.007,-4.007,-4.007,-4.007,-1.0954,-1.1737,-1.2627,0.0,0.0,-1.3686,-1.5151,-1.4137,-1.3473,0.0,0.0,0.0,0.0,0.0,-1.6406,0.0,0.0,-1.8848,-1.6826,-1.7345,0.0,0.0,0.0,-1.6915,0.0,0.0,-1.5998,-1.5737,-1.5764,-1.5773,-1.5773,-1.62,-1.633,-1.6271,-1.7169,-1.7713,0.0,0.0,0.0,0.0,0.0,-2.2472,-2.2297,0.0,0.0,-2.3078,-2.3078,-2.3502,0.0,-2.4192,-2.4506,-2.4883,-2.5222,-2.472,-2.4004,-2.4004,-2.359,0.0,0.0,0.0,-2.4845,-2.2811,0.0,0.0,0.0,0.0,0.0,0.0,0.0,0.0,0.0,-2.0313,-1.9265,-1.8608,-1.8242,-1.752,0.0,0.0,0.0,0.0,0.0,0.0,0.0,0.0,0.0,0.0,-2.3626,0.0,-2.7293,-2.8394,-2.9499,-3.0663,-3.1282,-3.1562,-3.1562,-3.1309,-3.119,-3.119,-3.119,-3.1579,-3.2307,-3.3068,-3.3795,-3.4539,-3.5301,-3.6332,-3.755,-3.7804,-3.8616,-3.9732,-3.9986,-4.007,-4.007,-4.007,-4.007,-4.007,-1.0283,-1.1255,0.0,0.0,0.0,0.0,0.0,0.0,0.0,0.0,-1.5859,0.0,-1.6533,0.0,-1.9502,0.0,-2.1562,-2.0098,-1.8994,-1.7945,0.0,-1.7655,-1.7578,0.0,0.0,0.0,0.0,-1.6047,-1.6066,-1.6203,-1.6337,-1.6361,-1.6392,-1.6417,-1.708,-1.779,-1.8581,0.0,-2.0903,0.0,0.0,-2.2865,0.0,0.0,-2.2824,-2.3078,0.0,-2.3376,-2.3778,-2.4343,-2.4657,-2.4908,-2.5435,-2.5121,-2.4569,-2.4569,-2.4305,-2.4092,-2.4469,-2.5347,0.0,-2.4368,-2.4155,0.0,-2.1979,0.0,0.0,0.0,0.0,0.0,0.0,0.0,-1.9454,-1.9232,-1.8493,-1.7471,0.0,-1.6338,0.0,0.0,0.0,0.0,0.0,0.0,0.0,-2.2654,-2.294,-2.4186,0.0,0.0,-2.8718,-2.9865,-3.0744,-3.119,-3.119,-3.119,-3.1326,-3.1579,-3.1326,-3.1715,-3.2696,-3.3186,-3.3795,-3.4539,-3.5301,-3.6332,-3.7533,-3.7787,-3.8616,-3.9715,-3.9969,-4.007,-4.007,-4.007,-4.007,-4.007,-1.041,-1.1356,0.0,0.0,-1.3822,0.0,0.0,0.0,-1.5802,0.0,-2.112,-2.3135,-2.3135,-2.3135,-2.3135,-2.3135,-2.1641,0.0,-2.0576,-1.9004,0.0,0.0,-1.7719,-1.737,-1.6032,0.0,0.0,0.0,0.0,-1.6173,-1.6561,-1.6374,-1.6274,-1.6298,-1.7097,0.0,-1.9046,-1.9597,-2.0778,-2.2359,-2.2852,-2.3078,-2.3078,-2.3078,-2.3078,-2.3078,-2.3078,-2.3078,-2.3165,-2.3803,-2.4343,-2.487,-2.5385,-2.5561,-2.5561,-2.5586,-2.5598,-2.5598,-2.5636,-2.5649,-2.5661,-2.5611,0.0,0.0,0.0,0.0,-2.4377,0.0,0.0,0.0,0.0,0.0,-2.0528,-2.0485,-1.9266,-1.7785,-1.6099,-1.6368,0.0,0.0,0.0,0.0,0.0,0.0,-2.0061,-2.3064,-2.2754,-2.3559,0.0,0.0,-2.8461,-2.9213,-3.0532,-3.119,-3.119,-3.119,-3.1546,-3.2222,-3.1579,-3.2019,-3.3406,-3.344,-3.3863,-3.459,-3.5318,-3.6062,-3.6869,-3.755,-3.8278,-3.9005,-3.9698,-3.9986,-4.007,-4.007,-4.007,-4.007,-1.2207,-1.2483,-1.3052,0.0,-1.4763,-1.4936,0.0,0.0,0.0,0.0,-2.2567,-2.3135,-2.3135,-2.3135,-2.3135,-2.3135,-2.2734,0.0,0.0,0.0,0.0,-1.9668,-1.8587,-1.7511,-1.654,-1.6769,0.0,-1.5612,0.0,-1.6582,-1.6367,-1.6812,-1.7133,-1.7405,-1.7587,0.0,-1.961,-1.9748,-2.0778,-2.2359,-2.2852,-2.3078,0.0,0.0,-2.3078,-2.3078,-2.3078,-2.3078,-2.3165,-2.3803,-2.4092,-2.4305,-2.4858,-2.5021,-2.5096,-2.5485,-2.5598,-2.5686,-2.6126,-2.654,-2.6653,-2.5799,-2.5209,-2.4519,0.0,0.0,0.0,0.0,0.0,0.0,0.0,0.0,0.0,-1.892,-1.8106,-1.7441,0.0,0.0,0.0,-1.7236,0.0,0.0,0.0,0.0,-2.063,-2.1676,-2.231,-2.4013,-2.7225,0.0,0.0,-2.9816,-3.0723,-3.119,-3.119,-3.119,-3.1292,-3.1478,-3.1825,-3.2513,-3.343,-3.3973,-3.4624,-3.5351,-3.5537,-3.6084,-3.6786,-3.6988,-3.7516,-3.821,-3.8396,-3.8817,-3.9325,-3.9918,-4.007,-4.007,-1.2881,0.0,0.0,-1.4722,0.0,0.0,-1.6234,0.0,0.0,-2.2432,-2.3135,0.0,-2.3135,-2.3135,-2.3135,-2.3135,-2.3135,0.0,0.0,0.0,0.0,-2.167,-2.0039,-1.8437,-1.6943,-1.6977,0.0,-1.598,0.0,-1.6647,-1.6792,-1.7064,-1.7253,-1.7472,-1.7959,-1.8672,0.0,-2.0536,-2.1443,-2.2359,-2.2852,0.0,0.0,-2.3078,-2.3078,-2.3078,-2.3078,-2.3078,-2.3128,-2.3514,-2.3791,-2.4092,-2.4644,-2.4971,-2.5272,-2.5812,-2.5975,-2.605,-2.6445,-2.6691,-2.6829,-2.6427,-2.6289,-2.5963,-2.4845,-2.4785,-2.4773,0.0,0.0,0.0,0.0,0.0,0.0,0.0,-1.7768,0.0,0.0,0.0,0.0,0.0,0.0,0.0,0.0,0.0,-2.0426,-2.0862,-2.1724,-2.3212,0.0,0.0,0.0,-2.8901,-3.0718,-3.1533,-3.119,-3.1506,-3.1675,-3.1692,-3.2083,-3.2883,-3.3871,-3.4321,-3.4914,-3.5622,-3.5622,-3.5853,-3.6299,-3.6632,-3.7026,-3.7483,-3.8125,-3.8647,-3.9103,-3.9833,-4.007,-4.007,-1.2881,0.0,0.0,0.0,0.0,0.0,0.0,-1.8682,0.0,-2.2139,0.0,-2.2637,-2.3086,-2.3135,-2.3135,-2.3135,0.0,-2.3135,-2.3135,-2.3135,-2.3037,-2.2812,-2.1367,-1.959,-1.7519,-1.71,0.0,0.0,0.0,-1.6559,-1.7304,-1.7178,-1.717,-1.7243,0.0,0.0,0.0,-2.1494,-2.2272,-2.2259,-2.2887,-2.3078,-2.3078,-2.3078,-2.3078,-2.3078,-2.3078,-2.3078,-2.3078,-2.3078,-2.3477,-2.3966,-2.4443,-2.4908,-2.5398,-2.605,-2.6251,-2.6276,-2.6483,-2.6533,-2.6647,-2.7055,-2.7544,-2.7645,-2.6678,-2.6829,-2.6892,-2.5912,-2.413,-2.3125,0.0,0.0,0.0,0.0,0.0,0.0,0.0,0.0,0.0,0.0,0.0,0.0,0.0,0.0,-1.9864,-2.0571,-2.1144,-2.1913,0.0,0.0,0.0,-2.7702,-3.0606,-3.1866,-3.1371,0.0,-3.2208,-3.2317,-3.2309,-3.3025,-3.4343,-3.4447,-3.4907,-3.5622,-3.5622,-3.5622,-3.5673,-3.6349,-3.662,-3.6772,-3.8278,-3.8885,-3.8952,-3.9816,-4.007,-4.007,0.0,0.0,0.0,0.0,0.0,-1.5319,-2.1279,-2.2236,-2.1435,-1.9199,-1.8906,-1.999,-2.2832,-2.3135,-2.3135,-2.3135,-2.3135,0.0,0.0,0.0,0.0,-2.1084,-2.0723,-2.0156,-1.9297,-1.8301,-1.7252,0.0,-1.6877,-1.7052,-1.6914,-1.7585,-1.8024,-1.8342,0.0,0.0,-1.9859,-2.155,0.0,-2.1719,-2.2736,-2.3078,-2.3078,-2.3078,-2.3078,-2.3078,-2.3078,-2.3078,-2.3078,-2.3078,-2.314,-2.324,-2.3401,-2.3489,-2.3766,-2.4808,-2.5109,-2.531,-2.6214,-2.6533,-2.6546,-2.6647,-2.6747,-2.6703,-2.6571,-2.6596,-2.6553,-2.6352,-2.5624,-2.4695,-2.3627,0.0,0.0,0.0,0.0,0.0,0.0,0.0,0.0,0.0,0.0,0.0,0.0,0.0,0.0,0.0,0.0,0.0,0.0,0.0,0.0,0.0,-3.0458,0.0,0.0,0.0,-3.1726,-3.2287,-3.2317,-3.2757,-3.3634,-3.4196,-3.4897,-3.5622,-3.5622,-3.5622,-3.5639,-3.5774,-3.5825,-3.5977,-3.7499,-3.8094,-3.8282,-3.9614,-4.007,-4.007,0.0,0.0,0.0,0.0,0.0,0.0,0.0,-2.3135,0.0,-2.0889,-2.0674,-2.1299,-2.2959,-2.3135,-2.3135,-2.3135,-2.3135,-2.2764,-2.1865,-2.1807,-2.1836,-2.1894,-2.1035,0.0,-2.0176,-1.8965,-1.7829,-1.6757,-1.702,-1.708,-1.72,-1.7579,-1.7963,-1.8367,0.0,-1.9719,0.0,0.0,0.0,-2.1983,-2.2811,-2.3078,-2.3078,-2.3078,-2.3078,-2.3078,-2.3078,-2.3078,-2.3078,-2.3078,-2.3078,-2.3128,-2.3489,-2.359,-2.3803,-2.4895,-2.5222,-2.541,-2.6239,-2.6533,-2.6533,-2.6533,-2.6747,-2.6816,-2.6596,-2.6747,-2.6804,-2.6584,-2.6,-2.5184,-2.3828,-2.2349,0.0,0.0,0.0,0.0,0.0,0.0,0.0,0.0,0.0,0.0,0.0,0.0,0.0,0.0,0.0,0.0,0.0,0.0,0.0,0.0,0.0,0.0,0.0,0.0,0.0,-3.1844,-3.2536,-3.326,-3.4007,-3.4752,-3.5279,-3.5622,-3.5622,-3.5622,-3.5622,-3.5622,-3.5622,-3.5774,-3.7313,-3.7877,-3.8098,-3.953,-4.007,-4.007,0.0,-1.4336,0.0,0.0,-1.6084,0.0,-2.2519,-2.3135,-2.3135,-2.3135,-2.3135,-2.3135,-2.3135,-2.3135,-2.3135,-2.3135,-2.3135,-2.2559,-2.1201,-2.1113,-2.1719,-2.3076,-2.166,-2.0762,-2.0566,-1.9297,-1.8222,0.0,-1.7043,-1.7015,-1.7455,-1.7467,-1.7855,0.0,0.0,0.0,0.0,0.0,-2.2309,-2.2359,-2.2852,-2.3078,-2.3078,-2.3078,-2.3078,-2.3078,-2.3078,-2.3078,-2.3078,-2.3078,-2.3078,-2.3153,-2.3665,-2.3816,-2.4029,-2.5109,-2.5435,-2.5586,-2.6345,-2.6533,-2.6533,-2.6533,-2.6791,-2.6992,-2.6634,-2.6804,-2.6979,-2.6622,-2.5912,-2.5209,-2.4469,-2.3427,0.0,0.0,0.0,0.0,0.0,0.0,0.0,0.0,0.0,0.0,0.0,0.0,0.0,0.0,0.0,0.0,0.0,0.0,0.0,0.0,0.0,-3.0452,-2.9826,0.0,-3.1381,-3.1867,-3.2731,-3.3605,-3.4507,-3.512,-3.5459,-3.5622,-3.5622,-3.5622,-3.5622,-3.5622,-3.5723,-3.6011,-3.7364,-3.801,-3.8267,-3.9631,-4.007,-4.007,0.0,0.0,0.0,0.0,0.0,0.0,0.0,-2.3135,-2.3135,-2.3135,-2.3135,-2.3135,-2.3135,-2.3135,-2.3135,-2.3135,-2.3135,-2.3066,-2.291,-2.29,-2.2969,-2.3135,-2.2256,-2.1387,-2.0586,-1.9297,-1.8389,0.0,-1.7171,-1.7005,-1.7424,-1.7453,-1.8258,0.0,0.0,0.0,0.0,-2.2058,-2.2309,-2.2359,-2.2852,-2.3078,-2.3078,-2.3078,-2.3078,-2.3078,-2.3078,-2.3078,-2.3078,-2.3078,-2.3078,-2.3078,-2.3201,-2.3153,-2.3439,-2.4556,-2.4895,-2.5121,-2.6176,-2.6533,-2.6533,-2.6533,-2.6571,-2.6596,-2.6533,-2.6571,-2.6596,-2.6533,-2.5624,-2.5008,-2.5372,-2.4569,-2.3816,0.0,0.0,0.0,0.0,0.0,0.0,0.0,0.0,0.0,0.0,-2.2727,0.0,0.0,0.0,0.0,0.0,0.0,0.0,-2.8026,0.0,-2.9452,-3.1124,-3.0639,-3.1361,-3.3304,-3.2679,-3.3161,-3.4499,-3.457,-3.497,-3.5622,-3.5622,-3.5622,-3.5622,-3.5622,-3.6028,-3.6755,-3.7584,-3.8311,-3.9005,-3.9783,-4.007,-4.007,0.0,0.0,0.0,0.0,0.0,0.0,0.0,-2.3135,-2.3135,-2.3135,-2.3135,-2.3135,-2.3135,-2.3135,-2.3135,-2.3135,-2.3135,-2.3135,-2.3135,-2.3135,-2.3135,-2.3135,-2.2158,-2.1602,-2.1602,-2.0156,-1.9199,0.0,0.0,0.0,0.0,-1.7413,0.0,0.0,0.0,-1.9849,-2.0487,-2.1584,-2.2068,-2.214,-2.2797,-2.3078,-2.3078,-2.3078,-2.3078,-2.3078,-2.3078,-2.3078,-2.3078,-2.3078,-2.3078,-2.3078,-2.3078,-2.3078,-2.329,-2.4494,-2.482,-2.5059,-2.6163,-2.6533,-2.6533,-2.6533,-2.6533,-2.6533,-2.6533,-2.6533,-2.6533,-2.6533,-2.6113,-2.5674,-2.5222,-2.4782,-2.4268,0.0,0.0,0.0,0.0,0.0,0.0,0.0,0.0,0.0,0.0,0.0,0.0,0.0,0.0,0.0,0.0,0.0,0.0,-2.7221,0.0,-2.9149,-2.9504,-3.0022,-3.1193,-3.2896,-3.2937,-3.3708,-3.5152,-3.5172,-3.5313,-3.5622,-3.5622,-3.5622,-3.5622,-3.5622,-3.6079,-3.6857,-3.7618,-3.8345,-3.9089,-3.9817,-4.007,-4.007,-1.4596,0.0,-1.5832,0.0,-1.8664,-2.14,-2.2862,-2.3135,-2.3135,-2.3135,-2.3135,-2.3135,-2.3135,-2.3135,-2.3135,-2.3135,-2.3135,-2.3135,-2.3135,-2.3135,-2.3135,-2.3135,-2.2353,0.0,-2.2285,-2.0986,-2.0098,-1.9668,-1.8672,0.0,0.0,0.0,0.0,0.0,-1.9127,-1.9544,-2.0013,-2.1077,-2.169,-2.1939,-2.2506,-2.2884,-2.3078,-2.3078,-2.3078,-2.3078,-2.3078,-2.3078,-2.3078,-2.3078,-2.3078,-2.3078,-2.3078,-2.319,-2.3577,-2.4544,-2.4933,-2.5259,-2.6201,-2.6533,-2.6533,-2.6533,-2.6533,-2.6533,-2.6533,-2.6533,-2.6533,-2.6533,-2.6395,-2.6013,-2.5423,-2.5159,-2.4745,-2.3791,0.0,0.0,0.0,0.0,0.0,0.0,-2.3421,-2.3412,-2.2743,0.0,0.0,0.0,0.0,0.0,0.0,0.0,0.0,0.0,0.0,0.0,-2.8607,-2.972,-3.1,-3.2484,-3.3117,-3.4044,-3.5296,-3.5493,-3.5622,-3.5622,-3.5622,-3.5712,-3.5949,-3.5949,-3.6552,-3.7483,-3.8024,-3.8667,-3.9377,-3.9884,-4.007,-4.007,-1.5805,-1.5818,-1.5832,-1.5832,-1.5825,-1.7475,-2.2403,-2.3135,-2.3135,-2.3135,-2.3135,-2.3135,-2.3135,-2.3135,-2.3135,-2.3135,-2.3135,-2.3135,-2.3135,-2.3135,-2.3135,0.0,0.0,-2.2852,-2.2305,-2.1592,-2.0996,-2.0547,0.0,0.0,-1.868,0.0,-1.8548,-1.9269,-1.928,-1.9805,-2.0579,-2.059,-2.1112,-2.1877,-2.1877,-2.2384,-2.3078,-2.3078,-2.3078,-2.3078,-2.3078,-2.3078,-2.3078,-2.3078,-2.3078,-2.3078,-2.3078,-2.3527,-2.4104,-2.4657,-2.5184,-2.5711,-2.6302,-2.6533,-2.6533,-2.6533,-2.6533,-2.6533,-2.6533,-2.6533,-2.6533,-2.6533,-2.6,-2.5774,-2.6339,-2.5975,-2.541,-2.4895,0.0,0.0,0.0,0.0,0.0,0.0,-2.3073,-2.3292,-2.2752,0.0,0.0,0.0,0.0,0.0,0.0,0.0,0.0,-2.7345,-2.7471,0.0,-2.9287,-2.9961,-3.101,-3.24,-3.3077,-3.3799,-3.4561,-3.5279,-3.5622,-3.5622,-3.5622,-3.605,-3.681,-3.681,-3.7638,-3.8954,-3.8971,-3.9428,-4.007,-4.007,-4.007,-4.007,-1.5832,-1.5832,-1.5832,-1.5832,-1.8572,-2.1311,-2.2862,-2.3135,-2.3135,-2.3135,-2.3135,-2.3135,-2.3135,-2.3135,-2.3135,0.0,-2.3135,-2.3135,0.0,-2.3135,-2.3135,-2.3135,-2.3135,-2.3057,-2.2871,-2.209,-2.1602,-2.1465,0.0,0.0,0.0,-1.9014,-1.8853,-1.8829,-1.9142,-1.9158,-1.8865,-1.9758,-2.0288,-2.0588,-2.1493,-2.2217,-2.2781,-2.3455,-2.3477,-2.3128,-2.359,-2.3715,-2.3665,-2.3263,-2.3653,-2.4217,-2.3841,-2.3853,-2.4104,-2.4657,-2.5197,-2.5724,-2.637,-2.6533,-2.6533,-2.6533,-2.6533,-2.6533,-2.6533,-2.6533,-2.6533,-2.6533,-2.6382,-2.6316,-2.6686,-2.5817,-2.5064,-2.5078,-2.4262,0.0,0.0,0.0,0.0,0.0,-2.3644,-2.3879,0.0,-2.5027,0.0,0.0,0.0,0.0,0.0,0.0,0.0,0.0,-2.792,0.0,-2.9237,-3.0858,-3.1873,-3.2349,-3.3556,-3.4532,-3.5279,-3.5493,-3.5622,-3.5639,-3.6197,-3.6559,-3.6861,-3.7323,-3.8113,-3.8988,-3.8988,-3.9445,-4.007,-4.007,-4.007,-4.007,-1.5832,-1.5832,-1.5832,-1.5832,-1.8295,-2.0944,-2.2862,-2.3135,-2.3135,-2.3135,-2.3135,-2.3135,-2.3135,-2.3135,0.0,-2.3135,-2.3135,-2.3135,-2.3135,-2.3135,-2.3135,-2.3135,-2.3135,-2.3135,-2.3135,-2.2627,0.0,-2.2119,-2.1074,-2.0205,-1.9521,-1.9365,-1.9141,-1.8896,-1.916,-1.8994,-1.8576,-1.9314,-1.9723,-2.0007,-2.1178,-2.2034,-2.2626,-2.3356,-2.3715,-2.3791,-2.3941,-2.413,-2.4255,-2.3891,-2.4243,-2.4757,-2.4418,-2.4443,-2.4669,-2.5008,-2.5498,-2.6,-2.6433,-2.6533,-2.6533,-2.6533,-2.6533,-2.6533,-2.6533,-2.6533,-2.6533,-2.6533,-2.6533,-2.6544,-2.6698,-2.6038,-2.5524,-2.5472,-2.4786,-2.4164,-2.4015,0.0,0.0,0.0,0.0,0.0,0.0,-2.5682,-2.5809,0.0,0.0,0.0,0.0,0.0,0.0,-2.6483,-2.8146,0.0,-2.927,-3.1056,-3.2083,-3.2336,-3.3795,-3.489,-3.5622,-3.5622,-3.5622,-3.5656,-3.6446,-3.6966,-3.7278,-3.7984,-3.8771,-3.9394,-3.9394,-3.9681,-4.007,-4.007,-4.007,-4.007,-1.5832,-1.5832,-1.5832,0.0,-1.5832,0.0,-2.2315,-2.3135,-2.3135,-2.3135,-2.3135,-2.3135,-2.3135,-2.3135,-2.3135,-2.3135,0.0,0.0,0.0,-2.3135,-2.3135,-2.3135,-2.3135,-2.3135,-2.3135,-2.3135,-2.293,-2.251,-2.1299,-2.0459,-1.999,-1.9609,-1.9394,-1.9336,-1.9365,-1.9346,-1.9287,-1.9316,-1.9584,-1.9996,-2.0862,-2.1815,-2.271,-2.3084,-2.3904,-2.4757,-2.428,-2.4443,-2.487,-2.4833,-2.487,-2.4921,-2.4895,-2.5234,-2.5649,-2.5598,-2.6,-2.6533,-2.6533,-2.6533,-2.6533,-2.6584,-2.6609,-2.6634,-2.6596,-2.6584,-2.6502,-2.6533,-2.6533,-2.6521,-2.6589,-2.6646,-2.6538,-2.606,-2.6053,-2.599,-2.5481,-2.5398,-2.5232,0.0,0.0,0.0,0.0,-2.5982,-2.6632,0.0,0.0,0.0,0.0,0.0,-2.563,-2.7565,-2.8173,-2.8804,-2.9454,-3.081,-3.1849,-3.2529,-3.3866,-3.4905,-3.5622,-3.5622,-3.5622,-3.5656,-3.648,-3.728,-3.7936,-3.8774,-3.9463,-4.007,-4.007,-4.007,-4.007,-4.007,-4.007,-4.007,0.0,0.0,-1.5832,-1.5832,-1.5832,-1.7475,-2.2315,-2.3135,-2.3135,-2.3135,-2.3135,-2.3135,-2.3135,-2.3135,-2.3135,-2.3135,-2.3135,-2.3135,-2.3135,-2.3135,-2.3135,-2.3135,-2.3135,-2.3135,-2.3135,-2.3135,-2.293,-2.251,-2.2207,-2.166,-2.0918,-2.082,-2.042,-1.9775,-2.0117,-1.9893,-1.9307,-1.9629,-1.9772,-1.9972,-2.0863,-2.1823,-2.2811,-2.3949,-2.4594,-2.4858,-2.5121,-2.5297,-2.536,-2.4958,-2.5385,-2.6,-2.5548,-2.5799,-2.6163,-2.5724,-2.6,-2.6533,-2.6533,-2.6533,-2.6634,-2.6979,-2.7406,-2.7607,-2.718,-2.708,-2.6967,-2.6553,-2.6533,-2.6714,-2.7284,-2.6699,-2.625,-2.6788,-2.618,-2.5564,-2.5425,-2.5398,-2.5563,0.0,-2.616,-2.6416,-2.6846,-2.7195,-2.7126,0.0,0.0,0.0,0.0,-2.6378,-2.6572,-2.7595,-2.8173,-2.9057,-3.0235,-3.157,-3.3124,-3.4807,-3.4589,-3.4897,-3.5622,-3.5622,-3.5622,-3.5673,-3.7024,-3.7729,-3.802,-3.9278,-3.9952,-4.007,-4.007,-4.007,-4.007,-4.007,-4.007,-4.007,-1.5832,-1.5832,-1.5832,-1.5832,-1.5832,-1.6749,-1.9389,-2.1676,-2.3135,-2.3135,-2.3135,-2.3135,-2.3135,-2.3135,-2.3135,-2.3135,-2.3135,-2.3135,-2.3135,-2.3135,-2.3135,-2.3135,-2.3135,-2.3135,-2.3135,-2.3135,-2.3027,-2.2793,-2.2412,-2.1992,-2.1523,-2.1113,-2.0674,-2.0225,-2.0459,-2.0312,-1.9883,-2.0117,-2.0098,-2.0013,-2.1366,-2.2235,-2.2953,-2.4262,-2.5134,-2.5573,-2.5586,-2.5774,-2.595,-2.5674,-2.5963,-2.6471,-2.6088,-2.6214,-2.6471,-2.6088,-2.6214,-2.6533,-2.6533,-2.671,-2.6967,-2.7519,-2.7695,-2.772,-2.767,-2.7469,-2.7205,-2.6904,-2.6697,-2.6658,-2.7095,-2.676,-2.6566,-2.7061,-2.6736,-2.6428,-2.6428,-2.6428,-2.665,-2.7354,-2.7451,-2.7727,-2.8457,-2.8487,-2.8338,-2.7979,-2.735,0.0,-2.7919,-2.7679,-2.7679,-2.8032,-2.8652,-2.9475,-3.052,-3.2134,-3.3854,-3.5622,-3.5183,-3.52,-3.5622,-3.5622,-3.5622,-3.5673,-3.6842,-3.7564,-3.8003,-3.9142,-3.9799,-4.007,-4.007,-4.007,-4.007,-4.007,-4.007,-4.007,-1.5832,-1.5832,-1.5832,-1.5832,-1.5832,-1.5832,-1.5832,-1.9935,-2.3135,-2.3135,-2.3135,-2.3135,-2.3135,-2.3135,-2.3135,-2.3135,-2.3135,-2.3135,-2.3135,-2.3135,-2.3135,-2.3135,-2.3135,-2.3135,-2.3135,-2.3135,-2.3135,-2.3135,-2.2432,-2.2012,-2.1865,-2.1064,-2.0654,-2.0566,-2.0566,-2.0566,-2.0566,-2.0566,-2.0352,-2.0151,-2.1959,-2.2842,-2.3137,-2.445,-2.5573,-2.6402,-2.59,-2.6101,-2.6647,-2.6647,-2.6647,-2.6647,-2.6647,-2.6647,-2.6647,-2.6647,-2.671,-2.6747,-2.6571,-2.6866,-2.7444,-2.8072,-2.7871,-2.7657,-2.8122,-2.7871,-2.7507,-2.7419,-2.7094,-2.6772,-2.6772,-2.7003,-2.7225,-2.7225,-2.7397,-2.7625,-2.7625,0.0,-2.7949,-2.8532,-2.8682,-2.8966,-2.952,-2.9579,-2.9579,-2.9579,-2.9071,-2.8996,-2.9549,-2.9146,-2.8921,-2.886,-2.9355,-2.9974,-3.0807,-3.2707,-3.4303,-3.5622,-3.5622,-3.5622,-3.5622,-3.5622,-3.5661,-3.583,-3.6605,-3.7368,-3.8137,-3.8839,-3.9528,-4.007,-4.007,-4.007,-4.007,-4.007,-4.007,-4.007,-1.5832,-1.5832,-1.5832,-1.5832,-1.5832,-1.5832,-1.5832,-1.9935,-2.3135,-2.3135,-2.3135,-2.3135,-2.3135,-2.3135,-2.3135,-2.3135,-2.3135,-2.3135,-2.3135,-2.3135,-2.3135,-2.3135,-2.3135,-2.3135,-2.3135,-2.3135,-2.3135,-2.3135,-2.3008,-2.2578,-2.1875,-2.1475,-2.1025,-2.0566,-2.0566,-2.0566,-2.0566,-2.0566,-2.0527,-2.0651,-2.2088,-2.2961,-2.3564,-2.4976,-2.5887,-2.6521,-2.642,-2.6691,-2.7155,-2.7155,-2.7155,-2.7155,-2.7155,-2.7155,-2.7155,-2.7155,-2.7494,-2.7645,-2.6716,-2.6866,-2.7532,-2.8549,-2.8737,-2.8699,-2.8787,-2.8737,-2.8536,-2.8072,-2.8119,-2.8164,-2.8164,-2.8153,-2.8083,-2.8083,-2.7817,-2.7625,-2.7625,0.0,-2.8487,-2.8592,-2.9086,-2.9475,-2.9564,-2.9579,-2.9579,-2.9579,-2.949,-2.9475,-2.9579,-2.9983,-3.0208,-3.0223,-2.9824,-3.0487,-3.2237,-3.3691,-3.4807,-3.5622,-3.5622,-3.5622,-3.5622,-3.5622,-3.5987,-3.6656,-3.7401,-3.8147,-3.8875,-3.9631,-4.0019,-4.007,-4.007,-4.007,-4.007,-4.007,-4.007,-4.007,-1.5832,-1.5832,-1.5832,-1.5832,-1.5832,-1.5832,-1.5832,-1.7755,-1.9214,-1.9214,-2.1489,-2.3135,-2.3135,-2.3135,-2.3135,-2.3135,-2.3135,-2.3135,-2.3135,-2.3135,-2.3135,-2.3135,-2.3135,-2.3135,-2.3135,-2.3135,-2.3135,-2.3135,-2.3135,-2.2715,-2.1885,-2.1738,-2.1279,-2.0576,-2.082,-2.0791,-2.0566,-2.0566,-2.0566,-2.0779,-2.2445,-2.3279,-2.3745,-2.5758,-2.6666,-2.6904,-2.6904,-2.7256,-2.7682,-2.7381,-2.7482,-2.772,-2.772,-2.772,-2.772,-2.772,-2.7908,-2.8059,-2.7846,-2.7758,-2.7996,-2.9114,-2.9164,-2.9013,-2.9327,-2.9151,-2.885,-2.8599,-2.8769,-2.8937,-2.8539,-2.8671,-2.8943,-2.9347,-2.838,0.0,-2.8996,-2.8831,-2.8996,-3.0058,-3.0118,-3.0357,-3.1091,-3.0851,-3.0627,-3.0627,-3.0283,-3.0238,-3.0612,-3.0552,-3.0672,-3.1046,-3.1172,-3.1858,-3.3123,-3.4119,-3.4935,-3.5622,-3.5622,-3.5622,-3.5622,-3.5622,-3.6034,-3.6803,-3.7158,-3.793,-3.9026,-3.9378,-3.9715,-4.007,-4.007,-4.007,-4.007,-4.007,-4.007,-4.007,-1.5832,-1.5832,-1.5832,-1.5832,-1.5832,-1.5832,-1.5832,-1.5832,-1.5832,-1.5832,-1.9031,-2.14,-2.14,-2.2413,-2.3135,-2.3135,-2.3135,-2.3135,-2.3135,-2.3135,-2.3135,-2.3135,-2.3135,-2.3135,-2.3135,-2.3135,-2.3135,-2.3135,-2.3135,-2.2754,-2.2031,-2.1992,-2.1582,-2.0879,-2.1123,-2.1045,-2.0713,-2.0605,-2.0566,-2.0809,-2.2853,-2.369,-2.396,-2.6504,-2.7469,-2.7469,-2.7469,-2.7821,-2.8235,-2.7808,-2.7946,-2.8298,-2.8298,-2.8298,-2.8298,-2.8298,-2.8398,-2.8599,-2.9013,-2.8637,-2.8373,-2.9515,-2.9365,-2.9089,-2.9666,-2.9453,-2.9126,-2.9126,-2.958,-2.9854,-2.9305,-2.9701,-3.0191,-3.0526,0.0,-2.8786,0.0,-2.9804,-2.9894,-3.1569,-3.1435,-3.1554,-3.2437,-3.2063,-3.1704,-3.1482,-3.118,-3.121,-3.1676,-3.1405,-3.1435,-3.1973,-3.2384,-3.2929,-3.3581,-3.4284,-3.4916,-3.5622,-3.5802,-3.5802,-3.5622,-3.596,-3.6454,-3.7087,-3.7227,-3.8063,-3.9244,-3.926,-3.958,-4.007,-4.007,-4.007,-4.007,-4.007,-4.007,-4.007,-1.5832,-1.5832,-1.5832,-1.5832,-1.5832,-1.5832,-1.5832,-1.5832,-1.5832,-1.5832,-1.6103,-1.6379,-1.6379,-2.0395,-2.3135,-2.3135,-2.3135,-2.3135,-2.3135,-2.3135,-2.3135,-2.3135,-2.3135,-2.3135,-2.3135,-2.3135,-2.3135,-2.3135,-2.3135,-2.291,-2.2461,-2.2324,-2.209,-2.1768,-2.1396,-2.1221,-2.1152,-2.0742,-2.0566,-2.0829,-2.3275,-2.4209,-2.4555,-2.7066,-2.8047,-2.8047,-2.8047,-2.8398,-2.8863,-2.8825,-2.8837,-2.8875,-2.8875,-2.8875,-2.8875,-2.8875,-2.9252,-2.9679,-2.9716,-2.8925,-2.8373,-2.9515,-2.9365,-2.9089,-2.9666,-2.9767,-2.9729,-2.9729,-3.0679,-3.1419,-3.1364,-3.1846,-3.2065,-3.1498,0.0,0.0,-3.0477,-3.0971,-3.1541,-3.2362,-3.2931,-3.3066,-3.2557,-3.2467,-3.2198,-3.1526,-3.2048,-3.2377,-3.2437,-3.2976,-3.3305,-3.335,-3.2874,-3.2933,-3.3601,-3.4284,-3.4958,-3.5622,-3.6378,-3.6344,-3.5673,-3.7097,-3.7767,-3.7833,-3.855,-3.9292,-4.002,-4.0003,-4.002,-4.007,-4.007,-4.007,-4.007,-4.007,-4.007,-4.007,-1.5832,-1.5832,-1.5832,-1.5832,-1.5832,-1.5832,-1.5832,-1.5832,-1.5832,-1.5832,-1.5832,-1.5832,-1.5832,-2.0124,-2.3135,-2.3135,-2.3135,-2.3135,-2.3135,-2.3135,-2.3135,-2.3135,-2.3135,-2.3135,-2.3135,-2.3135,-2.3135,-2.3135,-2.3135,-2.292,-2.2519,-2.2715,-2.249,-2.1894,-2.1982,-2.1889,-2.1639,-2.1194,-2.1174,-2.1614,-2.3514,-2.4442,-2.5,-2.7616,-2.8612,-2.8612,-2.8612,-2.8988,-2.9415,-2.9051,-2.9164,-2.9465,-2.9465,-2.9465,-2.9465,-2.9465,-2.9616,-2.9792,-2.9792,-2.9478,-2.9252,-2.9679,-2.9628,-2.9528,-2.9741,-2.9792,-2.9792,-2.9792,-3.0602,-3.137,-3.1556,-3.1966,-3.2511,-3.3259,0.0,-3.1569,-3.2796,-3.2482,-3.2542,-3.3604,-3.323,-3.2946,-3.3095,-3.2751,-3.2407,-3.2153,-3.2751,-3.3125,-3.3125,-3.3365,-3.3499,-3.3499,-3.4146,-3.4435,-3.4238,-3.4446,-3.4947,-3.5622,-3.6429,-3.6658,-3.639,-3.7401,-3.8145,-3.8622,-3.8888,-3.9411,-4.007,-4.007,-4.007,-4.007,-4.007,-4.007,-4.007,-4.007,-4.007,-4.007,-1.5832,-1.5832,-1.5832,-1.5832,-1.5832,-1.5832,-1.5832,-1.5832,-1.5832,-1.5832,-1.5832,-1.6379,-1.7933,-2.1123,-2.3135,-2.3135,-2.3135,-2.3135,-2.3135,-2.3135,-2.3135,-2.3135,-2.3135,-2.3135,-2.3135,-2.3135,-2.3135,-2.3135,-2.3135,-2.2988,-2.2715,-2.2998,-2.2832,-2.2285,-2.2464,-2.2353,-2.2063,-2.162,-2.1637,-2.2051,-2.3991,-2.4925,-2.552,-2.8179,-2.9202,-2.9202,-2.9202,-2.9453,-2.9729,-2.934,-2.9465,-2.9792,-2.9792,-2.9792,-2.9792,-2.9792,-2.9792,-2.9792,-2.9792,-2.9792,-2.9792,-2.9792,-2.9792,-2.9792,-2.9792,-2.9792,-2.9856,-3.0216,-3.0983,-3.1766,-3.2264,-3.2835,-3.3445,-3.4364,-3.3335,-3.2931,-3.4292,-3.3709,-3.3544,-3.4666,-3.3993,-3.3544,-3.3784,-3.3395,-3.3036,-3.2841,-3.344,-3.3903,-3.4113,-3.4128,-3.4237,-3.4439,-3.5237,-3.568,-3.563,-3.5646,-3.59,-3.6327,-3.7119,-3.7385,-3.7166,-3.8164,-3.8753,-3.9025,-3.9226,-3.9614,-4.007,-4.007,-4.007,-4.007,-4.007,-4.007,-4.007,-4.007,-4.007,-4.007,-1.5832,-1.5832,-1.5832,-1.5832,-1.5832,-1.5832,-1.5832,-1.5832,-1.5832,-1.5832,-1.5832,-1.7662,-2.2589,-2.3135,-2.3135,-2.3135,-2.3135,-2.3135,-2.3135,-2.3135,-2.3135,-2.3135,-2.3135,-2.3135,-2.3135,-2.3135,-2.3135,-2.3135,-2.3135,-2.3135,-2.3135,-2.3135,-2.3135,-2.3047,-2.2688,-2.2467,-2.249,-2.207,-2.1894,-2.2172,-2.474,-2.5813,-2.6109,-2.8753,-2.9792,-2.9792,-2.9792,-2.9792,-2.9792,-2.9792,-2.9792,-2.9792,-2.9792,-2.9792,-2.9792,-2.9792,-2.9792,-2.9792,-2.9792,-2.9792,-2.9792,-2.9792,-2.9792,-2.9792,-2.9792,-2.9792,-3.0075,-3.1044,-3.196,-3.289,-3.3808,-3.4839,-3.528,-3.4592,-3.4487,-3.4487,-3.4487,-3.4487,-3.4741,-3.5429,-3.5504,-3.5235,-3.4547,-3.4472,-3.4203,-3.3559,-3.4113,-3.4786,-3.5474,-3.5504,-3.5846,-3.6554,-3.5949,-3.6337,-3.7801,-3.7885,-3.7885,-3.7891,-3.864,-3.8618,-3.7949,-3.9429,-3.9681,-3.9039,-3.9766,-4.007,-4.007,-4.007,-4.007,-4.007,-4.007,-4.007,-4.007,-4.007,-4.007,-4.007,-1.5832,-1.5832,-1.5832,-1.5832,-1.5832,-1.5832,-1.5832,-1.5832,-1.5832,-1.5832,-1.5832,-1.7662,-2.2589,-2.3135,-2.3135,-2.3135,-2.3135,-2.3135,-2.3135,-2.3135,-2.3135,-2.3135,-2.3135,-2.3135,-2.3135,-2.3135,-2.3135,-2.3135,-2.3135,-2.3135,-2.3135,-2.3135,-2.3135,-2.3047,-2.2931,-2.295,-2.2853,-2.2486,-2.2437,-2.2906,-2.5001,-2.6026,-2.6515,-2.89,-2.9792,-2.9792,-2.9792,-2.9792,-2.9792,-2.9792,-2.9792,-2.9792,-2.9792,-2.9792,-2.9792,-2.9792,-2.9792,-2.9792,-2.9792,-2.9792,-2.9792,-2.9792,-2.9792,-2.9792,-2.9792,-2.9792,-3.0075,-3.1044,-3.1389,-3.2105,-3.3739,-3.4245,-3.4618,-3.5091,-3.519,-3.519,-3.519,-3.519,-3.528,-3.5489,-3.507,-3.4696,-3.4502,-3.4472,-3.4397,-3.4203,-3.4816,-3.5295,-3.5489,-3.5504,-3.5846,-3.6554,-3.6939,-3.7584,-3.8541,-3.759,-3.7369,-3.7902,-3.865,-3.8871,-3.8702,-3.9665,-3.9952,-3.9766,-3.9986,-4.007,-4.007,-4.007,-4.007,-4.007,-4.007,-4.007,-4.007,-4.007,-4.007,-4.007,-1.5832,-1.5832,-1.5832,-1.5832,-1.5832,-1.5832,-1.5832,-1.5832,-1.5832,-1.5832,-1.5832,-1.7662,-2.2589,-2.3135,-2.3135,-2.3135,-2.3135,-2.3135,-2.3135,-2.3135,-2.3135,-2.3135,-2.3135,-2.3135,-2.3135,-2.3135,-2.3135,-2.3135,-2.3135,-2.3135,-2.3135,-2.3135,-2.3135,-2.3135,-2.3135,-2.3135,-2.3047,-2.2814,-2.2911,-2.328,-2.5243,-2.6285,-2.673,-2.8961,-2.9792,-2.9792,-2.9792,-2.9792,-2.9792,-2.9792,-2.9792,-2.9792,-2.9792,-2.9792,-2.9792,-2.9792,-2.9792,-2.9792,-2.9792,-2.9792,-2.9792,-2.9792,-2.9792,-2.9792,-2.9792,-2.9792,-3.0139,-3.1462,-3.1742,-3.2321,-3.4259,-3.461,-3.4758,-3.5424,-3.5504,-3.5504,-3.5504,-3.5504,-3.5504,-3.5504,-3.513,-3.4891,-3.4891,-3.4891,-3.4891,-3.4891,-3.5265,-3.5504,-3.5504,-3.5504,-3.5958,-3.704,-3.7573,-3.8318,-3.9368,-3.8513,-3.832,-3.8768,-3.9227,-3.9429,-3.9445,-3.9884,-4.007,-4.007,-4.007,-4.007,-4.007,-4.007,-4.007,-4.007,-4.007,-4.007,-4.007,-4.007,-4.007,-4.007,-1.5832,-1.5832,-1.5832,-1.5832,-1.5832,-1.5832,-1.5832,-1.5832,-1.592,-1.6379,-1.6103,-1.7662,-2.2589,-2.3135,-2.3135,-2.3135,-2.3135,-2.3135,-2.3135,-2.3135,-2.3135,-2.3135,-2.3135,-2.3135,-2.3135,-2.3135,-2.3135,-2.3135,-2.3135,-2.3135,-2.3135,-2.3135,-2.3135,-2.3135,-2.3135,-2.3135,-2.3135,-2.3135,-2.3135,-2.3309,-2.5557,-2.6483,-2.673,-2.8961,-2.9792,-2.9792,-2.9792,-2.9792,-2.9792,-2.9792,-2.9792,-2.9792,-2.9792,-2.9792,-2.9792,-2.9792,-2.9792,-2.9792,-2.9792,-2.9792,-2.9804,-2.9854,-2.9867,-2.9854,-2.9804,-2.9792,-3.0355,-3.2177,-3.2593,-3.3185,-3.5148,-3.5504,-3.5504,-3.5504,-3.5504,-3.5504,-3.5504,-3.5504,-3.5504,-3.5504,-3.5504,-3.5504,-3.5504,-3.5504,-3.5504,-3.5504,-3.5504,-3.5504,-3.5504,-3.5504,-3.6211,-3.7764,-3.7822,-3.8557,-4.007,-4.007,-4.007,-4.007,-4.007,-4.007,-4.007,-4.007,-4.007,-4.007,-4.007,-4.007,-4.007,-4.007,-4.007,-4.007,-4.007,-4.007,-4.007,-4.007,-4.007,-4.007,-1.5832,-1.5832,-1.5832,-1.5832,-1.5832,-1.5832,-1.5832,-1.5832,-1.7203,-2.1033,-1.8211,-1.7662,-2.2589,-2.3135,-2.3135,-2.3135,-2.3135,-2.3135,-2.3135,-2.3135,-2.3135,-2.3135,-2.3135,-2.3135,-2.3135,-2.3135,-2.3135,-2.3135,-2.3135,-2.3135,-2.3135,-2.3135,-2.3135,-2.3135,-2.3135,-2.3135,-2.3135,-2.3135,-2.3135,-2.3309,-2.5557,-2.6483,-2.673,-2.8961,-2.9792,-2.9792,-2.9792,-2.9792,-2.9792,-2.9792,-2.9792,-2.9792,-2.9792,-2.9792,-2.9792,-2.9792,-2.9792,-2.9792,-2.9792,-2.9792,-2.9892,-3.0331,-3.0432,-3.0331,-2.9892,-2.9792,-3.0355,-3.2177,-3.2593,-3.3185,-3.5148,-3.5504,-3.5504,-3.5504,-3.5504,-3.5504,-3.5504,-3.5504,-3.5504,-3.5504,-3.5504,-3.5504,-3.5504,-3.5504,-3.5504,-3.5504,-3.5504,-3.5504,-3.5504,-3.5504,-3.6211,-3.7764,-3.7822,-3.8557,-4.007,-4.007,-4.007,-4.007,-4.007,-4.007,-4.007,-4.007,-4.007,-4.007,-4.007,-4.007,-4.007,-4.007,-4.007,-4.007,-4.007,-4.007,-4.007,-4.007,-4.007,-4.007,-1.5832,-1.5832,-1.5832,-1.5832,-1.5832,-1.5832,-1.5832,-1.5832,-1.7569,-2.2501,-2.0854,-2.0305,-2.2862,-2.3135,-2.3135,-2.3135,-2.3135,-2.3135,-2.3135,-2.3135,-2.3135,-2.3135,-2.3135,-2.3135,-2.3135,-2.3135,-2.3135,-2.3135,-2.3135,-2.3135,-2.3135,-2.3135,-2.3135,-2.3135,-2.3135,-2.3135,-2.3135,-2.3714,-2.3877,-2.4135,-2.6378,-2.729,-2.7452,-2.9118,-2.9792,-2.9792,-2.9792,-2.9792,-2.9792,-2.9792,-2.9792,-2.9792,-2.9792,-2.9792,-2.9792,-2.9792,-2.9792,-2.9792,-2.9792,-2.998,-3.0256,-3.0545,-3.0809,-3.0909,-3.062,-3.0711,-3.125,-3.2673,-3.3156,-3.3754,-3.5213,-3.5504,-3.5504,-3.5504,-3.5504,-3.5504,-3.5504,-3.5504,-3.5504,-3.5504,-3.5504,-3.5504,-3.5504,-3.5504,-3.5504,-3.5504,-3.5504,-3.5504,-3.5504,-3.5831,-3.6585,-3.7748,-3.8133,-3.8887,-4.007,-4.007,-4.007,-4.007,-4.007,-4.007,-4.007,-4.007,-4.007,-4.007,-4.007,-4.007,-4.007,-4.007,-4.007,-4.007,-4.007,-4.007,-4.007,-4.007,-4.007,-4.007,-1.5832,-1.5832,-1.5832,-1.5832,-1.5832,-1.5832,-1.5832,-1.5832,-1.7569,-2.2501,-2.3135,-2.3135,-2.3135,-2.3135,-2.3135,-2.3135,-2.3135,-2.3135,-2.3135,-2.3135,-2.3135,-2.3135,-2.3135,-2.3135,-2.3135,-2.3135,-2.3135,-2.3135,-2.3135,-2.3135,-2.3135,-2.3135,-2.3135,-2.3135,-2.3135,-2.3222,-2.3464,-2.4372,-2.4872,-2.5294,-2.7267,-2.8096,-2.8255,-2.9365,-2.9792,-2.9792,-2.9792,-2.9792,-2.9792,-2.9792,-2.9792,-2.9792,-2.9792,-2.9792,-2.9792,-2.9792,-2.9867,-2.9955,-2.9942,-3.0331,-3.0771,-3.0871,-3.121,-3.1631,-3.1883,-3.2083,-3.2488,-3.3583,-3.4129,-3.4603,-3.5472,-3.5759,-3.5789,-3.5684,-3.5669,-3.5669,-3.5669,-3.5579,-3.5504,-3.5504,-3.5504,-3.5504,-3.5504,-3.5504,-3.5504,-3.5504,-3.5504,-3.5504,-3.5504,-3.6228,-3.6964,-3.7748,-3.8525,-3.9315,-4.007,-4.007,-4.007,-4.007,-4.007,-4.007,-4.007,-4.007,-4.007,-4.007,-4.007,-4.007,-4.007,-4.007,-4.007,-4.007,-4.007,-4.007,-4.007,-4.007,-4.007,-4.007,-1.5832,-1.5832,-1.5832,-1.5832,-1.5832,-1.5832,-1.5832,-1.5832,-1.7569,-2.2501,-2.3135,-2.3135,-2.3135,-2.3135,-2.3135,-2.3135,-2.3135,-2.3135,-2.3135,-2.3135,-2.3135,-2.3135,-2.3135,-2.3135,-2.3135,-2.3135,-2.3135,-2.3135,-2.3135,-2.3135,-2.3135,-2.3135,-2.3135,-2.3135,-2.3135,-2.3627,-2.4542,-2.4702,-2.5378,-2.6389,-2.7602,-2.8096,-2.8255,-2.9365,-2.9792,-2.9792,-2.9792,-2.9792,-2.9792,-2.9792,-2.9792,-2.9792,-2.9792,-2.9792,-2.9792,-2.9792,-3.0115,-3.0461,-3.0532,-3.0884,-3.1399,-3.1876,-3.2051,-3.2465,-3.391,-3.3515,-3.3409,-3.525,-3.5712,-3.5863,-3.6298,-3.6791,-3.6971,-3.6447,-3.6357,-3.6357,-3.6357,-3.5863,-3.5504,-3.5504,-3.5504,-3.5504,-3.5504,-3.5504,-3.5504,-3.5504,-3.5504,-3.5504,-3.5504,-3.6228,-3.6964,-3.7748,-3.8525,-3.9315,-4.007,-4.007,-4.007,-4.007,-4.007,-4.007,-4.007,-4.007,-4.007,-4.007,-4.007,-4.007,-4.007,-4.007,-4.007,-4.007,-4.007,-4.007,-4.007,-4.007,-4.007,-4.007,-1.5832,-1.5832,-1.5832,-1.5832,-1.5832,-1.5832,-1.5832,-1.8118,-2.0666,-2.2862,-2.3135,-2.3135,-2.3135,-2.3135,-2.3135,-2.3135,-2.3135,-2.3135,-2.3135,-2.3135,-2.3135,-2.3135,-2.3135,-2.3135,-2.3135,-2.3135,-2.3135,-2.3135,-2.3135,-2.3135,-2.3135,-2.3135,-2.3135,-2.3135,-2.38,-2.4296,-2.4872,-2.6108,-2.6942,-2.7533,-2.8609,-2.9028,-2.9106,-2.9624,-2.9792,-2.9792,-2.9792,-2.9792,-2.9792,-2.9792,-2.9792,-2.9842,-3.0156,-3.0287,-3.0302,-3.0624,-3.0889,-3.104,-3.1035,-3.1436,-3.1901,-3.2152,-3.2453,-3.3237,-3.513,-3.5181,-3.5096,-3.6196,-3.6603,-3.6803,-3.6977,-3.7225,-3.7315,-3.7045,-3.6716,-3.6492,-3.6492,-3.5923,-3.5504,-3.5504,-3.5504,-3.5504,-3.5504,-3.5504,-3.5504,-3.5504,-3.5504,-3.5504,-3.5504,-3.6646,-3.7456,-3.7806,-3.8941,-3.9731,-4.007,-4.007,-4.007,-4.007,-4.007,-4.007,-4.007,-4.007,-4.007,-4.007,-4.007,-4.007,-4.007,-4.007,-4.007,-4.007,-4.007,-4.0341,-4.0646,-4.024,-4.0341,-4.0646]}]]